GFSSW_prec_precacc_057.txt.gz
Total_Precipitation_Accumulation
0.03 0.02 0.02 0.02 0.02 0.02 0.02 0.01 0.02 0.02 0.02 0.02 0.02 0.02 0.02 0.02 0.00 0.00 0.00 0.00 0.00 0.00 0.00 0.00 0.00 0.00 0.00 0.00 0.00 0.00 0.00 0.00 0.00 0.01 0.15 0.23 0.08 0.24 0.13 0.11 0.27 0.31 0.50 0.60 0.85
0.04 0.04 0.03 0.03 0.02 0.02 0.02 0.02 0.02 0.02 0.03 0.03 0.01 0.02 0.02 0.02 0.00 0.00 0.00 0.00 0.00 0.00 0.00 0.00 0.00 0.00 0.00 0.00 0.00 0.00 0.00 0.00 0.00 0.06 0.24 0.13 0.03 0.19 0.09 0.19 0.54 0.38 0.72 0.66 0.43
0.03 0.03 0.03 0.03 0.03 0.02 0.02 0.03 0.02 0.02 0.02 0.01 0.01 0.02 0.02 0.01 0.00 0.00 0.00 0.00 0.00 0.00 0.00 0.00 0.00 0.00 0.00 0.00 0.00 0.00 0.00 0.00 0.02 0.11 0.04 0.02 0.07 0.10 0.32 0.45 0.52 1.13 0.48 0.41 0.49
0.03 0.02 0.02 0.03 0.03 0.03 0.02 0.02 0.02 0.02 0.02 0.01 0.01 0.02 0.02 0.00 0.00 0.00 0.00 0.00 0.00 0.00 0.00 0.00 0.00 0.00 0.00 0.00 0.00 0.00 0.00 0.00 0.01 0.01 0.01 0.00 0.01 0.11 0.35 0.80 0.30 0.32 0.38 0.47 0.75
0.03 0.02 0.02 0.03 0.03 0.03 0.03 0.02 0.02 0.02 0.01 0.01 0.01 0.02 0.01 0.00 0.00 0.00 0.00 0.00 0.00 0.00 0.00 0.00 0.00 0.00 0.00 0.00 0.00 0.00 0.00 0.00 0.01 0.04 0.03 0.00 0.04 0.12 0.30 0.11 0.11 0.16 0.38 0.55 0.56
0.03 0.02 0.02 0.03 0.03 0.03 0.02 0.02 0.02 0.01 0.01 0.02 0.02 0.01 0.00 0.00 0.00 0.00 0.00 0.00 0.00 0.00 0.00 0.00 0.00 0.00 0.00 0.00 0.00 0.00 0.00 0.00 0.00 0.01 0.01 0.02 0.05 0.09 0.39 0.12 0.12 0.12 0.32 0.56 0.58
0.02 0.02 0.03 0.03 0.03 0.03 0.02 0.02 0.02 0.01 0.02 0.02 0.02 0.01 0.00 0.00 0.00 0.00 0.00 0.00 0.00 0.00 0.00 0.00 0.00 0.00 0.00 0.00 0.00 0.00 0.00 0.02 0.03 0.01 0.00 0.05 0.19 0.35 0.13 0.08 0.07 0.03 0.04 0.36 0.86
0.03 0.03 0.03 0.02 0.03 0.02 0.02 0.02 0.02 0.02 0.02 0.01 0.01 0.00 0.00 0.00 0.00 0.00 0.00 0.00 0.00 0.00 0.00 0.00 0.00 0.00 0.00 0.00 0.00 0.00 0.00 0.01 0.04 0.03 0.02 0.15 0.48 0.05 0.03 0.05 0.04 0.01 0.01 0.06 0.10
0.03 0.03 0.02 0.02 0.02 0.03 0.02 0.02 0.02 0.02 0.02 0.01 0.00 0.00 0.00 0.00 0.00 0.00 0.00 0.00 0.00 0.00 0.00 0.00 0.00 0.00 0.00 0.00 0.00 0.00 0.00 0.00 0.01 0.01 0.01 0.05 0.33 0.12 0.05 0.09 0.08 0.02 0.01 0.01 0.01
0.03 0.02 0.01 0.02 0.03 0.03 0.02 0.02 0.02 0.01 0.01 0.00 0.00 0.00 0.00 0.00 0.00 0.00 0.00 0.00 0.00 0.00 0.00 0.00 0.00 0.00 0.00 0.00 0.00 0.00 0.00 0.00 0.02 0.02 0.01 0.01 0.03 0.25 0.12 0.05 0.27 0.09 0.04 0.04 0.00
0.03 0.02 0.01 0.02 0.04 0.03 0.01 0.01 0.01 0.00 0.00 0.00 0.00 0.00 0.00 0.00 0.00 0.00 0.00 0.00 0.00 0.00 0.00 0.00 0.00 0.00 0.00 0.00 0.00 0.00 0.00 0.00 0.00 0.01 0.00 0.00 0.01 0.01 0.00 0.00 0.03 0.05 0.07 0.02 0.00
0.03 0.01 0.01 0.03 0.05 0.03 0.00 0.00 0.00 0.00 0.00 0.00 0.00 0.00 0.00 0.00 0.00 0.00 0.00 0.00 0.00 0.00 0.01 0.00 0.00 0.00 0.00 0.00 0.00 0.00 0.00 0.00 0.00 0.00 0.00 0.00 0.00 0.00 0.00 0.00 0.01 0.01 0.11 0.03 0.00
0.03 0.02 0.01 0.03 0.05 0.02 0.00 0.00 0.00 0.00 0.00 0.00 0.00 0.00 0.00 0.00 0.00 0.00 0.00 0.00 0.00 0.00 0.00 0.00 0.00 0.00 0.00 0.00 0.00 0.00 0.00 0.00 0.00 0.00 0.00 0.00 0.00 0.00 0.01 0.01 0.02 0.00 0.00 0.00 0.00
0.03 0.01 0.02 0.05 0.01 0.00 0.00 0.00 0.00 0.00 0.00 0.00 0.00 0.00 0.00 0.00 0.00 0.00 0.00 0.00 0.00 0.00 0.00 0.00 0.00 0.00 0.00 0.00 0.00 0.00 0.00 0.00 0.00 0.00 0.00 0.00 0.00 0.00 0.00 0.01 0.00 0.00 0.00 0.00 0.00
0.04 0.03 0.05 0.06 0.01 0.00 0.00 0.00 0.00 0.00 0.00 0.00 0.00 0.00 0.00 0.00 0.00 0.00 0.00 0.00 0.00 0.00 0.00 0.01 0.00 0.00 0.00 0.00 0.00 0.00 0.00 0.00 0.00 0.00 0.04 0.02 0.00 0.03 0.05 0.02 0.00 0.00 0.00 0.00 0.00
0.07 0.07 0.13 0.07 0.02 0.00 0.00 0.00 0.03 0.05 0.01 0.00 0.00 0.00 0.00 0.00 0.00 0.00 0.00 0.00 0.00 0.00 0.00 0.01 0.00 0.00 0.00 0.00 0.00 0.00 0.00 0.00 0.00 0.00 0.01 0.01 0.01 0.01 0.01 0.01 0.01 0.00 0.00 0.00 0.00
0.11 0.13 0.15 0.05 0.02 0.00 0.01 0.12 0.10 0.03 0.00 0.00 0.00 0.00 0.00 0.00 0.00 0.00 0.00 0.00 0.00 0.00 0.00 0.00 0.00 0.00 0.00 0.00 0.00 0.00 0.00 0.00 0.05 0.00 0.00 0.00 0.01 0.01 0.01 0.04 0.08 0.10 0.00 0.00 0.00
0.12 0.20 0.12 0.04 0.01 0.03 0.15 0.29 0.08 0.00 0.00 0.00 0.00 0.00 0.00 0.00 0.00 0.00 0.00 0.00 0.00 0.00 0.00 0.01 0.01 0.00 0.00 0.00 0.00 0.00 0.00 0.01 0.15 0.09 0.03 0.06 0.01 0.01 0.00 0.00 0.00 0.00 0.00 0.00 0.00
0.34 0.27 0.19 0.07 0.02 0.05 0.31 0.28 0.03 0.00 0.00 0.00 0.00 0.00 0.00 0.00 0.00 0.00 0.00 0.00 0.00 0.00 0.02 0.03 0.01 0.02 0.00 0.00 0.00 0.00 0.00 0.00 0.03 0.09 0.05 0.06 0.01 0.00 0.00 0.00 0.00 0.00 0.00 0.00 0.00
0.44 0.43 0.16 0.06 0.10 0.27 0.62 0.19 0.00 0.01 0.00 0.00 0.00 0.00 0.00 0.00 0.00 0.00 0.00 0.00 0.00 0.00 0.00 0.04 0.08 0.02 0.01 0.00 0.00 0.00 0.00 0.00 0.00 0.03 0.05 0.00 0.01 0.01 0.01 0.00 0.00 0.00 0.00 0.00 0.00
0.84 0.82 0.19 0.10 0.50 0.72 0.54 0.10 0.00 0.00 0.00 0.00 0.00 0.00 0.00 0.00 0.00 0.00 0.00 0.00 0.00 0.00 0.00 0.00 0.03 0.04 0.00 0.00 0.00 0.00 0.00 0.00 0.00 0.00 0.01 0.02 0.00 0.00 0.00 0.00 0.00 0.00 0.00 0.00 0.00
1.36 0.96 0.24 0.16 0.83 0.54 0.16 0.02 0.00 0.00 0.00 0.00 0.00 0.00 0.00 0.00 0.00 0.00 0.00 0.00 0.00 0.00 0.00 0.00 0.00 0.00 0.00 0.00 0.00 0.00 0.01 0.04 0.01 0.00 0.00 0.02 0.00 0.00 0.00 0.00 0.00 0.00 0.00 0.00 0.00
1.70 0.99 0.82 0.29 0.49 0.21 0.10 0.02 0.00 0.00 0.00 0.00 0.00 0.00 0.00 0.00 0.00 0.00 0.00 0.00 0.00 0.00 0.00 0.00 0.00 0.00 0.00 0.00 0.01 0.00 0.00 0.00 0.00 0.00 0.00 0.03 0.00 0.00 0.00 0.00 0.00 0.00 0.00 0.00 0.00
2.00 1.41 1.79 1.08 0.16 0.05 0.08 0.05 0.00 0.00 0.00 0.00 0.00 0.00 0.00 0.01 0.00 0.00 0.00 0.00 0.00 0.00 0.00 0.00 0.00 0.00 0.00 0.00 0.00 0.00 0.00 0.00 0.00 0.00 0.00 0.00 0.00 0.00 0.00 0.00 0.00 0.00 0.00 0.00 0.00
2.90 0.99 0.62 0.60 0.24 0.07 0.04 0.02 0.00 0.00 0.00 0.00 0.00 0.00 0.00 0.00 0.00 0.01 0.01 0.00 0.01 0.01 0.01 0.02 0.01 0.00 0.00 0.00 0.00 0.00 0.00 0.00 0.00 0.00 0.00 0.00 0.00 0.00 0.00 0.00 0.00 0.00 0.00 0.00 0.00
3.09 0.49 0.19 0.10 0.05 0.08 0.11 0.04 0.00 0.00 0.00 0.00 0.00 0.00 0.00 0.00 0.01 0.07 0.05 0.04 0.04 0.01 0.01 0.04 0.03 0.00 0.00 0.00 0.00 0.00 0.00 0.00 0.00 0.00 0.00 0.00 0.00 0.00 0.00 0.00 0.00 0.00 0.00 0.00 0.00
2.72 0.38 0.23 0.21 0.09 0.15 0.08 0.02 0.01 0.00 0.00 0.00 0.00 0.00 0.00 0.00 0.09 0.09 0.14 0.12 0.12 0.08 0.04 0.04 0.07 0.04 0.02 0.01 0.01 0.00 0.00 0.00 0.00 0.00 0.00 0.00 0.00 0.00 0.00 0.00 0.00 0.00 0.00 0.00 0.00

GFSSW_prec_precacc_060.txt.gz
Total_Precipitation_Accumulation
0.03 0.02 0.02 0.02 0.02 0.02 0.02 0.01 0.02 0.02 0.02 0.02 0.02 0.02 0.02 0.02 0.00 0.00 0.00 0.00 0.00 0.00 0.00 0.00 0.00 0.00 0.00 0.00 0.00 0.00 0.00 0.00 0.00 0.01 0.15 0.23 0.08 0.24 0.13 0.11 0.27 0.31 0.50 0.60 0.85
0.04 0.04 0.03 0.03 0.02 0.02 0.02 0.02 0.02 0.02 0.03 0.03 0.01 0.02 0.02 0.02 0.00 0.00 0.00 0.00 0.00 0.00 0.00 0.00 0.00 0.00 0.00 0.00 0.00 0.00 0.00 0.00 0.00 0.06 0.24 0.13 0.03 0.19 0.09 0.19 0.54 0.38 0.72 0.66 0.43
0.03 0.03 0.03 0.03 0.03 0.02 0.02 0.03 0.02 0.02 0.02 0.01 0.01 0.02 0.02 0.01 0.00 0.00 0.00 0.00 0.00 0.00 0.00 0.00 0.00 0.00 0.00 0.00 0.00 0.00 0.00 0.00 0.02 0.11 0.04 0.02 0.07 0.10 0.32 0.45 0.52 1.13 0.48 0.41 0.49
0.03 0.02 0.02 0.03 0.03 0.03 0.02 0.02 0.02 0.02 0.02 0.01 0.01 0.02 0.02 0.00 0.00 0.00 0.00 0.00 0.00 0.00 0.00 0.00 0.00 0.00 0.00 0.00 0.00 0.00 0.00 0.00 0.01 0.01 0.01 0.00 0.01 0.11 0.35 0.80 0.30 0.32 0.38 0.47 0.75
0.03 0.02 0.02 0.03 0.03 0.03 0.03 0.02 0.02 0.02 0.01 0.01 0.01 0.02 0.01 0.00 0.00 0.00 0.00 0.00 0.00 0.00 0.00 0.00 0.00 0.00 0.00 0.00 0.00 0.00 0.00 0.00 0.01 0.04 0.03 0.00 0.04 0.12 0.30 0.11 0.11 0.16 0.38 0.55 0.56
0.03 0.02 0.02 0.03 0.03 0.03 0.02 0.02 0.02 0.01 0.01 0.02 0.02 0.01 0.00 0.00 0.00 0.00 0.00 0.00 0.00 0.00 0.00 0.00 0.00 0.00 0.00 0.00 0.00 0.00 0.00 0.00 0.00 0.01 0.01 0.02 0.05 0.09 0.39 0.12 0.12 0.12 0.32 0.56 0.58
0.03 0.03 0.03 0.03 0.03 0.03 0.02 0.02 0.02 0.01 0.02 0.02 0.02 0.01 0.00 0.00 0.00 0.00 0.00 0.00 0.00 0.00 0.00 0.00 0.00 0.00 0.00 0.00 0.00 0.00 0.00 0.02 0.03 0.01 0.00 0.05 0.19 0.35 0.13 0.08 0.07 0.03 0.04 0.36 0.86
0.03 0.03 0.03 0.02 0.03 0.02 0.02 0.02 0.02 0.02 0.02 0.01 0.01 0.00 0.00 0.00 0.00 0.00 0.00 0.00 0.00 0.00 0.00 0.00 0.00 0.00 0.00 0.00 0.00 0.00 0.00 0.01 0.04 0.03 0.02 0.15 0.48 0.05 0.03 0.05 0.04 0.01 0.01 0.06 0.10
0.03 0.03 0.02 0.02 0.02 0.03 0.02 0.02 0.02 0.02 0.02 0.01 0.00 0.00 0.00 0.00 0.00 0.00 0.00 0.00 0.00 0.00 0.00 0.00 0.00 0.00 0.00 0.00 0.00 0.00 0.00 0.00 0.01 0.01 0.01 0.05 0.33 0.12 0.05 0.09 0.08 0.02 0.01 0.01 0.01
0.03 0.02 0.01 0.02 0.03 0.03 0.02 0.02 0.02 0.01 0.01 0.00 0.00 0.00 0.00 0.00 0.00 0.00 0.00 0.00 0.00 0.00 0.00 0.00 0.00 0.00 0.00 0.00 0.00 0.00 0.00 0.00 0.02 0.02 0.01 0.01 0.03 0.25 0.12 0.05 0.27 0.09 0.04 0.04 0.00
0.03 0.02 0.01 0.02 0.04 0.03 0.01 0.01 0.01 0.00 0.00 0.00 0.00 0.00 0.00 0.00 0.00 0.00 0.00 0.00 0.00 0.00 0.00 0.00 0.00 0.00 0.00 0.00 0.00 0.00 0.00 0.00 0.00 0.01 0.00 0.00 0.01 0.01 0.00 0.00 0.03 0.05 0.07 0.02 0.00
0.03 0.01 0.01 0.04 0.05 0.03 0.00 0.00 0.00 0.00 0.00 0.00 0.00 0.00 0.00 0.00 0.00 0.00 0.00 0.00 0.00 0.00 0.01 0.00 0.00 0.00 0.00 0.00 0.00 0.00 0.00 0.00 0.00 0.00 0.00 0.00 0.00 0.00 0.00 0.00 0.01 0.01 0.11 0.03 0.00
0.03 0.02 0.01 0.03 0.05 0.02 0.00 0.00 0.00 0.00 0.00 0.00 0.00 0.00 0.00 0.00 0.00 0.00 0.00 0.00 0.00 0.00 0.00 0.00 0.00 0.00 0.00 0.00 0.00 0.00 0.00 0.00 0.00 0.00 0.00 0.00 0.00 0.00 0.01 0.01 0.02 0.00 0.00 0.00 0.00
0.03 0.01 0.02 0.05 0.01 0.00 0.00 0.00 0.00 0.00 0.01 0.00 0.00 0.00 0.00 0.00 0.00 0.00 0.00 0.00 0.00 0.00 0.00 0.00 0.00 0.00 0.00 0.00 0.00 0.00 0.00 0.00 0.00 0.00 0.00 0.00 0.00 0.00 0.00 0.01 0.00 0.00 0.00 0.00 0.00
0.05 0.03 0.05 0.06 0.02 0.00 0.00 0.00 0.00 0.00 0.00 0.00 0.00 0.00 0.00 0.00 0.00 0.00 0.00 0.00 0.00 0.00 0.00 0.01 0.00 0.00 0.00 0.00 0.00 0.00 0.00 0.00 0.00 0.00 0.04 0.02 0.00 0.03 0.05 0.02 0.00 0.00 0.00 0.00 0.00
0.07 0.07 0.13 0.07 0.03 0.00 0.00 0.00 0.03 0.05 0.01 0.00 0.00 0.00 0.00 0.00 0.00 0.00 0.00 0.00 0.00 0.00 0.00 0.01 0.00 0.00 0.00 0.00 0.00 0.00 0.00 0.00 0.00 0.00 0.01 0.01 0.01 0.01 0.01 0.01 0.01 0.00 0.00 0.00 0.00
0.11 0.14 0.16 0.05 0.03 0.00 0.01 0.12 0.10 0.03 0.00 0.00 0.00 0.00 0.00 0.00 0.00 0.00 0.00 0.00 0.00 0.00 0.00 0.00 0.00 0.00 0.00 0.00 0.00 0.00 0.00 0.00 0.05 0.00 0.00 0.00 0.01 0.01 0.01 0.04 0.08 0.10 0.00 0.00 0.00
0.12 0.21 0.13 0.04 0.02 0.04 0.15 0.29 0.08 0.00 0.00 0.00 0.00 0.00 0.00 0.00 0.00 0.00 0.00 0.00 0.00 0.00 0.00 0.01 0.02 0.00 0.00 0.00 0.00 0.00 0.00 0.01 0.15 0.09 0.03 0.06 0.01 0.01 0.00 0.00 0.00 0.00 0.00 0.00 0.00
0.34 0.28 0.20 0.07 0.02 0.06 0.32 0.29 0.04 0.00 0.00 0.00 0.00 0.00 0.00 0.00 0.00 0.00 0.00 0.00 0.00 0.00 0.02 0.03 0.01 0.02 0.00 0.00 0.00 0.00 0.00 0.00 0.03 0.09 0.05 0.06 0.01 0.00 0.00 0.00 0.00 0.00 0.00 0.00 0.00
0.47 0.44 0.16 0.06 0.12 0.30 0.66 0.20 0.00 0.01 0.00 0.00 0.00 0.00 0.00 0.00 0.00 0.00 0.00 0.00 0.00 0.00 0.00 0.04 0.08 0.02 0.01 0.00 0.00 0.00 0.00 0.00 0.00 0.03 0.05 0.00 0.01 0.01 0.01 0.00 0.00 0.00 0.00 0.00 0.00
0.87 0.83 0.19 0.10 0.54 0.75 0.56 0.11 0.00 0.00 0.00 0.00 0.00 0.00 0.00 0.00 0.00 0.00 0.00 0.00 0.00 0.00 0.00 0.00 0.03 0.04 0.00 0.00 0.00 0.00 0.00 0.00 0.00 0.00 0.01 0.02 0.00 0.00 0.00 0.00 0.00 0.00 0.00 0.00 0.00
1.40 0.98 0.24 0.18 0.86 0.56 0.18 0.03 0.00 0.00 0.00 0.00 0.00 0.00 0.00 0.00 0.00 0.00 0.00 0.00 0.00 0.00 0.00 0.00 0.00 0.00 0.00 0.00 0.00 0.00 0.01 0.04 0.01 0.00 0.00 0.02 0.00 0.00 0.00 0.00 0.00 0.00 0.00 0.00 0.00
1.73 1.00 0.84 0.36 0.53 0.24 0.12 0.04 0.01 0.00 0.00 0.00 0.00 0.00 0.00 0.00 0.00 0.00 0.00 0.00 0.00 0.01 0.01 0.00 0.00 0.00 0.00 0.00 0.01 0.00 0.00 0.00 0.00 0.00 0.00 0.03 0.00 0.00 0.00 0.00 0.00 0.00 0.00 0.00 0.00
2.04 1.43 1.83 1.13 0.19 0.10 0.10 0.07 0.02 0.00 0.00 0.00 0.00 0.00 0.00 0.01 0.00 0.00 0.00 0.00 0.00 0.00 0.01 0.01 0.01 0.00 0.00 0.00 0.00 0.00 0.00 0.00 0.00 0.00 0.00 0.00 0.00 0.00 0.00 0.00 0.00 0.00 0.00 0.00 0.00
2.95 1.05 0.65 0.63 0.25 0.08 0.11 0.06 0.02 0.01 0.00 0.00 0.00 0.00 0.00 0.00 0.00 0.01 0.01 0.00 0.01 0.01 0.01 0.03 0.01 0.00 0.00 0.00 0.00 0.00 0.00 0.00 0.00 0.00 0.00 0.00 0.00 0.00 0.00 0.00 0.00 0.00 0.00 0.00 0.00
3.14 0.55 0.24 0.12 0.07 0.09 0.12 0.06 0.02 0.01 0.01 0.00 0.00 0.00 0.00 0.00 0.01 0.07 0.05 0.04 0.04 0.01 0.01 0.04 0.03 0.00 0.00 0.00 0.00 0.00 0.00 0.00 0.00 0.00 0.00 0.00 0.00 0.00 0.00 0.00 0.00 0.00 0.00 0.00 0.00
2.75 0.43 0.34 0.25 0.10 0.21 0.13 0.02 0.01 0.03 0.02 0.00 0.00 0.00 0.00 0.00 0.09 0.09 0.14 0.12 0.12 0.08 0.04 0.04 0.07 0.04 0.02 0.01 0.01 0.00 0.00 0.00 0.00 0.00 0.00 0.00 0.00 0.00 0.00 0.00 0.00 0.00 0.00 0.00 0.00

GFSSW_prec_precacc_063.txt.gz
Total_Precipitation_Accumulation
0.03 0.02 0.02 0.02 0.02 0.02 0.02 0.01 0.02 0.02 0.02 0.02 0.02 0.02 0.02 0.02 0.00 0.00 0.00 0.00 0.00 0.00 0.00 0.00 0.00 0.00 0.00 0.00 0.00 0.00 0.00 0.00 0.00 0.01 0.15 0.23 0.08 0.24 0.13 0.11 0.27 0.31 0.50 0.60 0.85
0.04 0.04 0.03 0.03 0.02 0.02 0.02 0.02 0.02 0.02 0.03 0.03 0.01 0.02 0.02 0.02 0.00 0.00 0.00 0.00 0.00 0.00 0.00 0.00 0.00 0.00 0.00 0.00 0.00 0.00 0.00 0.00 0.00 0.06 0.24 0.13 0.03 0.19 0.09 0.19 0.54 0.38 0.72 0.66 0.43
0.03 0.03 0.03 0.03 0.03 0.02 0.02 0.03 0.02 0.02 0.02 0.01 0.01 0.02 0.02 0.01 0.00 0.00 0.00 0.00 0.00 0.00 0.00 0.00 0.00 0.00 0.00 0.00 0.00 0.00 0.00 0.00 0.02 0.11 0.04 0.02 0.07 0.10 0.32 0.45 0.52 1.13 0.48 0.41 0.49
0.03 0.02 0.02 0.03 0.03 0.03 0.02 0.02 0.02 0.02 0.02 0.01 0.01 0.02 0.02 0.00 0.00 0.00 0.00 0.00 0.00 0.00 0.00 0.00 0.00 0.00 0.00 0.00 0.00 0.00 0.00 0.00 0.01 0.01 0.01 0.00 0.01 0.11 0.35 0.80 0.30 0.32 0.38 0.47 0.75
0.03 0.02 0.02 0.03 0.03 0.03 0.03 0.02 0.02 0.02 0.01 0.01 0.01 0.02 0.01 0.00 0.00 0.00 0.00 0.00 0.00 0.00 0.00 0.00 0.00 0.00 0.00 0.00 0.00 0.00 0.00 0.00 0.01 0.04 0.03 0.00 0.04 0.12 0.30 0.11 0.11 0.16 0.38 0.55 0.56
0.03 0.02 0.02 0.03 0.03 0.03 0.02 0.02 0.02 0.01 0.01 0.02 0.02 0.01 0.00 0.00 0.00 0.00 0.00 0.00 0.00 0.00 0.00 0.00 0.00 0.00 0.00 0.00 0.00 0.00 0.00 0.00 0.00 0.01 0.01 0.02 0.05 0.09 0.39 0.12 0.12 0.12 0.32 0.56 0.58
0.03 0.03 0.03 0.03 0.03 0.03 0.02 0.02 0.02 0.01 0.02 0.02 0.02 0.01 0.00 0.00 0.00 0.00 0.00 0.00 0.00 0.00 0.00 0.00 0.00 0.00 0.00 0.00 0.00 0.00 0.00 0.02 0.03 0.01 0.00 0.05 0.19 0.35 0.13 0.08 0.07 0.03 0.04 0.36 0.86
0.03 0.03 0.03 0.02 0.03 0.02 0.02 0.02 0.02 0.02 0.02 0.01 0.01 0.00 0.00 0.00 0.00 0.00 0.00 0.00 0.00 0.00 0.00 0.00 0.00 0.00 0.00 0.00 0.00 0.00 0.00 0.01 0.04 0.03 0.02 0.15 0.48 0.05 0.03 0.05 0.04 0.01 0.01 0.06 0.10
0.03 0.03 0.02 0.02 0.02 0.03 0.02 0.02 0.02 0.02 0.02 0.01 0.00 0.00 0.00 0.00 0.00 0.00 0.00 0.00 0.00 0.00 0.00 0.00 0.00 0.00 0.00 0.00 0.00 0.00 0.00 0.00 0.01 0.01 0.01 0.05 0.33 0.12 0.05 0.09 0.08 0.02 0.01 0.01 0.01
0.03 0.02 0.01 0.02 0.03 0.03 0.02 0.02 0.02 0.01 0.01 0.00 0.00 0.00 0.00 0.00 0.00 0.00 0.00 0.00 0.00 0.00 0.00 0.00 0.00 0.00 0.00 0.00 0.00 0.00 0.00 0.00 0.02 0.02 0.01 0.01 0.03 0.25 0.12 0.05 0.27 0.09 0.04 0.04 0.00
0.03 0.02 0.01 0.02 0.04 0.03 0.01 0.01 0.01 0.00 0.00 0.00 0.00 0.00 0.00 0.00 0.00 0.00 0.00 0.00 0.00 0.00 0.01 0.00 0.00 0.00 0.00 0.00 0.00 0.00 0.00 0.00 0.00 0.01 0.00 0.00 0.01 0.01 0.00 0.00 0.03 0.05 0.07 0.02 0.00
0.03 0.01 0.01 0.04 0.05 0.03 0.00 0.00 0.00 0.00 0.00 0.00 0.00 0.00 0.00 0.00 0.00 0.00 0.00 0.00 0.00 0.01 0.01 0.00 0.00 0.00 0.00 0.00 0.00 0.00 0.00 0.00 0.00 0.00 0.00 0.00 0.00 0.00 0.00 0.00 0.01 0.01 0.11 0.03 0.00
0.03 0.02 0.01 0.03 0.05 0.02 0.00 0.00 0.00 0.00 0.00 0.00 0.00 0.00 0.00 0.00 0.00 0.00 0.00 0.00 0.00 0.02 0.02 0.01 0.00 0.00 0.00 0.00 0.00 0.00 0.00 0.00 0.00 0.00 0.00 0.00 0.00 0.00 0.01 0.01 0.02 0.00 0.00 0.00 0.00
0.03 0.01 0.02 0.05 0.01 0.00 0.00 0.00 0.00 0.00 0.01 0.00 0.00 0.00 0.00 0.00 0.00 0.00 0.00 0.00 0.00 0.01 0.01 0.00 0.00 0.00 0.00 0.00 0.00 0.00 0.00 0.00 0.00 0.00 0.00 0.00 0.00 0.00 0.00 0.01 0.00 0.00 0.00 0.00 0.00
0.05 0.03 0.05 0.06 0.02 0.01 0.00 0.00 0.00 0.01 0.00 0.00 0.00 0.00 0.00 0.00 0.00 0.00 0.00 0.00 0.00 0.00 0.00 0.01 0.00 0.00 0.00 0.00 0.00 0.00 0.00 0.00 0.00 0.00 0.04 0.02 0.00 0.03 0.05 0.02 0.00 0.00 0.00 0.00 0.00
0.07 0.07 0.13 0.08 0.04 0.00 0.00 0.00 0.03 0.06 0.01 0.00 0.00 0.00 0.00 0.00 0.00 0.00 0.00 0.00 0.00 0.01 0.00 0.01 0.00 0.00 0.00 0.00 0.00 0.00 0.00 0.00 0.00 0.00 0.01 0.01 0.01 0.01 0.01 0.01 0.01 0.00 0.00 0.00 0.00
0.12 0.14 0.16 0.06 0.03 0.00 0.01 0.12 0.11 0.03 0.00 0.00 0.00 0.00 0.00 0.00 0.00 0.00 0.00 0.00 0.00 0.00 0.00 0.00 0.00 0.00 0.00 0.00 0.00 0.00 0.00 0.00 0.05 0.00 0.00 0.00 0.01 0.01 0.01 0.04 0.08 0.10 0.00 0.00 0.00
0.13 0.21 0.13 0.04 0.02 0.05 0.16 0.29 0.08 0.00 0.00 0.00 0.00 0.00 0.00 0.00 0.00 0.00 0.00 0.00 0.00 0.00 0.00 0.02 0.02 0.00 0.00 0.00 0.00 0.00 0.00 0.01 0.15 0.09 0.03 0.06 0.01 0.01 0.00 0.00 0.00 0.00 0.00 0.00 0.00
0.35 0.28 0.20 0.07 0.02 0.09 0.35 0.29 0.04 0.00 0.00 0.00 0.00 0.00 0.00 0.00 0.00 0.00 0.00 0.00 0.00 0.00 0.02 0.03 0.01 0.02 0.00 0.00 0.00 0.00 0.00 0.00 0.03 0.09 0.05 0.06 0.01 0.00 0.00 0.00 0.00 0.00 0.00 0.00 0.00
0.48 0.45 0.17 0.06 0.14 0.36 0.70 0.20 0.00 0.01 0.00 0.00 0.00 0.00 0.00 0.00 0.00 0.00 0.00 0.00 0.00 0.00 0.00 0.04 0.08 0.02 0.01 0.00 0.00 0.00 0.00 0.00 0.00 0.03 0.05 0.00 0.01 0.01 0.01 0.00 0.00 0.00 0.00 0.00 0.00
0.89 0.85 0.19 0.10 0.58 0.81 0.59 0.11 0.00 0.00 0.00 0.00 0.00 0.00 0.00 0.00 0.00 0.00 0.00 0.00 0.00 0.00 0.00 0.00 0.03 0.04 0.00 0.00 0.00 0.00 0.00 0.00 0.00 0.00 0.01 0.02 0.00 0.00 0.00 0.00 0.00 0.00 0.00 0.00 0.00
1.43 1.00 0.26 0.21 0.90 0.58 0.19 0.03 0.00 0.00 0.00 0.00 0.00 0.00 0.00 0.00 0.00 0.00 0.00 0.00 0.00 0.00 0.01 0.00 0.00 0.00 0.00 0.00 0.00 0.00 0.01 0.04 0.01 0.00 0.00 0.02 0.00 0.00 0.00 0.00 0.00 0.00 0.00 0.00 0.00
1.77 1.01 0.88 0.44 0.56 0.25 0.12 0.04 0.01 0.00 0.00 0.00 0.00 0.00 0.00 0.00 0.00 0.00 0.00 0.00 0.00 0.01 0.02 0.01 0.00 0.00 0.01 0.01 0.01 0.00 0.00 0.00 0.00 0.00 0.00 0.04 0.00 0.00 0.00 0.00 0.00 0.00 0.00 0.00 0.00
2.10 1.48 1.86 1.18 0.22 0.12 0.11 0.08 0.02 0.00 0.00 0.00 0.00 0.00 0.00 0.01 0.00 0.00 0.00 0.00 0.00 0.00 0.01 0.01 0.02 0.00 0.00 0.00 0.00 0.00 0.00 0.00 0.00 0.00 0.00 0.00 0.00 0.00 0.00 0.00 0.00 0.00 0.00 0.00 0.00
3.00 1.08 0.67 0.66 0.26 0.10 0.13 0.09 0.02 0.01 0.00 0.00 0.01 0.00 0.00 0.00 0.01 0.01 0.01 0.00 0.01 0.01 0.01 0.03 0.04 0.02 0.01 0.00 0.00 0.00 0.00 0.00 0.00 0.00 0.00 0.00 0.00 0.00 0.00 0.00 0.00 0.00 0.00 0.00 0.00
3.17 0.58 0.28 0.14 0.10 0.11 0.13 0.07 0.03 0.02 0.02 0.01 0.01 0.00 0.01 0.01 0.02 0.07 0.06 0.04 0.04 0.01 0.01 0.04 0.06 0.04 0.00 0.00 0.00 0.00 0.00 0.00 0.00 0.00 0.00 0.00 0.00 0.00 0.00 0.00 0.00 0.00 0.00 0.00 0.00
2.79 0.46 0.39 0.28 0.12 0.25 0.16 0.03 0.02 0.04 0.04 0.01 0.01 0.02 0.02 0.01 0.10 0.09 0.14 0.12 0.12 0.08 0.04 0.04 0.07 0.06 0.05 0.01 0.01 0.00 0.00 0.00 0.00 0.00 0.00 0.00 0.00 0.00 0.00 0.00 0.00 0.00 0.00 0.00 0.00

GFSSW_prec_precacc_066.txt.gz
Total_Precipitation_Accumulation
0.03 0.02 0.02 0.02 0.02 0.02 0.02 0.01 0.02 0.02 0.02 0.02 0.02 0.02 0.02 0.02 0.00 0.00 0.00 0.00 0.00 0.00 0.00 0.00 0.00 0.00 0.00 0.00 0.00 0.00 0.00 0.00 0.00 0.01 0.15 0.23 0.08 0.24 0.13 0.11 0.27 0.31 0.50 0.60 0.85
0.04 0.04 0.03 0.03 0.02 0.02 0.02 0.02 0.02 0.02 0.03 0.03 0.01 0.02 0.02 0.02 0.00 0.00 0.00 0.00 0.00 0.00 0.00 0.00 0.00 0.00 0.00 0.00 0.00 0.00 0.00 0.00 0.00 0.06 0.24 0.13 0.03 0.19 0.09 0.19 0.54 0.38 0.72 0.66 0.43
0.03 0.03 0.03 0.03 0.03 0.02 0.02 0.03 0.02 0.02 0.02 0.01 0.01 0.02 0.02 0.01 0.00 0.00 0.00 0.00 0.00 0.00 0.00 0.00 0.00 0.00 0.00 0.00 0.00 0.00 0.00 0.00 0.02 0.11 0.04 0.02 0.07 0.10 0.32 0.45 0.52 1.13 0.48 0.41 0.49
0.03 0.02 0.02 0.03 0.03 0.03 0.02 0.02 0.02 0.02 0.02 0.01 0.01 0.02 0.02 0.00 0.00 0.00 0.00 0.00 0.00 0.00 0.00 0.00 0.00 0.00 0.00 0.00 0.00 0.00 0.00 0.00 0.01 0.01 0.01 0.00 0.01 0.11 0.35 0.80 0.30 0.32 0.38 0.47 0.75
0.03 0.03 0.03 0.03 0.03 0.03 0.03 0.02 0.02 0.02 0.01 0.01 0.01 0.02 0.01 0.00 0.00 0.00 0.00 0.00 0.00 0.00 0.00 0.00 0.00 0.00 0.00 0.00 0.00 0.00 0.00 0.00 0.01 0.04 0.03 0.00 0.04 0.12 0.30 0.11 0.11 0.16 0.38 0.55 0.56
0.04 0.02 0.02 0.03 0.03 0.03 0.02 0.02 0.02 0.01 0.01 0.02 0.02 0.01 0.00 0.00 0.00 0.00 0.00 0.00 0.00 0.00 0.00 0.00 0.00 0.00 0.00 0.00 0.00 0.00 0.00 0.00 0.00 0.01 0.01 0.02 0.05 0.09 0.39 0.12 0.12 0.12 0.32 0.56 0.58
0.03 0.03 0.03 0.03 0.03 0.03 0.02 0.02 0.02 0.01 0.02 0.02 0.02 0.01 0.00 0.00 0.00 0.00 0.00 0.00 0.00 0.00 0.00 0.00 0.00 0.00 0.00 0.00 0.00 0.00 0.00 0.02 0.03 0.01 0.00 0.05 0.19 0.35 0.13 0.08 0.07 0.03 0.04 0.36 0.86
0.04 0.03 0.03 0.02 0.03 0.02 0.02 0.02 0.02 0.02 0.02 0.01 0.01 0.00 0.00 0.00 0.00 0.00 0.00 0.00 0.00 0.00 0.00 0.00 0.00 0.00 0.00 0.00 0.00 0.00 0.00 0.01 0.04 0.03 0.02 0.15 0.48 0.05 0.03 0.05 0.04 0.01 0.01 0.06 0.10
0.04 0.03 0.02 0.02 0.02 0.03 0.02 0.02 0.02 0.02 0.02 0.01 0.00 0.00 0.00 0.00 0.00 0.00 0.00 0.00 0.00 0.00 0.00 0.00 0.00 0.00 0.00 0.00 0.00 0.00 0.00 0.00 0.01 0.01 0.01 0.05 0.33 0.12 0.05 0.09 0.08 0.02 0.01 0.01 0.01
0.03 0.02 0.01 0.02 0.03 0.03 0.02 0.02 0.02 0.01 0.01 0.00 0.00 0.00 0.00 0.00 0.00 0.00 0.00 0.00 0.00 0.00 0.00 0.00 0.00 0.00 0.00 0.00 0.00 0.00 0.00 0.00 0.02 0.02 0.01 0.01 0.03 0.25 0.12 0.05 0.27 0.09 0.04 0.04 0.00
0.03 0.02 0.01 0.02 0.04 0.03 0.01 0.01 0.01 0.00 0.00 0.00 0.00 0.00 0.00 0.00 0.00 0.00 0.00 0.00 0.00 0.00 0.01 0.00 0.00 0.00 0.00 0.00 0.00 0.00 0.00 0.00 0.00 0.01 0.00 0.00 0.01 0.01 0.00 0.00 0.03 0.05 0.07 0.02 0.00
0.03 0.01 0.01 0.04 0.05 0.03 0.00 0.00 0.00 0.00 0.00 0.00 0.00 0.00 0.00 0.00 0.00 0.00 0.00 0.00 0.00 0.01 0.02 0.02 0.01 0.00 0.00 0.00 0.00 0.00 0.00 0.00 0.00 0.00 0.00 0.00 0.00 0.00 0.00 0.00 0.01 0.01 0.11 0.03 0.00
0.03 0.02 0.01 0.03 0.05 0.02 0.00 0.00 0.00 0.00 0.00 0.00 0.00 0.00 0.00 0.00 0.00 0.00 0.00 0.00 0.00 0.03 0.03 0.02 0.01 0.00 0.00 0.00 0.00 0.00 0.00 0.00 0.00 0.00 0.00 0.00 0.00 0.00 0.01 0.01 0.02 0.00 0.00 0.00 0.00
0.03 0.02 0.02 0.05 0.02 0.00 0.00 0.00 0.00 0.00 0.01 0.00 0.00 0.00 0.00 0.00 0.00 0.00 0.00 0.00 0.00 0.02 0.08 0.06 0.00 0.02 0.00 0.00 0.00 0.00 0.00 0.00 0.00 0.00 0.00 0.00 0.00 0.00 0.00 0.01 0.00 0.00 0.00 0.00 0.00
0.05 0.03 0.05 0.06 0.02 0.01 0.00 0.00 0.00 0.01 0.01 0.00 0.00 0.00 0.00 0.00 0.00 0.00 0.00 0.00 0.00 0.01 0.08 0.08 0.02 0.03 0.01 0.00 0.00 0.00 0.00 0.00 0.00 0.00 0.04 0.02 0.00 0.03 0.05 0.02 0.00 0.00 0.00 0.00 0.00
0.07 0.08 0.13 0.08 0.04 0.01 0.00 0.00 0.04 0.06 0.01 0.00 0.00 0.00 0.00 0.00 0.00 0.00 0.00 0.00 0.00 0.01 0.01 0.01 0.01 0.02 0.02 0.00 0.00 0.00 0.00 0.00 0.00 0.00 0.01 0.01 0.01 0.01 0.01 0.01 0.01 0.00 0.00 0.00 0.00
0.12 0.14 0.16 0.06 0.03 0.00 0.01 0.12 0.11 0.03 0.00 0.00 0.00 0.00 0.00 0.00 0.00 0.00 0.00 0.00 0.00 0.00 0.00 0.00 0.01 0.00 0.00 0.00 0.00 0.00 0.00 0.01 0.05 0.00 0.00 0.00 0.01 0.01 0.01 0.04 0.08 0.10 0.00 0.00 0.00
0.13 0.21 0.13 0.04 0.02 0.05 0.16 0.30 0.08 0.00 0.00 0.00 0.00 0.00 0.00 0.00 0.00 0.00 0.00 0.00 0.00 0.00 0.01 0.02 0.03 0.00 0.00 0.00 0.00 0.00 0.00 0.02 0.16 0.09 0.03 0.06 0.01 0.01 0.00 0.00 0.00 0.00 0.00 0.00 0.00
0.35 0.28 0.20 0.07 0.02 0.09 0.37 0.30 0.04 0.00 0.00 0.00 0.00 0.00 0.00 0.00 0.00 0.00 0.00 0.00 0.00 0.00 0.02 0.04 0.02 0.02 0.00 0.00 0.00 0.00 0.00 0.00 0.04 0.09 0.05 0.06 0.01 0.00 0.00 0.00 0.00 0.00 0.00 0.00 0.00
0.48 0.46 0.17 0.06 0.14 0.38 0.73 0.21 0.00 0.01 0.00 0.00 0.00 0.00 0.00 0.00 0.00 0.00 0.00 0.00 0.00 0.00 0.00 0.04 0.08 0.02 0.01 0.00 0.00 0.00 0.00 0.01 0.00 0.04 0.05 0.00 0.01 0.01 0.01 0.00 0.00 0.00 0.00 0.00 0.00
0.90 0.85 0.19 0.10 0.60 0.85 0.62 0.11 0.00 0.00 0.00 0.00 0.00 0.00 0.00 0.00 0.00 0.00 0.01 0.02 0.00 0.00 0.00 0.00 0.03 0.04 0.00 0.00 0.00 0.00 0.00 0.00 0.00 0.00 0.01 0.02 0.00 0.01 0.00 0.00 0.00 0.00 0.00 0.00 0.00
1.45 1.02 0.28 0.23 0.94 0.60 0.20 0.04 0.00 0.00 0.00 0.00 0.00 0.00 0.00 0.00 0.00 0.00 0.00 0.00 0.00 0.00 0.01 0.00 0.00 0.00 0.00 0.00 0.00 0.00 0.01 0.04 0.02 0.01 0.00 0.02 0.00 0.00 0.00 0.00 0.00 0.00 0.00 0.00 0.00
1.83 1.02 0.92 0.54 0.61 0.27 0.13 0.04 0.01 0.00 0.00 0.00 0.00 0.00 0.00 0.00 0.00 0.00 0.00 0.00 0.00 0.01 0.02 0.01 0.00 0.00 0.02 0.05 0.01 0.00 0.00 0.01 0.01 0.05 0.04 0.06 0.00 0.00 0.00 0.00 0.00 0.00 0.00 0.00 0.00
2.22 1.55 1.89 1.25 0.25 0.15 0.15 0.09 0.02 0.00 0.00 0.00 0.00 0.00 0.00 0.01 0.00 0.00 0.00 0.00 0.00 0.00 0.01 0.01 0.03 0.00 0.01 0.03 0.02 0.00 0.00 0.01 0.01 0.04 0.02 0.02 0.00 0.01 0.00 0.00 0.00 0.00 0.00 0.00 0.00
3.11 1.11 0.73 0.73 0.27 0.11 0.15 0.13 0.04 0.01 0.00 0.00 0.01 0.00 0.00 0.00 0.01 0.01 0.01 0.00 0.01 0.01 0.01 0.04 0.05 0.04 0.02 0.00 0.00 0.00 0.00 0.00 0.03 0.01 0.01 0.00 0.00 0.01 0.00 0.00 0.00 0.00 0.00 0.00 0.00
3.27 0.59 0.30 0.18 0.14 0.16 0.15 0.08 0.04 0.04 0.03 0.02 0.01 0.00 0.01 0.01 0.02 0.07 0.06 0.04 0.04 0.01 0.01 0.04 0.07 0.07 0.02 0.00 0.00 0.00 0.00 0.00 0.00 0.00 0.00 0.01 0.00 0.00 0.00 0.00 0.00 0.00 0.00 0.00 0.00
2.87 0.50 0.46 0.31 0.14 0.29 0.22 0.05 0.02 0.04 0.05 0.01 0.02 0.03 0.02 0.02 0.10 0.09 0.14 0.12 0.13 0.08 0.05 0.05 0.07 0.10 0.13 0.02 0.01 0.00 0.00 0.00 0.00 0.01 0.00 0.02 0.01 0.01 0.00 0.00 0.00 0.00 0.00 0.00 0.00

GFSSW_prec_precacc_069.txt.gz
Total_Precipitation_Accumulation
0.03 0.02 0.02 0.02 0.02 0.02 0.02 0.01 0.02 0.02 0.02 0.02 0.02 0.02 0.02 0.02 0.00 0.00 0.00 0.00 0.00 0.00 0.00 0.00 0.00 0.00 0.00 0.00 0.00 0.00 0.00 0.00 0.00 0.01 0.15 0.23 0.08 0.24 0.13 0.11 0.27 0.31 0.50 0.60 0.85
0.04 0.04 0.03 0.03 0.02 0.02 0.02 0.02 0.02 0.02 0.03 0.03 0.01 0.02 0.02 0.02 0.00 0.00 0.00 0.00 0.00 0.00 0.00 0.00 0.00 0.00 0.00 0.00 0.00 0.00 0.00 0.00 0.00 0.06 0.24 0.13 0.03 0.19 0.09 0.19 0.54 0.38 0.72 0.66 0.43
0.03 0.03 0.03 0.03 0.03 0.03 0.02 0.03 0.02 0.02 0.02 0.01 0.01 0.02 0.02 0.01 0.00 0.00 0.00 0.00 0.00 0.00 0.00 0.00 0.00 0.00 0.00 0.00 0.00 0.00 0.00 0.00 0.02 0.11 0.04 0.02 0.07 0.10 0.32 0.45 0.52 1.13 0.48 0.41 0.49
0.03 0.02 0.03 0.03 0.03 0.03 0.02 0.02 0.02 0.02 0.02 0.01 0.01 0.02 0.02 0.00 0.00 0.00 0.00 0.00 0.00 0.00 0.00 0.00 0.00 0.00 0.00 0.00 0.00 0.00 0.00 0.00 0.01 0.01 0.01 0.00 0.01 0.11 0.35 0.80 0.30 0.32 0.38 0.47 0.75
0.03 0.03 0.03 0.03 0.03 0.03 0.03 0.02 0.02 0.02 0.01 0.01 0.01 0.02 0.01 0.00 0.00 0.00 0.00 0.00 0.00 0.00 0.00 0.00 0.00 0.00 0.00 0.00 0.00 0.00 0.00 0.00 0.01 0.04 0.03 0.00 0.04 0.12 0.30 0.11 0.11 0.16 0.38 0.55 0.56
0.04 0.02 0.02 0.03 0.03 0.03 0.02 0.02 0.02 0.01 0.01 0.02 0.02 0.01 0.00 0.00 0.00 0.00 0.00 0.00 0.00 0.00 0.00 0.00 0.00 0.00 0.00 0.00 0.00 0.00 0.00 0.00 0.00 0.01 0.01 0.02 0.05 0.09 0.39 0.12 0.12 0.12 0.32 0.56 0.58
0.03 0.03 0.03 0.03 0.03 0.03 0.02 0.02 0.02 0.01 0.02 0.02 0.02 0.01 0.00 0.00 0.00 0.00 0.00 0.00 0.00 0.00 0.00 0.00 0.00 0.00 0.00 0.00 0.00 0.00 0.00 0.02 0.03 0.01 0.00 0.05 0.19 0.35 0.13 0.08 0.07 0.03 0.04 0.36 0.86
0.04 0.03 0.03 0.02 0.03 0.02 0.02 0.02 0.02 0.02 0.02 0.01 0.01 0.00 0.00 0.00 0.00 0.00 0.00 0.00 0.00 0.00 0.00 0.00 0.00 0.00 0.00 0.00 0.00 0.00 0.00 0.01 0.04 0.03 0.02 0.15 0.48 0.05 0.03 0.05 0.04 0.01 0.01 0.06 0.10
0.04 0.03 0.02 0.02 0.02 0.03 0.02 0.02 0.02 0.02 0.02 0.01 0.00 0.00 0.00 0.00 0.00 0.00 0.00 0.00 0.00 0.00 0.00 0.00 0.00 0.00 0.00 0.00 0.00 0.00 0.00 0.00 0.01 0.01 0.01 0.05 0.33 0.12 0.05 0.09 0.08 0.02 0.01 0.01 0.01
0.03 0.02 0.01 0.02 0.03 0.03 0.02 0.02 0.02 0.01 0.01 0.00 0.00 0.00 0.00 0.00 0.00 0.00 0.00 0.00 0.00 0.00 0.00 0.00 0.00 0.00 0.00 0.00 0.00 0.00 0.00 0.00 0.02 0.02 0.01 0.01 0.03 0.25 0.12 0.05 0.27 0.09 0.04 0.04 0.00
0.03 0.02 0.01 0.02 0.04 0.03 0.01 0.01 0.01 0.00 0.00 0.00 0.00 0.00 0.00 0.00 0.00 0.00 0.00 0.00 0.00 0.00 0.01 0.00 0.00 0.00 0.00 0.00 0.00 0.00 0.00 0.00 0.00 0.01 0.00 0.00 0.01 0.01 0.00 0.00 0.03 0.05 0.07 0.02 0.00
0.03 0.01 0.01 0.04 0.05 0.03 0.00 0.00 0.00 0.00 0.00 0.00 0.00 0.00 0.00 0.00 0.00 0.00 0.00 0.00 0.00 0.01 0.02 0.02 0.01 0.00 0.00 0.00 0.00 0.00 0.00 0.00 0.00 0.00 0.00 0.00 0.00 0.00 0.00 0.00 0.01 0.01 0.11 0.03 0.00
0.03 0.02 0.01 0.03 0.05 0.02 0.00 0.00 0.00 0.00 0.00 0.00 0.00 0.00 0.00 0.00 0.00 0.00 0.00 0.00 0.00 0.03 0.03 0.02 0.01 0.00 0.01 0.00 0.00 0.00 0.00 0.00 0.00 0.00 0.00 0.00 0.00 0.00 0.01 0.01 0.02 0.00 0.00 0.00 0.00
0.04 0.02 0.02 0.05 0.02 0.00 0.00 0.00 0.00 0.00 0.01 0.00 0.00 0.00 0.00 0.00 0.00 0.00 0.00 0.00 0.00 0.02 0.08 0.07 0.00 0.02 0.00 0.00 0.00 0.00 0.00 0.00 0.00 0.00 0.00 0.00 0.00 0.00 0.00 0.01 0.00 0.00 0.00 0.00 0.00
0.05 0.03 0.05 0.06 0.02 0.01 0.00 0.00 0.00 0.01 0.01 0.00 0.00 0.00 0.00 0.00 0.00 0.00 0.00 0.00 0.00 0.01 0.09 0.09 0.03 0.04 0.01 0.00 0.00 0.00 0.00 0.00 0.00 0.00 0.04 0.02 0.00 0.03 0.05 0.02 0.00 0.00 0.00 0.00 0.00
0.08 0.08 0.13 0.08 0.04 0.01 0.00 0.00 0.04 0.07 0.01 0.00 0.00 0.00 0.00 0.00 0.00 0.00 0.00 0.00 0.00 0.01 0.01 0.01 0.02 0.06 0.03 0.00 0.00 0.00 0.01 0.00 0.00 0.00 0.01 0.01 0.01 0.01 0.01 0.01 0.01 0.00 0.00 0.00 0.00
0.12 0.14 0.16 0.06 0.03 0.00 0.01 0.12 0.12 0.04 0.00 0.00 0.00 0.00 0.00 0.00 0.00 0.00 0.00 0.00 0.00 0.00 0.00 0.00 0.01 0.01 0.00 0.00 0.00 0.00 0.03 0.05 0.07 0.00 0.00 0.00 0.01 0.01 0.01 0.04 0.08 0.10 0.00 0.00 0.00
0.13 0.21 0.13 0.04 0.02 0.05 0.17 0.31 0.09 0.00 0.00 0.00 0.00 0.00 0.00 0.00 0.00 0.00 0.00 0.00 0.00 0.00 0.01 0.02 0.03 0.00 0.00 0.00 0.00 0.00 0.01 0.05 0.18 0.10 0.03 0.06 0.01 0.01 0.00 0.00 0.00 0.00 0.00 0.00 0.00
0.35 0.28 0.20 0.07 0.02 0.09 0.39 0.32 0.04 0.00 0.00 0.00 0.00 0.00 0.00 0.00 0.00 0.00 0.00 0.00 0.00 0.00 0.02 0.04 0.02 0.02 0.00 0.00 0.02 0.03 0.02 0.00 0.09 0.11 0.06 0.06 0.01 0.00 0.00 0.00 0.00 0.00 0.00 0.00 0.00
0.48 0.46 0.17 0.06 0.14 0.39 0.77 0.23 0.00 0.01 0.00 0.00 0.00 0.00 0.00 0.00 0.00 0.00 0.00 0.00 0.00 0.00 0.00 0.04 0.08 0.02 0.01 0.00 0.00 0.01 0.02 0.14 0.19 0.08 0.05 0.00 0.01 0.01 0.01 0.00 0.00 0.00 0.00 0.00 0.00
0.90 0.86 0.19 0.10 0.63 0.89 0.65 0.12 0.00 0.00 0.00 0.00 0.00 0.00 0.00 0.00 0.00 0.00 0.02 0.04 0.00 0.00 0.00 0.00 0.03 0.04 0.00 0.00 0.00 0.00 0.03 0.11 0.06 0.01 0.01 0.03 0.01 0.01 0.00 0.00 0.00 0.00 0.00 0.00 0.00
1.47 1.04 0.28 0.27 0.98 0.62 0.21 0.04 0.00 0.00 0.00 0.00 0.00 0.00 0.00 0.00 0.00 0.00 0.00 0.02 0.00 0.00 0.01 0.01 0.00 0.00 0.00 0.00 0.01 0.00 0.01 0.06 0.12 0.06 0.00 0.02 0.01 0.00 0.00 0.00 0.00 0.00 0.00 0.00 0.00
1.87 1.03 0.92 0.65 0.86 0.29 0.14 0.05 0.01 0.00 0.00 0.00 0.00 0.00 0.00 0.00 0.00 0.00 0.00 0.00 0.00 0.01 0.02 0.01 0.00 0.00 0.02 0.05 0.01 0.00 0.00 0.02 0.04 0.16 0.11 0.07 0.00 0.00 0.00 0.00 0.00 0.00 0.00 0.00 0.00
2.28 1.60 1.89 1.27 0.33 0.28 0.21 0.11 0.03 0.00 0.00 0.00 0.00 0.00 0.00 0.01 0.00 0.00 0.00 0.00 0.00 0.00 0.01 0.01 0.03 0.00 0.01 0.03 0.04 0.02 0.01 0.02 0.06 0.20 0.09 0.05 0.01 0.05 0.01 0.01 0.00 0.00 0.00 0.00 0.00
3.15 1.13 0.75 0.78 0.30 0.12 0.18 0.21 0.11 0.05 0.01 0.00 0.01 0.00 0.00 0.00 0.01 0.01 0.01 0.00 0.01 0.01 0.01 0.04 0.06 0.04 0.02 0.00 0.01 0.01 0.01 0.00 0.06 0.08 0.10 0.02 0.01 0.06 0.04 0.00 0.00 0.00 0.00 0.00 0.00
3.30 0.61 0.31 0.22 0.23 0.25 0.17 0.08 0.05 0.07 0.05 0.03 0.01 0.00 0.01 0.01 0.02 0.07 0.06 0.04 0.04 0.01 0.01 0.04 0.07 0.07 0.02 0.00 0.00 0.00 0.00 0.00 0.01 0.03 0.04 0.02 0.02 0.06 0.02 0.01 0.02 0.00 0.00 0.00 0.00
2.88 0.51 0.51 0.35 0.16 0.39 0.39 0.11 0.03 0.04 0.05 0.02 0.03 0.04 0.02 0.02 0.10 0.09 0.14 0.12 0.13 0.08 0.06 0.05 0.07 0.10 0.13 0.03 0.01 0.00 0.00 0.00 0.01 0.04 0.03 0.04 0.04 0.03 0.03 0.05 0.01 0.00 0.00 0.00 0.00

GFSSW_prec_precacc_072.txt.gz
Total_Precipitation_Accumulation
0.03 0.02 0.02 0.02 0.02 0.02 0.02 0.01 0.02 0.02 0.02 0.02 0.02 0.02 0.02 0.02 0.00 0.00 0.00 0.00 0.00 0.00 0.00 0.00 0.00 0.00 0.00 0.00 0.00 0.00 0.00 0.00 0.00 0.01 0.15 0.23 0.08 0.24 0.13 0.11 0.27 0.31 0.50 0.60 0.85
0.04 0.04 0.03 0.03 0.02 0.02 0.02 0.02 0.02 0.02 0.03 0.03 0.01 0.02 0.02 0.02 0.00 0.00 0.00 0.00 0.00 0.00 0.00 0.00 0.00 0.00 0.00 0.00 0.00 0.00 0.00 0.00 0.00 0.06 0.24 0.13 0.03 0.19 0.09 0.19 0.54 0.38 0.72 0.66 0.43
0.03 0.03 0.03 0.03 0.03 0.03 0.02 0.03 0.02 0.02 0.02 0.01 0.01 0.02 0.02 0.01 0.00 0.00 0.00 0.00 0.00 0.00 0.00 0.00 0.00 0.00 0.00 0.00 0.00 0.00 0.00 0.00 0.02 0.11 0.04 0.02 0.07 0.10 0.32 0.45 0.52 1.13 0.48 0.41 0.49
0.03 0.02 0.03 0.03 0.03 0.03 0.02 0.02 0.02 0.02 0.02 0.01 0.01 0.02 0.02 0.00 0.00 0.00 0.00 0.00 0.00 0.00 0.00 0.00 0.00 0.00 0.00 0.00 0.00 0.00 0.00 0.00 0.01 0.01 0.01 0.00 0.01 0.11 0.35 0.80 0.30 0.32 0.38 0.47 0.75
0.03 0.03 0.03 0.03 0.03 0.03 0.03 0.02 0.02 0.02 0.01 0.01 0.01 0.02 0.01 0.00 0.00 0.00 0.00 0.00 0.00 0.00 0.00 0.00 0.00 0.00 0.00 0.00 0.00 0.00 0.00 0.00 0.01 0.04 0.03 0.00 0.04 0.12 0.30 0.11 0.11 0.16 0.38 0.55 0.56
0.04 0.03 0.02 0.03 0.03 0.03 0.02 0.02 0.02 0.01 0.01 0.02 0.02 0.02 0.00 0.00 0.00 0.00 0.00 0.00 0.00 0.00 0.00 0.00 0.00 0.00 0.00 0.00 0.00 0.00 0.00 0.00 0.00 0.01 0.01 0.02 0.05 0.09 0.39 0.12 0.12 0.12 0.32 0.56 0.58
0.03 0.03 0.03 0.03 0.03 0.03 0.02 0.02 0.02 0.01 0.02 0.02 0.02 0.01 0.00 0.00 0.00 0.00 0.00 0.00 0.00 0.00 0.00 0.00 0.00 0.00 0.00 0.00 0.00 0.00 0.00 0.02 0.03 0.01 0.00 0.05 0.19 0.35 0.13 0.08 0.07 0.03 0.04 0.36 0.86
0.04 0.03 0.03 0.02 0.03 0.02 0.02 0.02 0.02 0.02 0.02 0.01 0.01 0.00 0.00 0.00 0.00 0.00 0.00 0.00 0.00 0.00 0.00 0.00 0.00 0.00 0.00 0.00 0.00 0.00 0.00 0.01 0.04 0.03 0.02 0.15 0.48 0.05 0.03 0.05 0.04 0.01 0.01 0.06 0.10
0.04 0.03 0.02 0.02 0.02 0.03 0.02 0.02 0.02 0.02 0.02 0.01 0.00 0.00 0.00 0.00 0.00 0.00 0.00 0.00 0.00 0.00 0.00 0.00 0.00 0.00 0.00 0.00 0.00 0.00 0.00 0.00 0.01 0.01 0.01 0.05 0.33 0.12 0.05 0.09 0.08 0.02 0.01 0.01 0.01
0.03 0.02 0.01 0.02 0.03 0.03 0.02 0.02 0.02 0.01 0.01 0.00 0.00 0.00 0.00 0.00 0.00 0.00 0.00 0.00 0.00 0.00 0.00 0.00 0.00 0.00 0.00 0.00 0.00 0.00 0.00 0.00 0.02 0.02 0.01 0.01 0.03 0.25 0.12 0.05 0.27 0.09 0.04 0.04 0.00
0.03 0.02 0.01 0.02 0.04 0.03 0.01 0.01 0.01 0.00 0.00 0.00 0.00 0.00 0.00 0.00 0.00 0.00 0.00 0.00 0.00 0.00 0.01 0.00 0.00 0.00 0.00 0.00 0.00 0.00 0.00 0.00 0.00 0.01 0.00 0.00 0.01 0.01 0.00 0.00 0.03 0.05 0.07 0.02 0.00
0.03 0.01 0.01 0.04 0.05 0.03 0.00 0.00 0.00 0.00 0.00 0.00 0.00 0.00 0.00 0.00 0.00 0.00 0.00 0.00 0.00 0.01 0.02 0.02 0.01 0.00 0.00 0.00 0.00 0.00 0.00 0.00 0.00 0.00 0.00 0.00 0.00 0.00 0.00 0.00 0.01 0.01 0.11 0.03 0.00
0.03 0.02 0.01 0.03 0.05 0.02 0.00 0.00 0.00 0.00 0.00 0.00 0.00 0.00 0.00 0.00 0.00 0.00 0.00 0.00 0.00 0.03 0.03 0.02 0.01 0.00 0.01 0.00 0.00 0.00 0.00 0.00 0.00 0.00 0.00 0.00 0.00 0.00 0.01 0.01 0.02 0.00 0.00 0.00 0.00
0.04 0.02 0.02 0.05 0.02 0.00 0.00 0.00 0.00 0.00 0.01 0.00 0.00 0.00 0.00 0.00 0.00 0.00 0.00 0.00 0.00 0.02 0.08 0.07 0.00 0.02 0.00 0.00 0.00 0.00 0.00 0.00 0.00 0.00 0.00 0.00 0.00 0.00 0.00 0.01 0.00 0.00 0.00 0.00 0.00
0.05 0.03 0.05 0.06 0.02 0.01 0.00 0.00 0.00 0.01 0.01 0.00 0.00 0.00 0.00 0.00 0.00 0.00 0.00 0.00 0.00 0.01 0.09 0.09 0.03 0.04 0.02 0.00 0.00 0.01 0.00 0.00 0.00 0.00 0.04 0.02 0.00 0.03 0.05 0.02 0.00 0.00 0.00 0.00 0.00
0.08 0.08 0.13 0.08 0.04 0.01 0.00 0.00 0.04 0.07 0.01 0.00 0.00 0.00 0.00 0.00 0.00 0.00 0.00 0.00 0.00 0.01 0.01 0.01 0.02 0.06 0.03 0.00 0.00 0.00 0.01 0.00 0.00 0.00 0.01 0.01 0.01 0.01 0.01 0.01 0.01 0.00 0.00 0.00 0.00
0.12 0.14 0.16 0.06 0.03 0.00 0.01 0.12 0.12 0.04 0.00 0.00 0.00 0.00 0.00 0.00 0.00 0.00 0.00 0.00 0.00 0.00 0.00 0.00 0.01 0.01 0.00 0.00 0.00 0.00 0.05 0.06 0.07 0.00 0.00 0.00 0.01 0.01 0.01 0.04 0.08 0.10 0.00 0.00 0.00
0.13 0.21 0.13 0.04 0.02 0.05 0.17 0.31 0.09 0.00 0.00 0.00 0.00 0.00 0.00 0.00 0.00 0.00 0.00 0.00 0.00 0.00 0.01 0.02 0.03 0.00 0.00 0.00 0.00 0.00 0.02 0.06 0.20 0.11 0.03 0.06 0.01 0.01 0.00 0.00 0.00 0.00 0.00 0.00 0.00
0.36 0.28 0.20 0.07 0.02 0.09 0.39 0.32 0.04 0.00 0.00 0.00 0.00 0.00 0.00 0.00 0.00 0.00 0.00 0.00 0.00 0.00 0.02 0.04 0.02 0.02 0.00 0.00 0.02 0.04 0.04 0.01 0.14 0.14 0.07 0.06 0.01 0.00 0.00 0.00 0.00 0.00 0.00 0.00 0.00
0.48 0.46 0.17 0.06 0.14 0.40 0.79 0.23 0.00 0.01 0.00 0.00 0.00 0.00 0.00 0.00 0.00 0.00 0.01 0.00 0.00 0.00 0.00 0.04 0.08 0.02 0.01 0.00 0.00 0.01 0.04 0.18 0.30 0.15 0.08 0.01 0.02 0.02 0.01 0.00 0.00 0.00 0.00 0.00 0.00
0.90 0.86 0.19 0.10 0.63 0.91 0.67 0.12 0.00 0.00 0.00 0.00 0.00 0.00 0.00 0.00 0.00 0.00 0.04 0.05 0.00 0.00 0.00 0.00 0.03 0.04 0.01 0.01 0.00 0.01 0.14 0.16 0.10 0.02 0.05 0.04 0.06 0.02 0.01 0.00 0.00 0.00 0.00 0.00 0.00
1.48 1.05 0.28 0.28 0.99 0.64 0.21 0.04 0.00 0.00 0.00 0.00 0.00 0.00 0.00 0.00 0.00 0.00 0.00 0.02 0.00 0.00 0.01 0.01 0.00 0.00 0.00 0.00 0.01 0.00 0.03 0.14 0.18 0.10 0.02 0.04 0.14 0.07 0.02 0.00 0.00 0.00 0.00 0.00 0.00
1.88 1.03 0.92 0.65 0.92 0.30 0.14 0.05 0.01 0.00 0.00 0.00 0.00 0.00 0.00 0.00 0.00 0.00 0.00 0.00 0.00 0.01 0.02 0.01 0.00 0.00 0.02 0.05 0.02 0.01 0.00 0.04 0.07 0.20 0.14 0.12 0.11 0.16 0.07 0.00 0.00 0.00 0.00 0.00 0.00
2.30 1.60 1.89 1.27 0.33 0.32 0.35 0.21 0.05 0.01 0.00 0.00 0.00 0.00 0.00 0.01 0.00 0.00 0.00 0.00 0.00 0.00 0.01 0.01 0.03 0.01 0.01 0.04 0.06 0.04 0.02 0.03 0.11 0.27 0.11 0.07 0.04 0.23 0.15 0.05 0.00 0.00 0.00 0.00 0.00
3.20 1.14 0.75 0.78 0.30 0.15 0.22 0.29 0.21 0.14 0.03 0.00 0.01 0.00 0.00 0.00 0.01 0.01 0.01 0.00 0.01 0.01 0.01 0.04 0.06 0.04 0.02 0.00 0.01 0.03 0.04 0.04 0.13 0.11 0.13 0.03 0.04 0.11 0.18 0.23 0.09 0.01 0.00 0.00 0.00
3.32 0.61 0.32 0.22 0.23 0.26 0.17 0.08 0.05 0.11 0.19 0.08 0.02 0.01 0.01 0.01 0.02 0.07 0.06 0.04 0.05 0.02 0.02 0.04 0.07 0.07 0.02 0.00 0.00 0.00 0.02 0.03 0.05 0.05 0.07 0.05 0.07 0.10 0.12 0.15 0.16 0.03 0.00 0.00 0.00
2.88 0.51 0.52 0.35 0.17 0.43 0.44 0.16 0.06 0.09 0.13 0.03 0.07 0.09 0.04 0.05 0.12 0.09 0.14 0.12 0.13 0.08 0.06 0.05 0.07 0.10 0.13 0.03 0.01 0.00 0.00 0.01 0.03 0.07 0.07 0.11 0.09 0.09 0.15 0.16 0.05 0.02 0.00 0.00 0.00

GFSSW_prec_precacc_075.txt.gz
Total_Precipitation_Accumulation
0.03 0.02 0.02 0.02 0.02 0.02 0.02 0.01 0.02 0.02 0.02 0.02 0.02 0.02 0.02 0.02 0.00 0.00 0.00 0.00 0.00 0.00 0.00 0.00 0.00 0.00 0.00 0.00 0.00 0.00 0.00 0.00 0.00 0.01 0.15 0.23 0.08 0.24 0.13 0.11 0.27 0.31 0.50 0.60 0.85
0.04 0.04 0.04 0.03 0.02 0.02 0.02 0.02 0.02 0.02 0.03 0.03 0.01 0.02 0.02 0.02 0.00 0.00 0.00 0.00 0.00 0.00 0.00 0.00 0.00 0.00 0.00 0.00 0.00 0.00 0.00 0.00 0.00 0.06 0.24 0.13 0.03 0.19 0.09 0.19 0.54 0.38 0.72 0.66 0.43
0.03 0.03 0.03 0.03 0.03 0.03 0.02 0.03 0.02 0.02 0.02 0.01 0.01 0.02 0.02 0.01 0.00 0.00 0.00 0.00 0.00 0.00 0.00 0.00 0.00 0.00 0.00 0.00 0.00 0.00 0.00 0.00 0.02 0.11 0.04 0.02 0.07 0.10 0.32 0.45 0.52 1.13 0.48 0.41 0.49
0.03 0.02 0.03 0.03 0.03 0.03 0.02 0.02 0.02 0.02 0.02 0.01 0.01 0.02 0.02 0.00 0.00 0.00 0.00 0.00 0.00 0.00 0.00 0.00 0.00 0.00 0.00 0.00 0.00 0.00 0.00 0.00 0.01 0.01 0.01 0.00 0.01 0.11 0.35 0.80 0.30 0.32 0.38 0.47 0.75
0.03 0.03 0.03 0.03 0.03 0.03 0.03 0.02 0.02 0.02 0.01 0.01 0.01 0.02 0.01 0.00 0.00 0.00 0.00 0.00 0.00 0.00 0.00 0.00 0.00 0.00 0.00 0.00 0.00 0.00 0.00 0.00 0.01 0.04 0.03 0.00 0.04 0.12 0.30 0.11 0.11 0.16 0.38 0.55 0.56
0.04 0.03 0.02 0.03 0.03 0.03 0.02 0.02 0.02 0.01 0.01 0.02 0.02 0.02 0.00 0.00 0.00 0.00 0.00 0.00 0.00 0.00 0.00 0.00 0.00 0.00 0.00 0.00 0.00 0.00 0.00 0.00 0.00 0.01 0.01 0.02 0.05 0.09 0.39 0.12 0.12 0.12 0.32 0.56 0.58
0.03 0.03 0.03 0.03 0.03 0.03 0.02 0.02 0.02 0.01 0.02 0.02 0.02 0.01 0.00 0.00 0.00 0.00 0.00 0.00 0.00 0.00 0.00 0.00 0.00 0.00 0.00 0.00 0.00 0.00 0.00 0.02 0.03 0.01 0.00 0.05 0.19 0.35 0.13 0.08 0.07 0.03 0.04 0.36 0.86
0.04 0.03 0.03 0.02 0.03 0.02 0.02 0.02 0.02 0.02 0.02 0.01 0.01 0.00 0.00 0.00 0.00 0.00 0.00 0.00 0.00 0.00 0.00 0.00 0.00 0.00 0.00 0.00 0.00 0.00 0.00 0.01 0.04 0.03 0.02 0.15 0.48 0.05 0.03 0.05 0.04 0.01 0.01 0.06 0.10
0.04 0.03 0.02 0.02 0.02 0.03 0.02 0.02 0.02 0.02 0.02 0.01 0.00 0.00 0.00 0.00 0.00 0.00 0.00 0.00 0.00 0.00 0.00 0.00 0.00 0.00 0.00 0.00 0.00 0.00 0.00 0.00 0.01 0.01 0.01 0.05 0.33 0.12 0.05 0.09 0.08 0.02 0.01 0.01 0.01
0.03 0.02 0.01 0.02 0.03 0.03 0.02 0.02 0.02 0.01 0.01 0.00 0.00 0.00 0.00 0.00 0.00 0.00 0.00 0.00 0.00 0.00 0.00 0.00 0.00 0.00 0.00 0.00 0.00 0.00 0.00 0.00 0.02 0.02 0.01 0.01 0.03 0.25 0.12 0.05 0.27 0.09 0.04 0.04 0.00
0.03 0.02 0.01 0.02 0.04 0.03 0.01 0.01 0.01 0.00 0.00 0.00 0.00 0.00 0.00 0.00 0.00 0.00 0.00 0.00 0.00 0.00 0.01 0.00 0.00 0.00 0.00 0.00 0.00 0.00 0.00 0.00 0.00 0.01 0.00 0.00 0.01 0.01 0.00 0.00 0.03 0.05 0.07 0.02 0.00
0.03 0.01 0.01 0.04 0.05 0.03 0.00 0.00 0.00 0.00 0.00 0.00 0.00 0.00 0.00 0.00 0.00 0.00 0.00 0.00 0.00 0.01 0.02 0.02 0.01 0.00 0.00 0.00 0.00 0.00 0.00 0.00 0.00 0.00 0.00 0.00 0.00 0.00 0.00 0.00 0.01 0.01 0.11 0.03 0.00
0.03 0.02 0.01 0.03 0.05 0.02 0.00 0.00 0.00 0.00 0.00 0.00 0.00 0.00 0.00 0.00 0.00 0.00 0.00 0.00 0.00 0.03 0.03 0.02 0.01 0.00 0.01 0.00 0.00 0.00 0.00 0.00 0.00 0.00 0.00 0.00 0.00 0.00 0.01 0.01 0.02 0.00 0.00 0.00 0.00
0.04 0.02 0.02 0.05 0.02 0.00 0.00 0.00 0.00 0.00 0.01 0.00 0.00 0.00 0.00 0.00 0.00 0.00 0.00 0.00 0.00 0.02 0.08 0.07 0.00 0.02 0.00 0.00 0.00 0.00 0.00 0.00 0.00 0.00 0.00 0.00 0.00 0.00 0.00 0.01 0.00 0.00 0.00 0.00 0.00
0.05 0.03 0.05 0.06 0.02 0.01 0.00 0.00 0.00 0.01 0.01 0.00 0.00 0.00 0.00 0.00 0.00 0.00 0.00 0.00 0.00 0.01 0.09 0.09 0.03 0.04 0.02 0.00 0.00 0.01 0.00 0.00 0.00 0.00 0.04 0.02 0.00 0.03 0.05 0.02 0.00 0.00 0.00 0.00 0.00
0.08 0.08 0.14 0.08 0.04 0.01 0.00 0.00 0.04 0.07 0.01 0.00 0.00 0.00 0.00 0.00 0.00 0.00 0.00 0.00 0.00 0.01 0.01 0.01 0.02 0.06 0.03 0.00 0.00 0.00 0.02 0.00 0.00 0.00 0.02 0.01 0.01 0.01 0.01 0.01 0.01 0.00 0.00 0.00 0.00
0.12 0.14 0.16 0.06 0.03 0.00 0.01 0.12 0.12 0.04 0.00 0.00 0.00 0.00 0.00 0.00 0.00 0.00 0.00 0.00 0.00 0.00 0.00 0.00 0.01 0.01 0.00 0.00 0.00 0.01 0.06 0.08 0.10 0.03 0.01 0.00 0.01 0.01 0.01 0.04 0.08 0.10 0.00 0.00 0.00
0.13 0.21 0.13 0.04 0.02 0.05 0.17 0.31 0.09 0.00 0.00 0.00 0.00 0.00 0.00 0.00 0.00 0.00 0.00 0.00 0.00 0.00 0.01 0.02 0.03 0.00 0.00 0.00 0.01 0.00 0.03 0.10 0.22 0.11 0.03 0.06 0.01 0.01 0.00 0.00 0.00 0.00 0.00 0.00 0.00
0.36 0.28 0.20 0.07 0.02 0.09 0.39 0.32 0.04 0.00 0.00 0.00 0.00 0.00 0.00 0.00 0.00 0.00 0.00 0.00 0.00 0.00 0.02 0.04 0.02 0.02 0.00 0.00 0.02 0.06 0.05 0.03 0.21 0.15 0.07 0.06 0.01 0.00 0.00 0.00 0.00 0.00 0.00 0.00 0.00
0.48 0.46 0.17 0.06 0.14 0.40 0.79 0.23 0.00 0.01 0.00 0.00 0.00 0.00 0.00 0.00 0.00 0.00 0.01 0.00 0.00 0.00 0.00 0.04 0.08 0.02 0.01 0.00 0.00 0.02 0.04 0.19 0.33 0.18 0.10 0.01 0.03 0.02 0.01 0.00 0.00 0.00 0.00 0.00 0.00
0.90 0.86 0.19 0.10 0.63 0.92 0.67 0.12 0.00 0.00 0.00 0.00 0.00 0.02 0.01 0.00 0.00 0.00 0.06 0.07 0.00 0.00 0.00 0.00 0.03 0.04 0.01 0.01 0.00 0.02 0.15 0.18 0.11 0.03 0.07 0.07 0.10 0.02 0.01 0.01 0.00 0.00 0.00 0.00 0.00
1.48 1.05 0.28 0.28 0.99 0.64 0.22 0.04 0.00 0.00 0.00 0.00 0.00 0.01 0.05 0.01 0.00 0.00 0.01 0.05 0.01 0.00 0.01 0.01 0.00 0.00 0.00 0.00 0.01 0.00 0.03 0.16 0.28 0.14 0.02 0.08 0.18 0.08 0.05 0.03 0.00 0.00 0.00 0.00 0.00
1.88 1.03 0.92 0.65 0.94 0.31 0.14 0.05 0.01 0.00 0.00 0.00 0.00 0.00 0.01 0.03 0.01 0.01 0.00 0.00 0.00 0.01 0.02 0.01 0.00 0.00 0.02 0.05 0.02 0.01 0.01 0.05 0.10 0.29 0.19 0.17 0.14 0.29 0.14 0.05 0.01 0.00 0.01 0.00 0.00
2.30 1.60 1.89 1.27 0.33 0.32 0.36 0.22 0.06 0.02 0.00 0.00 0.00 0.00 0.00 0.03 0.02 0.01 0.01 0.00 0.00 0.00 0.01 0.01 0.03 0.01 0.01 0.04 0.07 0.04 0.02 0.05 0.16 0.37 0.14 0.08 0.05 0.50 0.46 0.23 0.06 0.00 0.00 0.02 0.01
3.23 1.15 0.75 0.78 0.31 0.16 0.24 0.31 0.21 0.14 0.03 0.01 0.01 0.00 0.00 0.01 0.03 0.02 0.01 0.01 0.01 0.01 0.01 0.04 0.06 0.04 0.02 0.00 0.01 0.03 0.04 0.06 0.18 0.14 0.15 0.04 0.04 0.17 0.44 0.55 0.31 0.07 0.00 0.00 0.01
3.36 0.62 0.32 0.22 0.23 0.26 0.18 0.09 0.06 0.13 0.21 0.09 0.04 0.02 0.02 0.02 0.02 0.08 0.06 0.04 0.05 0.02 0.02 0.04 0.07 0.07 0.02 0.00 0.00 0.00 0.02 0.04 0.06 0.07 0.09 0.06 0.07 0.14 0.31 0.36 0.52 0.21 0.05 0.01 0.00
2.89 0.52 0.53 0.36 0.17 0.43 0.44 0.17 0.07 0.12 0.15 0.05 0.11 0.11 0.04 0.05 0.12 0.10 0.14 0.12 0.13 0.08 0.06 0.05 0.07 0.10 0.13 0.03 0.01 0.00 0.00 0.01 0.04 0.08 0.08 0.12 0.11 0.12 0.26 0.34 0.26 0.32 0.16 0.03 0.01

GFSSW_prec_precacc_078.txt.gz
Total_Precipitation_Accumulation
0.03 0.02 0.02 0.03 0.02 0.02 0.02 0.01 0.02 0.02 0.02 0.02 0.02 0.02 0.02 0.02 0.00 0.00 0.00 0.00 0.00 0.00 0.00 0.00 0.00 0.00 0.00 0.00 0.00 0.00 0.00 0.00 0.00 0.01 0.15 0.23 0.08 0.24 0.13 0.11 0.27 0.31 0.50 0.60 0.85
0.04 0.04 0.04 0.03 0.03 0.03 0.02 0.02 0.02 0.02 0.03 0.03 0.01 0.02 0.02 0.02 0.00 0.00 0.00 0.00 0.00 0.00 0.00 0.00 0.00 0.00 0.00 0.00 0.00 0.00 0.00 0.00 0.00 0.06 0.24 0.13 0.03 0.19 0.09 0.19 0.54 0.38 0.72 0.66 0.43
0.03 0.03 0.03 0.03 0.03 0.03 0.02 0.03 0.02 0.02 0.02 0.01 0.01 0.02 0.02 0.01 0.00 0.00 0.00 0.00 0.00 0.00 0.00 0.00 0.00 0.00 0.00 0.00 0.00 0.00 0.00 0.00 0.02 0.11 0.04 0.02 0.07 0.10 0.32 0.45 0.52 1.13 0.48 0.41 0.49
0.03 0.02 0.03 0.03 0.03 0.03 0.02 0.02 0.02 0.02 0.02 0.01 0.01 0.02 0.02 0.00 0.00 0.00 0.00 0.00 0.00 0.00 0.00 0.00 0.00 0.00 0.00 0.00 0.00 0.00 0.00 0.00 0.01 0.01 0.01 0.00 0.01 0.11 0.35 0.80 0.30 0.32 0.38 0.47 0.75
0.03 0.03 0.03 0.03 0.03 0.03 0.03 0.02 0.02 0.02 0.01 0.01 0.01 0.02 0.01 0.00 0.00 0.00 0.00 0.00 0.00 0.00 0.00 0.00 0.00 0.00 0.00 0.00 0.00 0.00 0.00 0.00 0.01 0.04 0.03 0.00 0.04 0.12 0.30 0.11 0.11 0.16 0.38 0.55 0.56
0.04 0.03 0.02 0.03 0.03 0.03 0.02 0.02 0.02 0.01 0.01 0.02 0.02 0.02 0.00 0.00 0.00 0.00 0.00 0.00 0.00 0.00 0.00 0.00 0.00 0.00 0.00 0.00 0.00 0.00 0.00 0.00 0.00 0.01 0.01 0.02 0.05 0.09 0.39 0.12 0.12 0.12 0.32 0.56 0.58
0.03 0.03 0.03 0.03 0.03 0.03 0.02 0.02 0.02 0.01 0.02 0.02 0.02 0.01 0.00 0.00 0.00 0.00 0.00 0.00 0.00 0.00 0.00 0.00 0.00 0.00 0.00 0.00 0.00 0.00 0.00 0.02 0.03 0.01 0.00 0.05 0.19 0.35 0.13 0.08 0.07 0.03 0.04 0.36 0.86
0.04 0.03 0.03 0.02 0.03 0.02 0.02 0.02 0.02 0.02 0.02 0.01 0.01 0.00 0.00 0.00 0.00 0.00 0.00 0.00 0.00 0.00 0.00 0.00 0.00 0.00 0.00 0.00 0.00 0.00 0.00 0.01 0.04 0.03 0.02 0.15 0.48 0.05 0.03 0.05 0.04 0.01 0.01 0.06 0.10
0.04 0.03 0.02 0.02 0.02 0.03 0.02 0.02 0.02 0.02 0.02 0.01 0.00 0.00 0.00 0.00 0.00 0.00 0.00 0.00 0.00 0.00 0.00 0.00 0.00 0.00 0.00 0.00 0.00 0.00 0.00 0.00 0.01 0.01 0.01 0.05 0.33 0.12 0.05 0.09 0.08 0.02 0.01 0.01 0.01
0.03 0.02 0.01 0.02 0.03 0.03 0.02 0.02 0.02 0.01 0.01 0.00 0.00 0.00 0.00 0.00 0.00 0.00 0.00 0.00 0.00 0.00 0.00 0.00 0.00 0.00 0.00 0.00 0.00 0.00 0.00 0.00 0.02 0.02 0.01 0.01 0.03 0.25 0.12 0.05 0.27 0.09 0.04 0.04 0.00
0.03 0.02 0.01 0.02 0.04 0.03 0.01 0.01 0.01 0.00 0.00 0.00 0.00 0.00 0.00 0.00 0.00 0.00 0.00 0.00 0.00 0.00 0.01 0.00 0.00 0.00 0.00 0.00 0.00 0.00 0.00 0.00 0.00 0.01 0.00 0.00 0.01 0.01 0.00 0.00 0.03 0.05 0.07 0.02 0.00
0.03 0.01 0.01 0.04 0.05 0.03 0.00 0.00 0.00 0.00 0.00 0.00 0.00 0.00 0.00 0.00 0.00 0.00 0.00 0.00 0.00 0.01 0.02 0.02 0.01 0.00 0.00 0.00 0.00 0.00 0.00 0.00 0.00 0.00 0.00 0.00 0.00 0.00 0.00 0.00 0.01 0.01 0.11 0.03 0.00
0.03 0.02 0.01 0.03 0.05 0.02 0.00 0.00 0.00 0.00 0.00 0.00 0.00 0.00 0.00 0.00 0.00 0.00 0.00 0.00 0.00 0.03 0.03 0.02 0.01 0.00 0.01 0.00 0.00 0.00 0.00 0.00 0.00 0.00 0.00 0.00 0.00 0.00 0.01 0.01 0.02 0.00 0.00 0.00 0.00
0.04 0.02 0.02 0.05 0.02 0.00 0.00 0.00 0.00 0.00 0.01 0.00 0.00 0.00 0.00 0.00 0.00 0.00 0.00 0.00 0.00 0.02 0.08 0.07 0.00 0.02 0.00 0.00 0.00 0.00 0.00 0.00 0.00 0.00 0.00 0.00 0.00 0.00 0.00 0.01 0.00 0.00 0.00 0.00 0.00
0.05 0.03 0.05 0.06 0.02 0.01 0.00 0.00 0.00 0.01 0.01 0.00 0.00 0.00 0.00 0.00 0.00 0.00 0.00 0.00 0.00 0.01 0.09 0.09 0.03 0.04 0.02 0.00 0.00 0.01 0.00 0.00 0.00 0.00 0.04 0.02 0.00 0.03 0.05 0.02 0.00 0.00 0.00 0.00 0.00
0.08 0.08 0.14 0.08 0.04 0.01 0.00 0.00 0.04 0.07 0.01 0.00 0.00 0.00 0.00 0.00 0.00 0.00 0.00 0.00 0.00 0.01 0.01 0.01 0.02 0.06 0.03 0.00 0.00 0.00 0.02 0.00 0.00 0.01 0.04 0.01 0.01 0.01 0.01 0.01 0.01 0.00 0.00 0.00 0.00
0.12 0.14 0.16 0.06 0.03 0.00 0.01 0.12 0.12 0.04 0.00 0.00 0.00 0.00 0.00 0.00 0.00 0.00 0.00 0.00 0.00 0.00 0.00 0.00 0.01 0.01 0.00 0.00 0.00 0.01 0.07 0.08 0.12 0.06 0.02 0.00 0.01 0.01 0.01 0.04 0.08 0.10 0.00 0.00 0.00
0.13 0.21 0.13 0.04 0.02 0.05 0.17 0.31 0.09 0.00 0.00 0.00 0.00 0.00 0.00 0.00 0.00 0.00 0.00 0.00 0.00 0.00 0.01 0.02 0.03 0.00 0.00 0.00 0.01 0.01 0.04 0.11 0.24 0.12 0.03 0.06 0.01 0.01 0.00 0.00 0.00 0.00 0.00 0.00 0.00
0.36 0.28 0.20 0.07 0.02 0.09 0.39 0.32 0.04 0.00 0.00 0.00 0.00 0.00 0.00 0.00 0.00 0.00 0.00 0.00 0.00 0.00 0.02 0.04 0.02 0.02 0.00 0.00 0.02 0.07 0.07 0.04 0.26 0.18 0.08 0.06 0.01 0.00 0.00 0.00 0.00 0.00 0.00 0.00 0.00
0.48 0.46 0.17 0.06 0.14 0.40 0.79 0.23 0.00 0.01 0.00 0.00 0.00 0.00 0.01 0.01 0.00 0.00 0.01 0.00 0.00 0.00 0.00 0.04 0.08 0.02 0.01 0.00 0.00 0.03 0.05 0.22 0.38 0.22 0.11 0.01 0.03 0.02 0.01 0.00 0.00 0.00 0.00 0.00 0.00
0.90 0.86 0.19 0.10 0.63 0.92 0.67 0.12 0.00 0.00 0.00 0.00 0.00 0.03 0.04 0.04 0.03 0.00 0.06 0.08 0.00 0.00 0.00 0.00 0.03 0.04 0.01 0.01 0.00 0.02 0.16 0.19 0.14 0.04 0.08 0.07 0.11 0.02 0.02 0.02 0.00 0.00 0.00 0.00 0.00
1.48 1.05 0.28 0.28 1.00 0.64 0.22 0.04 0.00 0.00 0.00 0.00 0.00 0.01 0.06 0.05 0.04 0.07 0.01 0.06 0.03 0.00 0.01 0.01 0.00 0.00 0.00 0.00 0.01 0.01 0.03 0.17 0.34 0.17 0.04 0.09 0.20 0.12 0.07 0.03 0.00 0.00 0.00 0.00 0.00
1.88 1.03 0.92 0.65 0.94 0.31 0.14 0.05 0.02 0.00 0.00 0.00 0.00 0.00 0.02 0.06 0.09 0.09 0.07 0.01 0.02 0.06 0.03 0.01 0.00 0.00 0.02 0.06 0.03 0.03 0.02 0.06 0.12 0.34 0.23 0.21 0.15 0.36 0.23 0.06 0.01 0.00 0.01 0.00 0.00
2.30 1.60 1.89 1.27 0.34 0.32 0.37 0.23 0.06 0.02 0.00 0.00 0.00 0.00 0.00 0.03 0.08 0.08 0.12 0.05 0.00 0.02 0.01 0.01 0.03 0.01 0.01 0.04 0.08 0.05 0.03 0.07 0.27 0.48 0.17 0.09 0.06 0.57 0.65 0.36 0.09 0.04 0.04 0.04 0.02
3.23 1.15 0.75 0.79 0.31 0.16 0.25 0.31 0.21 0.14 0.03 0.01 0.01 0.01 0.02 0.02 0.05 0.07 0.09 0.12 0.04 0.01 0.02 0.04 0.06 0.04 0.02 0.00 0.01 0.03 0.04 0.06 0.22 0.22 0.24 0.05 0.05 0.20 0.51 0.68 0.51 0.17 0.03 0.03 0.03
3.38 0.63 0.32 0.22 0.23 0.26 0.18 0.09 0.06 0.14 0.22 0.09 0.07 0.04 0.03 0.05 0.03 0.08 0.09 0.09 0.09 0.04 0.03 0.04 0.07 0.07 0.02 0.00 0.00 0.00 0.02 0.04 0.06 0.07 0.09 0.06 0.07 0.15 0.38 0.42 0.66 0.46 0.14 0.02 0.01
2.89 0.53 0.53 0.36 0.17 0.43 0.44 0.17 0.07 0.12 0.15 0.05 0.11 0.12 0.05 0.05 0.13 0.11 0.16 0.14 0.15 0.09 0.07 0.06 0.07 0.10 0.13 0.03 0.01 0.00 0.00 0.01 0.04 0.08 0.08 0.12 0.11 0.13 0.29 0.39 0.36 0.50 0.35 0.14 0.03

GFSSW_prec_precacc_084.txt.gz
Total_Precipitation_Accumulation
0.03 0.02 0.02 0.03 0.02 0.02 0.03 0.02 0.02 0.02 0.02 0.02 0.02 0.02 0.02 0.02 0.00 0.00 0.00 0.00 0.00 0.00 0.00 0.00 0.00 0.00 0.00 0.00 0.00 0.00 0.00 0.00 0.00 0.01 0.15 0.23 0.08 0.24 0.13 0.11 0.27 0.31 0.50 0.60 0.85
0.04 0.04 0.04 0.03 0.03 0.03 0.02 0.02 0.02 0.02 0.03 0.03 0.01 0.02 0.02 0.02 0.00 0.00 0.00 0.00 0.00 0.00 0.00 0.00 0.00 0.00 0.00 0.00 0.00 0.00 0.00 0.00 0.00 0.06 0.24 0.13 0.03 0.19 0.09 0.19 0.54 0.38 0.72 0.66 0.43
0.03 0.03 0.03 0.03 0.03 0.03 0.02 0.03 0.02 0.02 0.02 0.01 0.01 0.02 0.02 0.01 0.00 0.00 0.00 0.00 0.00 0.00 0.00 0.00 0.00 0.00 0.00 0.00 0.00 0.00 0.00 0.00 0.02 0.11 0.04 0.02 0.07 0.10 0.32 0.45 0.52 1.13 0.48 0.41 0.49
0.03 0.02 0.03 0.04 0.03 0.03 0.02 0.02 0.02 0.02 0.02 0.01 0.01 0.02 0.02 0.00 0.00 0.00 0.00 0.00 0.00 0.00 0.00 0.00 0.00 0.00 0.00 0.00 0.00 0.00 0.00 0.00 0.01 0.01 0.01 0.00 0.01 0.11 0.35 0.80 0.30 0.32 0.38 0.47 0.75
0.03 0.03 0.03 0.03 0.03 0.03 0.03 0.02 0.02 0.02 0.01 0.01 0.01 0.02 0.01 0.00 0.00 0.00 0.00 0.00 0.00 0.00 0.00 0.00 0.00 0.00 0.00 0.00 0.00 0.00 0.00 0.00 0.01 0.04 0.03 0.00 0.04 0.12 0.30 0.11 0.11 0.16 0.38 0.55 0.56
0.04 0.03 0.02 0.03 0.03 0.03 0.02 0.02 0.02 0.01 0.01 0.02 0.02 0.02 0.00 0.00 0.00 0.00 0.00 0.00 0.00 0.00 0.00 0.00 0.00 0.00 0.00 0.00 0.00 0.00 0.00 0.00 0.00 0.01 0.01 0.02 0.05 0.09 0.39 0.12 0.12 0.12 0.32 0.56 0.58
0.03 0.03 0.03 0.03 0.03 0.03 0.02 0.02 0.02 0.01 0.02 0.02 0.02 0.01 0.00 0.00 0.00 0.00 0.00 0.00 0.00 0.00 0.00 0.00 0.00 0.00 0.00 0.00 0.00 0.00 0.00 0.02 0.03 0.01 0.00 0.05 0.19 0.35 0.13 0.08 0.07 0.03 0.04 0.36 0.86
0.04 0.03 0.03 0.02 0.03 0.02 0.02 0.02 0.02 0.02 0.02 0.01 0.02 0.00 0.00 0.00 0.00 0.00 0.00 0.00 0.00 0.00 0.00 0.00 0.00 0.00 0.00 0.00 0.00 0.00 0.00 0.01 0.04 0.03 0.02 0.15 0.48 0.05 0.03 0.05 0.04 0.01 0.01 0.06 0.10
0.04 0.03 0.02 0.02 0.02 0.03 0.02 0.02 0.02 0.02 0.02 0.01 0.00 0.00 0.00 0.00 0.00 0.00 0.00 0.00 0.00 0.00 0.00 0.00 0.00 0.00 0.00 0.00 0.00 0.00 0.00 0.00 0.01 0.01 0.01 0.05 0.33 0.12 0.05 0.09 0.08 0.02 0.01 0.01 0.01
0.03 0.02 0.01 0.02 0.03 0.03 0.02 0.02 0.02 0.01 0.01 0.00 0.00 0.00 0.00 0.00 0.00 0.00 0.00 0.00 0.00 0.00 0.00 0.00 0.00 0.00 0.00 0.00 0.01 0.00 0.00 0.00 0.02 0.02 0.01 0.01 0.03 0.25 0.12 0.05 0.27 0.09 0.04 0.04 0.00
0.03 0.02 0.01 0.02 0.04 0.03 0.01 0.01 0.01 0.00 0.00 0.00 0.00 0.00 0.00 0.00 0.00 0.00 0.00 0.00 0.00 0.00 0.01 0.00 0.00 0.00 0.00 0.00 0.00 0.00 0.00 0.00 0.00 0.01 0.00 0.00 0.01 0.01 0.00 0.00 0.03 0.05 0.07 0.02 0.00
0.03 0.01 0.01 0.04 0.05 0.03 0.00 0.00 0.00 0.00 0.00 0.00 0.00 0.00 0.00 0.00 0.00 0.00 0.00 0.00 0.00 0.01 0.02 0.02 0.01 0.00 0.00 0.00 0.00 0.00 0.00 0.00 0.00 0.00 0.00 0.00 0.00 0.00 0.00 0.00 0.01 0.01 0.11 0.03 0.00
0.03 0.02 0.01 0.03 0.05 0.02 0.00 0.00 0.00 0.00 0.00 0.00 0.00 0.00 0.00 0.00 0.00 0.00 0.00 0.00 0.00 0.03 0.03 0.02 0.01 0.00 0.01 0.00 0.00 0.00 0.00 0.00 0.00 0.00 0.00 0.00 0.00 0.00 0.01 0.01 0.02 0.00 0.00 0.00 0.00
0.04 0.02 0.02 0.05 0.02 0.00 0.00 0.00 0.00 0.00 0.01 0.00 0.00 0.00 0.00 0.00 0.00 0.00 0.00 0.00 0.00 0.02 0.08 0.07 0.00 0.02 0.00 0.00 0.00 0.00 0.00 0.00 0.00 0.00 0.00 0.00 0.00 0.00 0.00 0.01 0.00 0.00 0.00 0.00 0.00
0.05 0.03 0.05 0.06 0.02 0.01 0.00 0.00 0.00 0.01 0.01 0.00 0.00 0.00 0.00 0.00 0.00 0.00 0.00 0.00 0.00 0.01 0.09 0.09 0.03 0.04 0.02 0.00 0.00 0.01 0.00 0.00 0.00 0.00 0.05 0.02 0.00 0.03 0.05 0.02 0.00 0.00 0.00 0.00 0.00
0.08 0.08 0.14 0.08 0.04 0.01 0.00 0.00 0.04 0.07 0.01 0.00 0.00 0.00 0.00 0.00 0.00 0.00 0.00 0.00 0.00 0.01 0.01 0.01 0.02 0.06 0.03 0.00 0.00 0.00 0.02 0.00 0.00 0.01 0.05 0.01 0.01 0.01 0.01 0.01 0.01 0.00 0.00 0.00 0.00
0.12 0.14 0.16 0.06 0.03 0.00 0.01 0.12 0.12 0.04 0.00 0.00 0.00 0.00 0.00 0.00 0.00 0.00 0.00 0.00 0.00 0.00 0.00 0.00 0.01 0.01 0.00 0.00 0.00 0.01 0.08 0.09 0.12 0.07 0.03 0.00 0.01 0.01 0.01 0.04 0.08 0.10 0.00 0.00 0.00
0.13 0.21 0.13 0.04 0.02 0.05 0.17 0.31 0.09 0.00 0.00 0.00 0.00 0.00 0.00 0.00 0.00 0.00 0.00 0.00 0.00 0.00 0.01 0.02 0.03 0.00 0.00 0.00 0.01 0.01 0.04 0.11 0.25 0.14 0.03 0.06 0.01 0.01 0.00 0.00 0.00 0.00 0.00 0.00 0.00
0.36 0.28 0.20 0.07 0.02 0.09 0.39 0.32 0.04 0.00 0.00 0.00 0.00 0.00 0.00 0.00 0.00 0.00 0.00 0.00 0.00 0.00 0.02 0.04 0.02 0.02 0.00 0.00 0.02 0.07 0.08 0.05 0.28 0.19 0.10 0.06 0.01 0.00 0.00 0.00 0.00 0.00 0.00 0.00 0.00
0.48 0.46 0.17 0.06 0.14 0.40 0.79 0.23 0.00 0.01 0.00 0.00 0.00 0.00 0.01 0.01 0.00 0.00 0.01 0.02 0.01 0.00 0.00 0.04 0.08 0.02 0.01 0.01 0.01 0.04 0.07 0.26 0.41 0.25 0.13 0.01 0.03 0.03 0.01 0.00 0.00 0.00 0.00 0.00 0.00
0.90 0.86 0.19 0.10 0.63 0.92 0.67 0.12 0.00 0.00 0.00 0.00 0.00 0.03 0.04 0.04 0.03 0.02 0.07 0.12 0.03 0.00 0.00 0.00 0.03 0.07 0.04 0.02 0.01 0.04 0.20 0.21 0.19 0.07 0.10 0.08 0.13 0.07 0.03 0.04 0.01 0.00 0.00 0.01 0.00
1.48 1.05 0.28 0.28 1.00 0.64 0.22 0.04 0.00 0.00 0.00 0.00 0.00 0.01 0.06 0.06 0.05 0.10 0.07 0.14 0.08 0.07 0.04 0.01 0.02 0.01 0.02 0.03 0.01 0.03 0.06 0.19 0.37 0.23 0.11 0.13 0.23 0.20 0.14 0.10 0.03 0.00 0.00 0.02 0.02
1.88 1.03 0.92 0.65 0.94 0.31 0.15 0.05 0.02 0.00 0.00 0.00 0.00 0.00 0.02 0.06 0.10 0.10 0.12 0.08 0.12 0.23 0.21 0.09 0.04 0.03 0.06 0.11 0.06 0.08 0.06 0.09 0.15 0.39 0.27 0.25 0.18 0.47 0.32 0.19 0.06 0.02 0.02 0.03 0.04
2.30 1.60 1.89 1.28 0.34 0.33 0.37 0.23 0.06 0.02 0.00 0.00 0.00 0.00 0.01 0.04 0.09 0.09 0.13 0.12 0.11 0.14 0.23 0.16 0.07 0.03 0.04 0.07 0.09 0.05 0.03 0.08 0.33 0.62 0.28 0.12 0.06 0.58 0.68 0.44 0.15 0.08 0.06 0.06 0.07
3.23 1.15 0.75 0.79 0.33 0.17 0.25 0.31 0.21 0.14 0.03 0.01 0.02 0.08 0.06 0.05 0.06 0.08 0.14 0.21 0.14 0.18 0.32 0.19 0.16 0.07 0.02 0.00 0.01 0.03 0.04 0.06 0.22 0.22 0.25 0.05 0.05 0.20 0.52 0.71 0.56 0.25 0.12 0.10 0.11
3.39 0.64 0.32 0.22 0.23 0.26 0.18 0.09 0.06 0.14 0.22 0.09 0.10 0.07 0.03 0.06 0.04 0.11 0.14 0.15 0.22 0.22 0.40 0.21 0.23 0.19 0.05 0.00 0.00 0.00 0.02 0.04 0.06 0.07 0.09 0.06 0.07 0.15 0.38 0.43 0.67 0.52 0.31 0.17 0.14
2.89 0.53 0.53 0.36 0.17 0.43 0.44 0.17 0.07 0.12 0.15 0.05 0.11 0.12 0.05 0.05 0.13 0.12 0.19 0.18 0.23 0.26 0.48 0.19 0.12 0.13 0.15 0.03 0.01 0.00 0.00 0.01 0.04 0.08 0.08 0.12 0.11 0.13 0.30 0.43 0.39 0.53 0.47 0.45 0.22

GFSSW_prec_precacc_087.txt.gz
Total_Precipitation_Accumulation
0.03 0.02 0.02 0.03 0.02 0.02 0.03 0.02 0.02 0.02 0.02 0.02 0.02 0.02 0.02 0.02 0.00 0.00 0.00 0.00 0.00 0.00 0.00 0.00 0.00 0.00 0.00 0.00 0.00 0.00 0.00 0.00 0.00 0.01 0.15 0.23 0.08 0.24 0.13 0.11 0.27 0.31 0.50 0.60 0.85
0.04 0.04 0.04 0.03 0.03 0.03 0.02 0.02 0.02 0.02 0.03 0.03 0.01 0.02 0.02 0.02 0.00 0.00 0.00 0.00 0.00 0.00 0.00 0.00 0.00 0.00 0.00 0.00 0.00 0.00 0.00 0.00 0.00 0.06 0.24 0.13 0.03 0.19 0.09 0.19 0.54 0.38 0.72 0.66 0.43
0.03 0.03 0.03 0.03 0.03 0.03 0.02 0.03 0.02 0.02 0.02 0.01 0.01 0.02 0.02 0.01 0.00 0.00 0.00 0.00 0.00 0.00 0.00 0.00 0.00 0.00 0.00 0.00 0.00 0.00 0.00 0.00 0.02 0.11 0.04 0.02 0.07 0.10 0.32 0.45 0.52 1.13 0.48 0.41 0.49
0.03 0.02 0.03 0.04 0.03 0.03 0.02 0.02 0.02 0.02 0.02 0.01 0.01 0.02 0.02 0.00 0.00 0.00 0.00 0.00 0.00 0.00 0.00 0.00 0.00 0.00 0.00 0.00 0.00 0.00 0.00 0.00 0.01 0.01 0.01 0.00 0.01 0.11 0.35 0.80 0.30 0.32 0.38 0.47 0.75
0.03 0.03 0.03 0.03 0.03 0.03 0.03 0.02 0.02 0.02 0.01 0.01 0.01 0.02 0.01 0.00 0.00 0.00 0.00 0.00 0.00 0.00 0.00 0.00 0.00 0.00 0.00 0.00 0.00 0.00 0.00 0.00 0.01 0.04 0.03 0.00 0.04 0.12 0.30 0.11 0.11 0.16 0.38 0.55 0.56
0.04 0.03 0.02 0.03 0.03 0.03 0.02 0.02 0.02 0.01 0.01 0.02 0.02 0.02 0.00 0.00 0.00 0.00 0.00 0.00 0.00 0.00 0.00 0.00 0.00 0.00 0.00 0.00 0.00 0.00 0.00 0.00 0.00 0.01 0.01 0.02 0.05 0.09 0.39 0.12 0.12 0.12 0.32 0.56 0.58
0.03 0.03 0.03 0.03 0.03 0.03 0.02 0.02 0.02 0.01 0.02 0.02 0.02 0.01 0.00 0.00 0.00 0.00 0.00 0.00 0.00 0.00 0.00 0.00 0.00 0.00 0.00 0.00 0.00 0.00 0.00 0.02 0.03 0.01 0.00 0.05 0.19 0.35 0.13 0.08 0.07 0.03 0.04 0.36 0.86
0.04 0.03 0.03 0.02 0.03 0.02 0.02 0.02 0.02 0.02 0.02 0.01 0.02 0.00 0.00 0.00 0.00 0.00 0.00 0.00 0.00 0.00 0.00 0.00 0.00 0.00 0.00 0.00 0.00 0.00 0.00 0.01 0.04 0.03 0.02 0.15 0.48 0.05 0.03 0.05 0.04 0.01 0.01 0.06 0.10
0.04 0.03 0.02 0.02 0.02 0.03 0.02 0.02 0.02 0.02 0.02 0.01 0.00 0.00 0.00 0.00 0.00 0.00 0.00 0.00 0.00 0.00 0.00 0.00 0.00 0.00 0.00 0.00 0.00 0.00 0.00 0.00 0.01 0.01 0.01 0.05 0.33 0.12 0.05 0.09 0.08 0.02 0.01 0.01 0.01
0.03 0.02 0.01 0.02 0.03 0.03 0.02 0.02 0.02 0.01 0.01 0.00 0.00 0.00 0.00 0.00 0.00 0.00 0.00 0.00 0.00 0.00 0.00 0.00 0.00 0.00 0.00 0.00 0.01 0.00 0.00 0.00 0.02 0.02 0.01 0.01 0.03 0.25 0.12 0.05 0.27 0.09 0.04 0.04 0.00
0.03 0.02 0.01 0.02 0.04 0.03 0.01 0.01 0.01 0.00 0.00 0.00 0.00 0.00 0.00 0.00 0.00 0.00 0.00 0.00 0.00 0.00 0.01 0.00 0.00 0.00 0.00 0.00 0.00 0.00 0.00 0.00 0.00 0.01 0.00 0.00 0.01 0.01 0.00 0.00 0.03 0.05 0.07 0.02 0.00
0.03 0.01 0.01 0.04 0.05 0.03 0.00 0.00 0.00 0.00 0.00 0.00 0.00 0.00 0.00 0.00 0.00 0.00 0.00 0.00 0.00 0.01 0.02 0.02 0.01 0.00 0.00 0.00 0.00 0.00 0.00 0.00 0.00 0.00 0.00 0.00 0.00 0.00 0.00 0.00 0.01 0.01 0.11 0.03 0.00
0.03 0.02 0.01 0.03 0.05 0.02 0.00 0.00 0.00 0.00 0.00 0.00 0.00 0.00 0.00 0.00 0.00 0.00 0.00 0.00 0.00 0.03 0.03 0.02 0.01 0.00 0.01 0.00 0.00 0.00 0.00 0.00 0.00 0.00 0.00 0.00 0.00 0.00 0.01 0.01 0.02 0.00 0.00 0.00 0.00
0.04 0.02 0.02 0.05 0.02 0.00 0.00 0.00 0.00 0.00 0.01 0.00 0.00 0.00 0.00 0.00 0.00 0.00 0.00 0.00 0.00 0.02 0.08 0.07 0.00 0.02 0.00 0.00 0.00 0.00 0.00 0.00 0.00 0.00 0.00 0.00 0.00 0.00 0.00 0.01 0.00 0.00 0.00 0.00 0.00
0.05 0.03 0.05 0.06 0.02 0.01 0.00 0.00 0.00 0.01 0.01 0.00 0.00 0.00 0.00 0.00 0.00 0.00 0.00 0.00 0.00 0.01 0.09 0.09 0.03 0.04 0.02 0.00 0.00 0.01 0.00 0.00 0.00 0.00 0.05 0.02 0.00 0.03 0.05 0.02 0.00 0.00 0.00 0.00 0.00
0.08 0.08 0.14 0.08 0.04 0.01 0.00 0.00 0.04 0.07 0.01 0.00 0.00 0.00 0.00 0.00 0.00 0.00 0.00 0.00 0.00 0.01 0.01 0.01 0.02 0.06 0.03 0.00 0.00 0.00 0.02 0.00 0.00 0.01 0.05 0.01 0.01 0.01 0.01 0.01 0.01 0.00 0.00 0.00 0.00
0.12 0.14 0.16 0.06 0.03 0.00 0.01 0.12 0.12 0.04 0.00 0.00 0.00 0.00 0.00 0.00 0.00 0.00 0.00 0.00 0.00 0.00 0.00 0.00 0.01 0.01 0.00 0.00 0.00 0.01 0.08 0.09 0.13 0.08 0.03 0.00 0.01 0.01 0.01 0.04 0.08 0.10 0.00 0.00 0.00
0.13 0.21 0.13 0.04 0.02 0.05 0.17 0.31 0.09 0.00 0.00 0.00 0.00 0.00 0.00 0.00 0.00 0.00 0.00 0.00 0.00 0.00 0.01 0.02 0.03 0.00 0.00 0.00 0.01 0.01 0.04 0.11 0.25 0.15 0.04 0.07 0.01 0.01 0.00 0.00 0.00 0.00 0.00 0.00 0.00
0.36 0.28 0.20 0.07 0.02 0.09 0.39 0.32 0.04 0.00 0.00 0.00 0.00 0.00 0.00 0.00 0.00 0.00 0.00 0.00 0.02 0.01 0.04 0.06 0.04 0.02 0.00 0.00 0.02 0.08 0.08 0.05 0.30 0.20 0.11 0.07 0.01 0.01 0.00 0.00 0.00 0.00 0.00 0.00 0.00
0.48 0.46 0.17 0.06 0.14 0.40 0.79 0.23 0.00 0.01 0.00 0.00 0.00 0.00 0.01 0.01 0.00 0.00 0.01 0.03 0.03 0.00 0.00 0.04 0.11 0.03 0.01 0.03 0.01 0.06 0.10 0.29 0.44 0.27 0.14 0.01 0.03 0.08 0.03 0.00 0.00 0.00 0.00 0.00 0.00
0.90 0.86 0.19 0.10 0.63 0.92 0.67 0.12 0.00 0.00 0.00 0.00 0.00 0.03 0.04 0.04 0.03 0.02 0.07 0.14 0.03 0.02 0.00 0.01 0.08 0.10 0.09 0.05 0.04 0.06 0.23 0.24 0.23 0.09 0.13 0.09 0.18 0.14 0.03 0.04 0.01 0.00 0.00 0.01 0.00
1.48 1.05 0.28 0.28 1.00 0.64 0.22 0.04 0.00 0.00 0.00 0.00 0.00 0.01 0.06 0.06 0.05 0.10 0.07 0.15 0.10 0.07 0.05 0.08 0.10 0.04 0.06 0.03 0.01 0.09 0.11 0.25 0.43 0.28 0.13 0.15 0.30 0.26 0.15 0.10 0.03 0.00 0.00 0.02 0.02
1.88 1.03 0.92 0.65 0.94 0.31 0.15 0.05 0.02 0.00 0.00 0.00 0.00 0.00 0.02 0.06 0.10 0.10 0.12 0.09 0.14 0.24 0.25 0.16 0.10 0.10 0.10 0.14 0.08 0.10 0.13 0.16 0.21 0.43 0.30 0.29 0.26 0.51 0.32 0.19 0.06 0.02 0.02 0.03 0.04
2.30 1.60 1.89 1.28 0.34 0.33 0.37 0.23 0.06 0.02 0.00 0.00 0.00 0.00 0.02 0.04 0.09 0.11 0.14 0.12 0.12 0.15 0.26 0.33 0.13 0.06 0.08 0.12 0.13 0.07 0.06 0.11 0.40 0.67 0.33 0.15 0.07 0.58 0.68 0.44 0.15 0.08 0.06 0.06 0.07
3.23 1.15 0.75 0.80 0.33 0.17 0.25 0.31 0.21 0.14 0.03 0.01 0.03 0.10 0.08 0.05 0.06 0.08 0.14 0.21 0.14 0.21 0.38 0.42 0.30 0.11 0.06 0.02 0.04 0.07 0.08 0.09 0.24 0.24 0.26 0.05 0.05 0.20 0.52 0.71 0.56 0.25 0.12 0.10 0.11
3.39 0.64 0.32 0.22 0.23 0.26 0.18 0.09 0.06 0.14 0.22 0.09 0.10 0.07 0.04 0.07 0.04 0.11 0.14 0.16 0.23 0.26 0.46 0.44 0.55 0.33 0.08 0.01 0.00 0.00 0.02 0.04 0.06 0.07 0.09 0.06 0.08 0.16 0.39 0.44 0.67 0.52 0.31 0.18 0.14
2.89 0.53 0.53 0.36 0.17 0.43 0.44 0.17 0.07 0.12 0.15 0.05 0.11 0.12 0.05 0.05 0.14 0.13 0.19 0.18 0.23 0.27 0.52 0.33 0.44 0.29 0.18 0.03 0.01 0.00 0.00 0.01 0.04 0.09 0.08 0.13 0.14 0.14 0.32 0.44 0.39 0.53 0.48 0.47 0.27

GFSSW_prec_precacc_090.txt.gz
Total_Precipitation_Accumulation
0.03 0.02 0.02 0.03 0.02 0.02 0.03 0.02 0.02 0.02 0.02 0.02 0.02 0.02 0.02 0.02 0.00 0.00 0.00 0.00 0.00 0.00 0.00 0.00 0.00 0.00 0.00 0.00 0.00 0.00 0.00 0.00 0.00 0.01 0.15 0.23 0.08 0.24 0.13 0.11 0.27 0.31 0.50 0.60 0.85
0.04 0.04 0.04 0.03 0.03 0.03 0.02 0.02 0.02 0.02 0.03 0.03 0.01 0.02 0.02 0.02 0.00 0.00 0.00 0.00 0.00 0.00 0.00 0.00 0.00 0.00 0.00 0.00 0.00 0.00 0.00 0.00 0.00 0.06 0.24 0.13 0.03 0.19 0.09 0.19 0.54 0.38 0.72 0.66 0.43
0.03 0.03 0.03 0.03 0.03 0.03 0.02 0.03 0.02 0.02 0.02 0.01 0.01 0.02 0.02 0.01 0.00 0.00 0.00 0.00 0.00 0.00 0.00 0.00 0.00 0.00 0.00 0.00 0.00 0.00 0.00 0.00 0.02 0.11 0.04 0.02 0.07 0.10 0.32 0.45 0.52 1.13 0.48 0.41 0.49
0.03 0.02 0.03 0.04 0.03 0.03 0.02 0.02 0.02 0.02 0.02 0.01 0.01 0.02 0.02 0.00 0.00 0.00 0.00 0.00 0.00 0.00 0.00 0.00 0.00 0.00 0.00 0.00 0.00 0.00 0.00 0.00 0.01 0.01 0.01 0.00 0.01 0.11 0.35 0.80 0.30 0.32 0.38 0.47 0.75
0.03 0.03 0.03 0.03 0.03 0.03 0.03 0.02 0.02 0.02 0.01 0.01 0.01 0.02 0.01 0.00 0.00 0.00 0.00 0.00 0.00 0.00 0.00 0.00 0.00 0.00 0.00 0.00 0.00 0.00 0.00 0.00 0.01 0.04 0.03 0.00 0.04 0.12 0.30 0.11 0.11 0.16 0.38 0.55 0.56
0.04 0.03 0.02 0.03 0.03 0.03 0.02 0.02 0.02 0.01 0.01 0.02 0.02 0.02 0.00 0.00 0.00 0.00 0.00 0.00 0.00 0.00 0.00 0.00 0.00 0.00 0.00 0.00 0.00 0.00 0.00 0.00 0.00 0.01 0.01 0.02 0.05 0.09 0.39 0.12 0.12 0.12 0.32 0.56 0.58
0.03 0.03 0.03 0.03 0.03 0.03 0.02 0.02 0.02 0.01 0.02 0.02 0.02 0.01 0.00 0.00 0.00 0.00 0.00 0.00 0.00 0.00 0.00 0.00 0.00 0.00 0.00 0.00 0.00 0.00 0.00 0.02 0.03 0.01 0.00 0.05 0.19 0.35 0.13 0.08 0.07 0.03 0.04 0.36 0.86
0.04 0.03 0.03 0.02 0.03 0.02 0.02 0.02 0.02 0.02 0.02 0.01 0.02 0.00 0.00 0.00 0.00 0.00 0.00 0.00 0.00 0.00 0.00 0.00 0.00 0.00 0.00 0.00 0.00 0.00 0.00 0.01 0.04 0.03 0.02 0.15 0.48 0.05 0.03 0.05 0.04 0.01 0.01 0.06 0.10
0.04 0.03 0.02 0.02 0.02 0.03 0.02 0.02 0.02 0.02 0.02 0.01 0.00 0.00 0.00 0.00 0.00 0.00 0.00 0.00 0.00 0.00 0.00 0.00 0.00 0.00 0.00 0.00 0.00 0.00 0.00 0.00 0.01 0.01 0.01 0.05 0.33 0.12 0.05 0.09 0.08 0.02 0.01 0.01 0.01
0.03 0.02 0.01 0.02 0.03 0.03 0.02 0.02 0.02 0.01 0.01 0.00 0.00 0.00 0.00 0.00 0.00 0.00 0.00 0.00 0.00 0.00 0.00 0.00 0.00 0.00 0.00 0.00 0.01 0.00 0.00 0.00 0.02 0.02 0.01 0.01 0.03 0.25 0.12 0.05 0.27 0.09 0.04 0.04 0.00
0.03 0.02 0.01 0.02 0.04 0.03 0.01 0.01 0.01 0.00 0.00 0.00 0.00 0.00 0.00 0.00 0.00 0.00 0.00 0.00 0.00 0.00 0.01 0.00 0.00 0.00 0.00 0.00 0.00 0.00 0.00 0.00 0.00 0.01 0.00 0.00 0.01 0.01 0.00 0.00 0.03 0.05 0.07 0.02 0.00
0.03 0.01 0.01 0.04 0.05 0.03 0.00 0.00 0.00 0.00 0.00 0.00 0.00 0.00 0.00 0.00 0.00 0.00 0.00 0.00 0.00 0.01 0.02 0.02 0.01 0.00 0.00 0.00 0.00 0.00 0.00 0.00 0.00 0.00 0.00 0.00 0.00 0.00 0.00 0.00 0.01 0.01 0.11 0.03 0.00
0.03 0.02 0.01 0.03 0.05 0.02 0.00 0.00 0.00 0.00 0.00 0.00 0.00 0.00 0.00 0.00 0.00 0.00 0.00 0.00 0.00 0.03 0.03 0.02 0.01 0.00 0.01 0.00 0.00 0.00 0.00 0.00 0.00 0.00 0.00 0.00 0.00 0.00 0.01 0.01 0.02 0.00 0.00 0.00 0.00
0.04 0.02 0.02 0.05 0.02 0.00 0.00 0.00 0.00 0.00 0.01 0.00 0.00 0.00 0.00 0.00 0.00 0.00 0.00 0.00 0.00 0.02 0.08 0.07 0.00 0.02 0.00 0.00 0.00 0.00 0.00 0.00 0.00 0.00 0.00 0.00 0.00 0.00 0.00 0.01 0.00 0.00 0.00 0.00 0.00
0.05 0.03 0.05 0.06 0.02 0.01 0.00 0.00 0.00 0.01 0.01 0.00 0.00 0.00 0.00 0.00 0.00 0.00 0.00 0.00 0.00 0.01 0.09 0.09 0.03 0.04 0.02 0.00 0.00 0.01 0.00 0.00 0.00 0.00 0.05 0.02 0.00 0.03 0.05 0.02 0.00 0.00 0.00 0.00 0.00
0.08 0.08 0.14 0.08 0.04 0.01 0.00 0.00 0.04 0.07 0.01 0.00 0.00 0.00 0.00 0.00 0.00 0.00 0.00 0.00 0.00 0.01 0.01 0.01 0.02 0.06 0.03 0.00 0.00 0.00 0.02 0.00 0.00 0.01 0.05 0.01 0.01 0.01 0.01 0.02 0.02 0.00 0.00 0.00 0.00
0.12 0.14 0.16 0.06 0.03 0.00 0.01 0.12 0.12 0.04 0.00 0.00 0.00 0.00 0.00 0.00 0.00 0.00 0.00 0.00 0.00 0.00 0.00 0.00 0.01 0.01 0.00 0.00 0.00 0.01 0.08 0.09 0.14 0.09 0.03 0.00 0.01 0.01 0.02 0.05 0.08 0.10 0.00 0.00 0.00
0.13 0.21 0.13 0.04 0.02 0.05 0.17 0.31 0.09 0.00 0.00 0.00 0.00 0.00 0.00 0.00 0.00 0.00 0.00 0.00 0.00 0.00 0.01 0.02 0.03 0.00 0.00 0.00 0.01 0.01 0.04 0.12 0.26 0.15 0.06 0.11 0.04 0.02 0.00 0.01 0.00 0.00 0.00 0.00 0.00
0.36 0.28 0.20 0.07 0.02 0.09 0.39 0.32 0.04 0.00 0.00 0.00 0.00 0.00 0.00 0.00 0.00 0.00 0.00 0.00 0.02 0.01 0.05 0.08 0.05 0.02 0.00 0.00 0.02 0.08 0.09 0.05 0.31 0.20 0.11 0.11 0.04 0.10 0.05 0.00 0.00 0.00 0.00 0.00 0.00
0.48 0.46 0.17 0.06 0.14 0.40 0.79 0.23 0.00 0.01 0.00 0.00 0.00 0.00 0.01 0.01 0.00 0.00 0.01 0.03 0.04 0.00 0.00 0.05 0.13 0.03 0.02 0.03 0.01 0.06 0.10 0.31 0.46 0.28 0.15 0.01 0.03 0.15 0.26 0.03 0.00 0.00 0.00 0.00 0.00
0.90 0.86 0.19 0.10 0.63 0.92 0.67 0.12 0.00 0.00 0.00 0.00 0.00 0.03 0.04 0.04 0.03 0.02 0.07 0.14 0.03 0.02 0.00 0.02 0.10 0.11 0.12 0.12 0.05 0.06 0.25 0.28 0.27 0.10 0.16 0.11 0.27 0.42 0.16 0.12 0.02 0.00 0.00 0.01 0.00
1.48 1.05 0.28 0.28 1.00 0.64 0.22 0.04 0.00 0.00 0.00 0.00 0.00 0.01 0.06 0.06 0.05 0.10 0.07 0.16 0.11 0.08 0.06 0.10 0.12 0.05 0.07 0.06 0.04 0.11 0.12 0.27 0.48 0.30 0.15 0.16 0.38 0.64 0.28 0.12 0.03 0.00 0.00 0.02 0.02
1.88 1.03 0.92 0.65 0.94 0.31 0.15 0.05 0.02 0.00 0.00 0.00 0.00 0.00 0.02 0.06 0.10 0.10 0.12 0.09 0.14 0.24 0.25 0.17 0.16 0.13 0.11 0.16 0.13 0.13 0.15 0.18 0.25 0.50 0.37 0.35 0.32 0.57 0.33 0.19 0.06 0.02 0.02 0.03 0.04
2.30 1.60 1.89 1.28 0.34 0.33 0.37 0.23 0.06 0.02 0.00 0.00 0.00 0.00 0.02 0.04 0.09 0.12 0.16 0.13 0.12 0.16 0.27 0.33 0.14 0.08 0.10 0.16 0.19 0.18 0.09 0.14 0.46 0.82 0.39 0.19 0.10 0.67 0.71 0.45 0.16 0.08 0.06 0.06 0.07
3.23 1.15 0.75 0.80 0.33 0.17 0.25 0.31 0.21 0.14 0.03 0.01 0.03 0.10 0.08 0.06 0.07 0.08 0.14 0.21 0.14 0.23 0.40 0.45 0.32 0.11 0.06 0.05 0.12 0.13 0.13 0.13 0.29 0.28 0.32 0.08 0.06 0.24 0.56 0.76 0.58 0.25 0.12 0.10 0.11
3.39 0.64 0.32 0.22 0.23 0.26 0.18 0.09 0.06 0.14 0.22 0.09 0.10 0.07 0.04 0.07 0.04 0.11 0.15 0.16 0.24 0.29 0.48 0.45 0.57 0.34 0.11 0.02 0.07 0.13 0.05 0.08 0.11 0.10 0.10 0.06 0.13 0.19 0.40 0.45 0.67 0.52 0.31 0.18 0.15
2.89 0.53 0.53 0.36 0.17 0.43 0.44 0.17 0.07 0.12 0.15 0.05 0.11 0.12 0.05 0.05 0.14 0.13 0.19 0.18 0.23 0.27 0.53 0.34 0.46 0.38 0.44 0.06 0.05 0.06 0.01 0.01 0.04 0.10 0.10 0.14 0.16 0.15 0.32 0.44 0.39 0.54 0.48 0.47 0.27

GFSSW_prec_precacc_093.txt.gz
Total_Precipitation_Accumulation
0.03 0.02 0.02 0.03 0.02 0.02 0.03 0.02 0.02 0.02 0.02 0.02 0.02 0.02 0.02 0.02 0.00 0.00 0.00 0.00 0.00 0.00 0.00 0.00 0.00 0.00 0.00 0.00 0.00 0.00 0.00 0.00 0.00 0.01 0.15 0.23 0.08 0.24 0.13 0.11 0.27 0.31 0.50 0.60 0.85
0.04 0.04 0.04 0.03 0.03 0.03 0.02 0.02 0.02 0.02 0.03 0.03 0.01 0.02 0.02 0.02 0.00 0.00 0.00 0.00 0.00 0.00 0.00 0.00 0.00 0.00 0.00 0.00 0.00 0.00 0.00 0.00 0.00 0.06 0.24 0.13 0.03 0.19 0.09 0.19 0.54 0.38 0.72 0.66 0.43
0.03 0.03 0.03 0.03 0.03 0.03 0.02 0.03 0.02 0.02 0.02 0.01 0.01 0.02 0.02 0.01 0.00 0.00 0.00 0.00 0.00 0.00 0.00 0.00 0.00 0.00 0.00 0.00 0.00 0.00 0.00 0.00 0.02 0.11 0.04 0.02 0.07 0.10 0.32 0.45 0.52 1.13 0.48 0.41 0.49
0.03 0.02 0.03 0.04 0.03 0.03 0.02 0.02 0.02 0.02 0.02 0.01 0.01 0.02 0.02 0.00 0.00 0.00 0.00 0.00 0.00 0.00 0.00 0.00 0.00 0.00 0.00 0.00 0.00 0.00 0.00 0.00 0.01 0.01 0.01 0.00 0.01 0.11 0.35 0.80 0.30 0.32 0.38 0.47 0.75
0.03 0.03 0.03 0.03 0.03 0.03 0.03 0.02 0.02 0.02 0.01 0.01 0.01 0.02 0.01 0.00 0.00 0.00 0.00 0.00 0.00 0.00 0.00 0.00 0.00 0.00 0.00 0.00 0.00 0.00 0.00 0.00 0.01 0.04 0.03 0.00 0.04 0.12 0.30 0.11 0.11 0.16 0.38 0.55 0.56
0.04 0.03 0.02 0.03 0.03 0.03 0.02 0.02 0.02 0.01 0.01 0.02 0.02 0.02 0.00 0.00 0.00 0.00 0.00 0.00 0.00 0.00 0.00 0.00 0.00 0.00 0.00 0.00 0.00 0.00 0.00 0.00 0.00 0.01 0.01 0.02 0.05 0.09 0.39 0.12 0.12 0.12 0.32 0.56 0.58
0.03 0.03 0.03 0.03 0.03 0.03 0.02 0.02 0.02 0.01 0.02 0.02 0.02 0.01 0.00 0.00 0.00 0.00 0.00 0.00 0.00 0.00 0.00 0.00 0.00 0.00 0.00 0.00 0.00 0.00 0.00 0.02 0.03 0.01 0.00 0.05 0.19 0.35 0.13 0.08 0.07 0.03 0.04 0.36 0.86
0.04 0.03 0.03 0.02 0.03 0.02 0.02 0.02 0.02 0.02 0.02 0.01 0.02 0.00 0.00 0.00 0.00 0.00 0.00 0.00 0.00 0.00 0.00 0.00 0.00 0.00 0.00 0.00 0.00 0.00 0.00 0.01 0.04 0.03 0.02 0.15 0.48 0.05 0.03 0.05 0.04 0.01 0.01 0.06 0.10
0.04 0.03 0.02 0.02 0.02 0.03 0.02 0.02 0.02 0.02 0.02 0.01 0.00 0.00 0.00 0.00 0.00 0.00 0.00 0.00 0.00 0.00 0.00 0.00 0.00 0.00 0.00 0.00 0.00 0.00 0.00 0.00 0.01 0.01 0.01 0.05 0.33 0.12 0.05 0.09 0.08 0.02 0.01 0.01 0.01
0.03 0.02 0.01 0.02 0.03 0.03 0.02 0.02 0.02 0.01 0.01 0.00 0.00 0.00 0.00 0.00 0.00 0.00 0.00 0.00 0.00 0.00 0.00 0.00 0.00 0.00 0.00 0.00 0.01 0.00 0.00 0.00 0.02 0.02 0.01 0.01 0.03 0.25 0.12 0.05 0.27 0.09 0.04 0.04 0.00
0.03 0.02 0.01 0.02 0.04 0.03 0.01 0.01 0.01 0.00 0.00 0.00 0.00 0.00 0.00 0.00 0.00 0.00 0.00 0.00 0.00 0.00 0.01 0.00 0.00 0.00 0.00 0.00 0.00 0.00 0.00 0.00 0.00 0.01 0.00 0.00 0.01 0.01 0.00 0.00 0.03 0.05 0.07 0.02 0.00
0.03 0.01 0.01 0.04 0.05 0.03 0.00 0.00 0.00 0.00 0.00 0.00 0.00 0.00 0.00 0.00 0.00 0.00 0.00 0.00 0.00 0.01 0.02 0.02 0.01 0.00 0.00 0.00 0.00 0.00 0.00 0.00 0.00 0.00 0.00 0.00 0.00 0.00 0.00 0.00 0.01 0.01 0.11 0.03 0.00
0.03 0.02 0.01 0.03 0.05 0.02 0.00 0.00 0.00 0.00 0.00 0.00 0.00 0.00 0.00 0.00 0.00 0.00 0.00 0.00 0.00 0.03 0.03 0.02 0.01 0.00 0.01 0.00 0.00 0.00 0.00 0.00 0.00 0.00 0.00 0.00 0.00 0.00 0.01 0.01 0.02 0.00 0.00 0.00 0.00
0.04 0.02 0.02 0.05 0.02 0.00 0.00 0.00 0.00 0.00 0.01 0.00 0.00 0.00 0.00 0.00 0.00 0.00 0.00 0.00 0.00 0.02 0.08 0.07 0.00 0.02 0.00 0.00 0.00 0.00 0.00 0.00 0.00 0.00 0.00 0.00 0.00 0.00 0.00 0.01 0.00 0.00 0.00 0.00 0.00
0.05 0.03 0.05 0.06 0.02 0.01 0.00 0.00 0.00 0.01 0.01 0.00 0.00 0.00 0.00 0.00 0.00 0.00 0.00 0.00 0.00 0.01 0.09 0.09 0.03 0.04 0.02 0.00 0.00 0.01 0.00 0.00 0.00 0.00 0.05 0.02 0.00 0.03 0.05 0.02 0.00 0.01 0.00 0.00 0.00
0.08 0.08 0.14 0.08 0.04 0.01 0.00 0.00 0.04 0.07 0.01 0.00 0.00 0.00 0.00 0.00 0.00 0.00 0.00 0.00 0.00 0.01 0.01 0.01 0.02 0.06 0.03 0.00 0.00 0.00 0.02 0.00 0.00 0.01 0.05 0.01 0.01 0.01 0.01 0.02 0.03 0.05 0.03 0.01 0.00
0.13 0.14 0.16 0.06 0.03 0.00 0.01 0.12 0.12 0.04 0.00 0.00 0.00 0.00 0.00 0.00 0.00 0.00 0.00 0.00 0.00 0.00 0.00 0.00 0.01 0.01 0.00 0.00 0.00 0.01 0.08 0.10 0.14 0.09 0.03 0.00 0.01 0.01 0.02 0.07 0.14 0.16 0.02 0.02 0.00
0.13 0.21 0.13 0.04 0.02 0.05 0.17 0.31 0.09 0.00 0.00 0.00 0.00 0.00 0.00 0.00 0.00 0.00 0.00 0.00 0.00 0.00 0.01 0.02 0.03 0.00 0.00 0.00 0.01 0.01 0.05 0.13 0.26 0.16 0.06 0.13 0.06 0.03 0.07 0.09 0.05 0.01 0.01 0.00 0.00
0.36 0.28 0.20 0.07 0.02 0.09 0.39 0.32 0.04 0.00 0.00 0.00 0.00 0.00 0.00 0.00 0.00 0.00 0.00 0.00 0.02 0.01 0.05 0.08 0.05 0.02 0.01 0.01 0.02 0.08 0.10 0.07 0.35 0.21 0.11 0.11 0.04 0.11 0.35 0.33 0.25 0.01 0.00 0.00 0.00
0.48 0.46 0.17 0.06 0.14 0.40 0.79 0.23 0.00 0.01 0.00 0.00 0.00 0.00 0.01 0.01 0.00 0.00 0.01 0.03 0.05 0.00 0.00 0.05 0.13 0.03 0.02 0.04 0.01 0.06 0.11 0.36 0.52 0.32 0.15 0.01 0.03 0.17 0.34 0.41 0.23 0.01 0.00 0.00 0.00
0.90 0.86 0.19 0.10 0.63 0.92 0.67 0.12 0.00 0.00 0.00 0.00 0.00 0.03 0.04 0.04 0.03 0.02 0.07 0.14 0.03 0.02 0.00 0.02 0.11 0.11 0.12 0.13 0.07 0.09 0.26 0.30 0.31 0.12 0.17 0.13 0.32 0.53 0.47 0.52 0.18 0.01 0.00 0.01 0.00
1.48 1.05 0.28 0.28 1.00 0.64 0.22 0.04 0.00 0.00 0.00 0.00 0.00 0.01 0.06 0.06 0.05 0.10 0.07 0.16 0.11 0.08 0.06 0.10 0.12 0.05 0.07 0.06 0.06 0.16 0.22 0.32 0.51 0.32 0.16 0.17 0.41 0.83 0.63 0.26 0.32 0.02 0.00 0.02 0.02
1.88 1.03 0.92 0.65 0.94 0.31 0.15 0.05 0.02 0.00 0.00 0.00 0.00 0.00 0.02 0.06 0.10 0.10 0.12 0.09 0.14 0.24 0.27 0.17 0.16 0.13 0.11 0.16 0.14 0.20 0.28 0.31 0.32 0.54 0.40 0.39 0.47 0.78 0.40 0.35 0.11 0.02 0.02 0.03 0.04
2.30 1.60 1.89 1.28 0.34 0.33 0.37 0.23 0.06 0.02 0.00 0.00 0.00 0.00 0.02 0.04 0.09 0.12 0.16 0.13 0.12 0.17 0.27 0.34 0.14 0.08 0.10 0.16 0.20 0.20 0.14 0.23 0.60 0.93 0.51 0.25 0.23 0.86 0.84 0.71 0.27 0.08 0.06 0.06 0.07
3.23 1.15 0.75 0.80 0.33 0.17 0.25 0.31 0.21 0.14 0.03 0.01 0.03 0.10 0.08 0.06 0.07 0.08 0.14 0.21 0.14 0.24 0.40 0.45 0.32 0.11 0.06 0.05 0.12 0.13 0.19 0.25 0.41 0.35 0.42 0.32 0.26 0.32 0.57 0.77 0.58 0.25 0.12 0.10 0.11
3.39 0.64 0.32 0.22 0.23 0.26 0.18 0.09 0.06 0.14 0.22 0.09 0.10 0.07 0.04 0.07 0.04 0.11 0.15 0.16 0.24 0.29 0.50 0.48 0.59 0.34 0.11 0.02 0.07 0.13 0.09 0.18 0.27 0.25 0.20 0.12 0.27 0.24 0.40 0.45 0.67 0.52 0.31 0.18 0.15
2.89 0.53 0.53 0.36 0.17 0.43 0.44 0.17 0.07 0.12 0.15 0.05 0.11 0.12 0.05 0.05 0.14 0.13 0.19 0.18 0.23 0.27 0.53 0.35 0.46 0.39 0.44 0.06 0.06 0.12 0.09 0.06 0.10 0.24 0.19 0.19 0.19 0.15 0.32 0.44 0.39 0.54 0.48 0.47 0.27

GFSSW_prec_precacc_096.txt.gz
Total_Precipitation_Accumulation
0.03 0.02 0.02 0.03 0.02 0.02 0.03 0.02 0.02 0.02 0.02 0.02 0.02 0.02 0.02 0.02 0.00 0.00 0.00 0.00 0.00 0.00 0.00 0.00 0.00 0.00 0.00 0.00 0.00 0.00 0.00 0.00 0.00 0.01 0.15 0.23 0.08 0.24 0.13 0.11 0.27 0.31 0.50 0.60 0.85
0.04 0.04 0.04 0.03 0.03 0.03 0.02 0.02 0.02 0.02 0.03 0.03 0.01 0.02 0.02 0.02 0.00 0.00 0.00 0.00 0.00 0.00 0.00 0.00 0.00 0.00 0.00 0.00 0.00 0.00 0.00 0.00 0.00 0.06 0.24 0.13 0.03 0.19 0.09 0.19 0.54 0.38 0.72 0.66 0.43
0.03 0.03 0.03 0.03 0.03 0.03 0.02 0.03 0.02 0.02 0.02 0.01 0.01 0.02 0.02 0.01 0.00 0.00 0.00 0.00 0.00 0.00 0.00 0.00 0.00 0.00 0.00 0.00 0.00 0.00 0.00 0.00 0.02 0.11 0.04 0.02 0.07 0.10 0.32 0.45 0.52 1.13 0.48 0.41 0.49
0.03 0.02 0.03 0.04 0.03 0.03 0.02 0.02 0.02 0.02 0.02 0.01 0.01 0.02 0.02 0.00 0.00 0.00 0.00 0.00 0.00 0.00 0.00 0.00 0.00 0.00 0.00 0.00 0.00 0.00 0.00 0.00 0.01 0.01 0.01 0.00 0.01 0.11 0.35 0.80 0.30 0.32 0.38 0.47 0.75
0.03 0.03 0.03 0.03 0.03 0.03 0.03 0.02 0.02 0.02 0.01 0.01 0.01 0.02 0.01 0.00 0.00 0.00 0.00 0.00 0.00 0.00 0.00 0.00 0.00 0.00 0.00 0.00 0.00 0.00 0.00 0.00 0.01 0.04 0.03 0.00 0.04 0.12 0.30 0.11 0.11 0.16 0.38 0.55 0.56
0.04 0.03 0.02 0.03 0.03 0.03 0.02 0.02 0.02 0.01 0.01 0.02 0.02 0.02 0.00 0.00 0.00 0.00 0.00 0.00 0.00 0.00 0.00 0.00 0.00 0.00 0.00 0.00 0.00 0.00 0.00 0.00 0.00 0.01 0.01 0.02 0.05 0.09 0.39 0.12 0.12 0.12 0.32 0.56 0.58
0.03 0.03 0.03 0.03 0.03 0.03 0.02 0.02 0.02 0.01 0.02 0.02 0.02 0.01 0.00 0.00 0.00 0.00 0.00 0.00 0.00 0.00 0.00 0.00 0.00 0.00 0.00 0.00 0.00 0.00 0.00 0.02 0.03 0.01 0.00 0.05 0.19 0.35 0.13 0.08 0.07 0.03 0.04 0.36 0.86
0.04 0.03 0.03 0.02 0.03 0.02 0.02 0.02 0.02 0.02 0.02 0.01 0.02 0.00 0.00 0.00 0.00 0.00 0.00 0.00 0.00 0.00 0.00 0.00 0.00 0.00 0.00 0.00 0.00 0.00 0.00 0.01 0.04 0.03 0.02 0.15 0.48 0.05 0.03 0.05 0.04 0.01 0.01 0.06 0.10
0.05 0.03 0.02 0.02 0.02 0.03 0.02 0.02 0.02 0.02 0.02 0.01 0.00 0.00 0.00 0.00 0.00 0.00 0.00 0.00 0.00 0.00 0.00 0.00 0.00 0.00 0.00 0.00 0.00 0.00 0.00 0.00 0.01 0.01 0.01 0.05 0.33 0.12 0.05 0.09 0.08 0.02 0.01 0.01 0.01
0.05 0.02 0.01 0.02 0.03 0.03 0.02 0.02 0.02 0.01 0.01 0.00 0.00 0.00 0.00 0.00 0.00 0.00 0.00 0.00 0.00 0.00 0.00 0.00 0.00 0.00 0.00 0.00 0.01 0.00 0.00 0.00 0.02 0.02 0.01 0.01 0.03 0.25 0.12 0.05 0.27 0.09 0.04 0.04 0.00
0.03 0.02 0.01 0.02 0.04 0.03 0.01 0.01 0.01 0.00 0.00 0.00 0.00 0.00 0.00 0.00 0.00 0.00 0.00 0.00 0.00 0.00 0.01 0.00 0.00 0.00 0.00 0.00 0.00 0.00 0.00 0.00 0.00 0.01 0.00 0.00 0.01 0.01 0.00 0.00 0.03 0.05 0.07 0.02 0.00
0.03 0.01 0.01 0.04 0.05 0.03 0.00 0.00 0.00 0.00 0.00 0.00 0.00 0.00 0.00 0.00 0.00 0.00 0.00 0.00 0.00 0.01 0.02 0.02 0.01 0.00 0.00 0.00 0.00 0.00 0.00 0.00 0.00 0.00 0.00 0.00 0.00 0.00 0.00 0.00 0.01 0.01 0.11 0.03 0.00
0.03 0.02 0.01 0.03 0.05 0.02 0.00 0.00 0.00 0.00 0.00 0.00 0.00 0.00 0.00 0.00 0.00 0.00 0.00 0.00 0.00 0.03 0.03 0.02 0.01 0.00 0.01 0.00 0.00 0.00 0.00 0.00 0.00 0.00 0.00 0.00 0.00 0.00 0.01 0.01 0.02 0.00 0.00 0.00 0.00
0.04 0.02 0.02 0.05 0.02 0.00 0.00 0.00 0.00 0.00 0.01 0.00 0.00 0.00 0.00 0.00 0.00 0.00 0.00 0.00 0.00 0.02 0.08 0.07 0.00 0.02 0.00 0.00 0.00 0.00 0.00 0.00 0.00 0.00 0.00 0.00 0.00 0.00 0.00 0.01 0.00 0.00 0.00 0.00 0.00
0.06 0.03 0.05 0.06 0.02 0.01 0.00 0.00 0.00 0.01 0.01 0.00 0.00 0.00 0.00 0.00 0.00 0.00 0.00 0.00 0.00 0.01 0.09 0.09 0.03 0.04 0.02 0.00 0.00 0.01 0.00 0.00 0.00 0.00 0.05 0.02 0.00 0.03 0.05 0.02 0.00 0.01 0.01 0.01 0.01
0.08 0.08 0.14 0.08 0.04 0.01 0.00 0.00 0.04 0.07 0.01 0.00 0.00 0.00 0.00 0.00 0.00 0.00 0.00 0.00 0.00 0.01 0.01 0.01 0.02 0.06 0.03 0.00 0.00 0.00 0.02 0.00 0.00 0.01 0.05 0.01 0.01 0.01 0.01 0.02 0.04 0.09 0.09 0.06 0.05
0.13 0.15 0.16 0.06 0.03 0.00 0.01 0.12 0.12 0.04 0.00 0.00 0.00 0.00 0.00 0.00 0.00 0.00 0.00 0.00 0.00 0.00 0.00 0.00 0.01 0.01 0.00 0.00 0.00 0.01 0.08 0.10 0.14 0.09 0.03 0.00 0.01 0.01 0.02 0.08 0.17 0.21 0.06 0.05 0.03
0.13 0.22 0.13 0.04 0.02 0.05 0.17 0.31 0.09 0.00 0.00 0.00 0.00 0.00 0.00 0.00 0.00 0.00 0.00 0.00 0.00 0.00 0.01 0.02 0.03 0.00 0.00 0.00 0.01 0.01 0.05 0.13 0.27 0.16 0.06 0.13 0.06 0.03 0.09 0.13 0.12 0.05 0.04 0.02 0.02
0.36 0.28 0.20 0.07 0.02 0.09 0.39 0.32 0.04 0.00 0.00 0.00 0.00 0.00 0.00 0.00 0.00 0.00 0.00 0.00 0.02 0.01 0.05 0.08 0.05 0.02 0.01 0.01 0.02 0.08 0.10 0.07 0.38 0.25 0.15 0.11 0.04 0.11 0.35 0.34 0.51 0.52 0.22 0.06 0.00
0.49 0.46 0.17 0.06 0.14 0.40 0.79 0.23 0.00 0.01 0.00 0.00 0.00 0.00 0.01 0.01 0.00 0.00 0.01 0.03 0.05 0.00 0.00 0.05 0.13 0.03 0.02 0.04 0.01 0.06 0.12 0.37 0.55 0.37 0.19 0.01 0.04 0.20 0.35 0.47 0.58 0.45 0.16 0.02 0.00
0.90 0.86 0.19 0.10 0.63 0.92 0.67 0.12 0.00 0.00 0.00 0.00 0.00 0.03 0.04 0.04 0.03 0.02 0.07 0.14 0.03 0.02 0.00 0.02 0.11 0.11 0.12 0.13 0.07 0.10 0.29 0.32 0.33 0.14 0.19 0.13 0.35 0.67 0.52 0.78 0.57 0.09 0.01 0.01 0.00
1.48 1.05 0.28 0.28 1.00 0.64 0.22 0.04 0.00 0.00 0.00 0.00 0.00 0.01 0.06 0.06 0.05 0.10 0.07 0.16 0.11 0.08 0.06 0.10 0.12 0.05 0.07 0.06 0.06 0.16 0.24 0.41 0.72 0.40 0.18 0.20 0.43 0.84 0.66 0.35 0.61 0.07 0.01 0.02 0.02
1.88 1.03 0.92 0.65 0.94 0.31 0.15 0.05 0.02 0.00 0.00 0.00 0.00 0.00 0.02 0.06 0.10 0.10 0.12 0.09 0.14 0.24 0.27 0.17 0.16 0.13 0.11 0.17 0.15 0.20 0.30 0.41 0.54 0.66 0.43 0.41 0.50 0.86 0.65 0.58 0.54 0.13 0.02 0.03 0.04
2.30 1.60 1.89 1.28 0.34 0.33 0.37 0.23 0.06 0.02 0.00 0.00 0.00 0.00 0.02 0.04 0.09 0.12 0.16 0.13 0.12 0.17 0.27 0.34 0.14 0.08 0.10 0.16 0.21 0.20 0.14 0.24 0.73 1.08 0.55 0.28 0.36 1.07 1.16 0.94 0.42 0.09 0.06 0.06 0.07
3.23 1.15 0.75 0.80 0.33 0.17 0.25 0.31 0.21 0.14 0.03 0.01 0.03 0.10 0.08 0.06 0.07 0.08 0.14 0.21 0.14 0.24 0.41 0.45 0.32 0.11 0.06 0.05 0.12 0.13 0.19 0.25 0.44 0.43 0.57 0.41 0.51 0.63 0.66 0.79 0.58 0.25 0.12 0.10 0.11
3.39 0.64 0.32 0.22 0.23 0.26 0.18 0.09 0.06 0.14 0.22 0.09 0.10 0.07 0.04 0.07 0.04 0.11 0.15 0.16 0.24 0.29 0.50 0.48 0.59 0.35 0.11 0.02 0.07 0.13 0.09 0.18 0.29 0.36 0.37 0.24 0.42 0.34 0.41 0.46 0.67 0.52 0.31 0.18 0.15
2.89 0.53 0.53 0.36 0.17 0.43 0.44 0.17 0.07 0.12 0.15 0.05 0.11 0.12 0.05 0.05 0.14 0.13 0.19 0.18 0.23 0.27 0.53 0.35 0.46 0.39 0.45 0.06 0.06 0.12 0.09 0.06 0.17 0.52 0.44 0.52 0.31 0.16 0.32 0.44 0.40 0.54 0.48 0.47 0.28

GFSSW_prec_precacc_099.txt.gz
Total_Precipitation_Accumulation
0.03 0.02 0.02 0.03 0.02 0.02 0.03 0.02 0.02 0.02 0.02 0.02 0.02 0.02 0.02 0.02 0.00 0.00 0.00 0.00 0.00 0.00 0.00 0.00 0.00 0.00 0.00 0.00 0.00 0.00 0.00 0.00 0.00 0.01 0.15 0.23 0.08 0.24 0.13 0.11 0.27 0.31 0.50 0.60 0.85
0.04 0.04 0.04 0.03 0.03 0.03 0.02 0.02 0.02 0.02 0.03 0.03 0.01 0.02 0.02 0.02 0.00 0.00 0.00 0.00 0.00 0.00 0.00 0.00 0.00 0.00 0.00 0.00 0.00 0.00 0.00 0.00 0.00 0.06 0.24 0.13 0.03 0.19 0.09 0.19 0.54 0.38 0.72 0.66 0.43
0.03 0.03 0.03 0.03 0.03 0.03 0.02 0.03 0.02 0.02 0.02 0.01 0.01 0.02 0.02 0.01 0.00 0.00 0.00 0.00 0.00 0.00 0.00 0.00 0.00 0.00 0.00 0.00 0.00 0.00 0.00 0.00 0.02 0.11 0.04 0.02 0.07 0.10 0.32 0.45 0.52 1.13 0.48 0.41 0.49
0.03 0.02 0.03 0.04 0.03 0.03 0.02 0.02 0.02 0.02 0.02 0.01 0.01 0.02 0.02 0.00 0.00 0.00 0.00 0.00 0.00 0.00 0.00 0.00 0.00 0.00 0.00 0.00 0.00 0.00 0.00 0.00 0.01 0.01 0.01 0.00 0.01 0.11 0.35 0.80 0.30 0.32 0.38 0.47 0.75
0.03 0.03 0.03 0.03 0.03 0.03 0.03 0.02 0.02 0.02 0.01 0.01 0.01 0.02 0.01 0.00 0.00 0.00 0.00 0.00 0.00 0.00 0.00 0.00 0.00 0.00 0.00 0.00 0.00 0.00 0.00 0.00 0.01 0.04 0.03 0.00 0.04 0.12 0.30 0.11 0.11 0.16 0.38 0.55 0.56
0.04 0.03 0.02 0.03 0.03 0.03 0.02 0.02 0.02 0.01 0.01 0.02 0.02 0.02 0.00 0.00 0.00 0.00 0.00 0.00 0.00 0.00 0.00 0.00 0.00 0.00 0.00 0.00 0.00 0.00 0.00 0.00 0.00 0.01 0.01 0.02 0.05 0.09 0.39 0.12 0.12 0.12 0.32 0.56 0.58
0.04 0.03 0.03 0.03 0.03 0.03 0.02 0.02 0.02 0.01 0.02 0.02 0.02 0.01 0.00 0.00 0.00 0.00 0.00 0.00 0.00 0.00 0.00 0.00 0.00 0.00 0.00 0.00 0.00 0.00 0.00 0.02 0.03 0.01 0.00 0.05 0.19 0.35 0.13 0.08 0.07 0.03 0.04 0.36 0.86
0.08 0.05 0.03 0.02 0.03 0.02 0.02 0.02 0.02 0.02 0.02 0.01 0.02 0.00 0.00 0.00 0.00 0.00 0.00 0.00 0.00 0.00 0.00 0.00 0.00 0.00 0.00 0.00 0.00 0.00 0.00 0.01 0.04 0.03 0.02 0.15 0.48 0.05 0.03 0.05 0.04 0.01 0.01 0.06 0.10
0.09 0.06 0.03 0.03 0.02 0.03 0.02 0.02 0.02 0.02 0.02 0.01 0.01 0.00 0.00 0.00 0.00 0.00 0.00 0.00 0.00 0.00 0.00 0.00 0.00 0.00 0.00 0.00 0.00 0.00 0.00 0.00 0.01 0.01 0.01 0.05 0.33 0.12 0.05 0.09 0.08 0.02 0.01 0.01 0.01
0.08 0.06 0.03 0.03 0.03 0.03 0.02 0.02 0.02 0.01 0.01 0.00 0.00 0.00 0.00 0.00 0.00 0.00 0.00 0.00 0.00 0.00 0.00 0.00 0.00 0.00 0.00 0.00 0.01 0.00 0.00 0.00 0.02 0.02 0.01 0.01 0.03 0.25 0.12 0.05 0.27 0.09 0.04 0.04 0.00
0.06 0.04 0.03 0.03 0.04 0.03 0.01 0.01 0.01 0.00 0.00 0.00 0.00 0.00 0.00 0.00 0.00 0.00 0.00 0.00 0.00 0.00 0.01 0.00 0.00 0.00 0.00 0.00 0.00 0.00 0.00 0.00 0.00 0.01 0.00 0.00 0.01 0.01 0.00 0.00 0.03 0.05 0.07 0.02 0.00
0.06 0.03 0.03 0.04 0.05 0.03 0.00 0.00 0.00 0.00 0.00 0.00 0.00 0.00 0.00 0.00 0.00 0.00 0.00 0.00 0.00 0.01 0.02 0.02 0.01 0.00 0.00 0.00 0.00 0.00 0.00 0.00 0.00 0.00 0.00 0.00 0.00 0.00 0.00 0.00 0.01 0.01 0.11 0.03 0.00
0.05 0.03 0.02 0.03 0.05 0.02 0.00 0.00 0.00 0.00 0.00 0.00 0.00 0.00 0.00 0.00 0.00 0.00 0.00 0.00 0.00 0.03 0.03 0.02 0.01 0.00 0.01 0.00 0.00 0.00 0.00 0.00 0.00 0.00 0.00 0.00 0.00 0.00 0.01 0.01 0.02 0.00 0.00 0.00 0.00
0.05 0.02 0.02 0.05 0.02 0.00 0.00 0.00 0.00 0.00 0.01 0.00 0.00 0.00 0.00 0.00 0.00 0.00 0.00 0.00 0.00 0.02 0.08 0.07 0.00 0.02 0.00 0.00 0.00 0.00 0.00 0.00 0.00 0.00 0.00 0.00 0.00 0.00 0.00 0.01 0.00 0.00 0.00 0.00 0.00
0.07 0.04 0.06 0.06 0.02 0.01 0.00 0.00 0.00 0.01 0.01 0.00 0.00 0.00 0.00 0.00 0.00 0.00 0.00 0.00 0.00 0.01 0.09 0.09 0.03 0.04 0.02 0.00 0.00 0.01 0.00 0.00 0.00 0.00 0.05 0.02 0.00 0.03 0.05 0.02 0.00 0.01 0.02 0.01 0.01
0.11 0.10 0.14 0.08 0.04 0.01 0.00 0.00 0.04 0.07 0.01 0.00 0.00 0.00 0.00 0.00 0.00 0.00 0.00 0.00 0.00 0.01 0.01 0.01 0.02 0.06 0.03 0.00 0.00 0.00 0.02 0.00 0.00 0.01 0.05 0.01 0.01 0.01 0.01 0.02 0.04 0.10 0.09 0.07 0.07
0.14 0.16 0.16 0.06 0.03 0.00 0.01 0.12 0.12 0.04 0.00 0.00 0.00 0.00 0.00 0.00 0.00 0.00 0.00 0.00 0.00 0.00 0.00 0.00 0.01 0.01 0.00 0.00 0.00 0.01 0.08 0.10 0.14 0.09 0.03 0.00 0.01 0.01 0.02 0.09 0.17 0.22 0.07 0.05 0.04
0.13 0.22 0.13 0.04 0.02 0.05 0.17 0.31 0.10 0.00 0.00 0.00 0.00 0.00 0.00 0.00 0.00 0.00 0.00 0.00 0.00 0.00 0.01 0.02 0.03 0.00 0.00 0.00 0.01 0.01 0.05 0.13 0.27 0.16 0.06 0.13 0.06 0.03 0.10 0.14 0.12 0.05 0.04 0.03 0.04
0.36 0.28 0.20 0.07 0.02 0.09 0.39 0.33 0.04 0.01 0.00 0.00 0.00 0.00 0.00 0.00 0.00 0.00 0.00 0.00 0.02 0.01 0.05 0.08 0.05 0.02 0.01 0.01 0.02 0.08 0.10 0.07 0.38 0.25 0.15 0.11 0.04 0.11 0.36 0.34 0.51 0.52 0.24 0.17 0.07
0.49 0.47 0.18 0.06 0.14 0.40 0.79 0.23 0.00 0.01 0.00 0.00 0.00 0.00 0.01 0.01 0.00 0.00 0.01 0.03 0.05 0.00 0.00 0.05 0.13 0.03 0.02 0.04 0.01 0.06 0.12 0.38 0.56 0.39 0.19 0.01 0.04 0.21 0.36 0.47 0.59 0.50 0.31 0.15 0.08
0.92 0.89 0.20 0.10 0.63 0.93 0.68 0.12 0.00 0.00 0.00 0.00 0.00 0.03 0.04 0.04 0.03 0.02 0.07 0.14 0.03 0.02 0.00 0.02 0.11 0.11 0.12 0.13 0.07 0.10 0.29 0.33 0.38 0.18 0.22 0.14 0.35 0.67 0.53 0.78 0.61 0.16 0.12 0.09 0.03
1.48 1.05 0.28 0.28 1.00 0.65 0.22 0.04 0.00 0.00 0.00 0.00 0.00 0.01 0.06 0.06 0.05 0.10 0.07 0.16 0.11 0.08 0.06 0.10 0.12 0.05 0.07 0.06 0.06 0.16 0.24 0.42 0.75 0.48 0.26 0.25 0.45 0.84 0.67 0.35 0.67 0.29 0.15 0.03 0.02
1.88 1.03 0.92 0.65 0.94 0.31 0.15 0.05 0.02 0.00 0.00 0.00 0.00 0.00 0.02 0.06 0.10 0.10 0.12 0.09 0.14 0.24 0.27 0.17 0.16 0.13 0.11 0.17 0.15 0.20 0.30 0.42 0.55 0.69 0.47 0.49 0.54 0.86 0.66 0.68 0.90 0.41 0.04 0.03 0.04
2.30 1.60 1.89 1.28 0.34 0.33 0.37 0.23 0.06 0.02 0.00 0.00 0.00 0.00 0.02 0.04 0.09 0.12 0.16 0.13 0.12 0.17 0.27 0.34 0.14 0.08 0.10 0.16 0.21 0.20 0.14 0.24 0.73 1.09 0.56 0.29 0.38 1.13 1.25 1.12 0.53 0.14 0.06 0.06 0.07
3.23 1.15 0.75 0.80 0.33 0.17 0.25 0.31 0.21 0.14 0.03 0.01 0.03 0.10 0.08 0.06 0.07 0.08 0.14 0.21 0.14 0.24 0.41 0.45 0.32 0.11 0.06 0.05 0.12 0.13 0.19 0.25 0.44 0.43 0.57 0.42 0.57 0.73 0.81 0.89 0.63 0.26 0.12 0.10 0.11
3.39 0.64 0.32 0.22 0.23 0.26 0.18 0.09 0.06 0.14 0.22 0.09 0.10 0.07 0.04 0.07 0.04 0.11 0.15 0.16 0.24 0.29 0.50 0.48 0.59 0.35 0.11 0.02 0.07 0.13 0.09 0.18 0.29 0.37 0.37 0.28 0.59 0.49 0.51 0.50 0.68 0.52 0.31 0.18 0.15
2.89 0.53 0.53 0.36 0.17 0.43 0.44 0.17 0.07 0.12 0.15 0.05 0.11 0.12 0.05 0.05 0.14 0.13 0.19 0.18 0.23 0.27 0.53 0.35 0.46 0.39 0.45 0.06 0.06 0.12 0.11 0.06 0.18 0.53 0.45 0.66 0.48 0.28 0.41 0.46 0.40 0.54 0.48 0.48 0.28

GFSSW_prec_precacc_105.txt.gz
Total_Precipitation_Accumulation
0.03 0.02 0.02 0.03 0.02 0.02 0.03 0.02 0.02 0.02 0.02 0.02 0.02 0.02 0.02 0.02 0.00 0.00 0.00 0.00 0.00 0.00 0.00 0.00 0.00 0.00 0.00 0.00 0.00 0.00 0.00 0.00 0.00 0.01 0.15 0.23 0.08 0.24 0.13 0.11 0.27 0.31 0.50 0.60 0.85
0.04 0.04 0.04 0.03 0.03 0.03 0.02 0.02 0.02 0.02 0.03 0.03 0.01 0.02 0.02 0.02 0.00 0.00 0.00 0.00 0.00 0.00 0.00 0.00 0.00 0.00 0.00 0.00 0.00 0.00 0.00 0.00 0.00 0.06 0.24 0.13 0.03 0.19 0.09 0.19 0.54 0.38 0.72 0.66 0.43
0.03 0.03 0.03 0.03 0.03 0.03 0.02 0.03 0.02 0.02 0.02 0.01 0.01 0.02 0.02 0.01 0.00 0.00 0.00 0.00 0.00 0.00 0.00 0.00 0.00 0.00 0.00 0.00 0.00 0.00 0.00 0.00 0.02 0.11 0.04 0.02 0.07 0.10 0.32 0.45 0.52 1.13 0.48 0.41 0.49
0.03 0.02 0.03 0.04 0.03 0.03 0.02 0.02 0.02 0.02 0.02 0.01 0.01 0.02 0.02 0.00 0.00 0.00 0.00 0.00 0.00 0.00 0.00 0.00 0.00 0.00 0.00 0.00 0.00 0.00 0.00 0.00 0.01 0.01 0.01 0.00 0.01 0.11 0.35 0.80 0.30 0.32 0.38 0.47 0.75
0.03 0.03 0.03 0.03 0.03 0.03 0.03 0.02 0.02 0.02 0.01 0.01 0.01 0.02 0.01 0.00 0.00 0.00 0.00 0.00 0.00 0.00 0.00 0.00 0.00 0.00 0.00 0.00 0.00 0.00 0.00 0.00 0.01 0.04 0.03 0.00 0.04 0.12 0.30 0.11 0.11 0.16 0.38 0.55 0.56
0.04 0.03 0.03 0.04 0.04 0.03 0.02 0.02 0.02 0.01 0.01 0.02 0.02 0.02 0.00 0.00 0.00 0.00 0.00 0.00 0.00 0.00 0.00 0.00 0.00 0.00 0.00 0.00 0.00 0.00 0.00 0.00 0.00 0.01 0.01 0.02 0.05 0.09 0.39 0.12 0.12 0.12 0.32 0.56 0.58
0.05 0.05 0.05 0.05 0.05 0.04 0.03 0.02 0.02 0.01 0.02 0.02 0.02 0.01 0.00 0.00 0.00 0.00 0.00 0.00 0.00 0.00 0.00 0.00 0.00 0.00 0.00 0.00 0.00 0.00 0.00 0.02 0.03 0.01 0.00 0.05 0.19 0.35 0.13 0.08 0.07 0.03 0.04 0.36 0.86
0.15 0.12 0.11 0.11 0.11 0.09 0.06 0.04 0.03 0.02 0.02 0.01 0.02 0.00 0.00 0.00 0.00 0.00 0.00 0.00 0.00 0.00 0.00 0.00 0.00 0.00 0.00 0.00 0.00 0.00 0.00 0.01 0.04 0.03 0.02 0.15 0.48 0.05 0.03 0.05 0.04 0.01 0.01 0.06 0.10
0.16 0.14 0.10 0.11 0.11 0.10 0.07 0.05 0.02 0.02 0.02 0.01 0.01 0.00 0.00 0.00 0.00 0.00 0.00 0.00 0.00 0.00 0.00 0.00 0.00 0.00 0.00 0.00 0.00 0.00 0.00 0.00 0.01 0.01 0.01 0.05 0.33 0.12 0.05 0.09 0.08 0.02 0.01 0.01 0.01
0.14 0.13 0.12 0.13 0.14 0.11 0.06 0.03 0.02 0.02 0.01 0.00 0.01 0.00 0.00 0.00 0.00 0.00 0.00 0.00 0.00 0.00 0.00 0.00 0.00 0.00 0.00 0.00 0.01 0.00 0.00 0.00 0.02 0.02 0.01 0.01 0.03 0.25 0.12 0.05 0.27 0.09 0.04 0.04 0.00
0.11 0.08 0.06 0.08 0.10 0.09 0.05 0.04 0.05 0.04 0.01 0.00 0.00 0.00 0.00 0.00 0.00 0.00 0.00 0.00 0.00 0.00 0.01 0.00 0.00 0.00 0.00 0.00 0.00 0.00 0.00 0.00 0.00 0.01 0.00 0.00 0.01 0.01 0.00 0.00 0.03 0.05 0.07 0.02 0.00
0.13 0.11 0.10 0.12 0.13 0.08 0.02 0.01 0.01 0.02 0.01 0.00 0.00 0.00 0.00 0.00 0.00 0.00 0.00 0.00 0.00 0.01 0.02 0.02 0.01 0.00 0.00 0.00 0.00 0.00 0.00 0.00 0.00 0.00 0.00 0.00 0.00 0.00 0.00 0.00 0.01 0.01 0.11 0.03 0.00
0.13 0.13 0.15 0.16 0.14 0.06 0.02 0.03 0.02 0.02 0.04 0.01 0.00 0.00 0.00 0.00 0.00 0.00 0.00 0.00 0.00 0.03 0.03 0.02 0.01 0.00 0.01 0.00 0.00 0.00 0.00 0.00 0.00 0.00 0.00 0.00 0.00 0.00 0.01 0.01 0.02 0.00 0.00 0.00 0.00
0.15 0.16 0.16 0.15 0.07 0.01 0.01 0.00 0.00 0.00 0.02 0.00 0.00 0.00 0.00 0.00 0.00 0.00 0.00 0.00 0.00 0.02 0.08 0.07 0.00 0.02 0.00 0.00 0.00 0.00 0.00 0.00 0.00 0.00 0.00 0.00 0.00 0.00 0.00 0.01 0.00 0.00 0.00 0.00 0.00
0.22 0.16 0.13 0.11 0.07 0.05 0.02 0.01 0.00 0.03 0.11 0.00 0.00 0.00 0.00 0.00 0.00 0.00 0.00 0.00 0.00 0.01 0.09 0.09 0.03 0.04 0.02 0.00 0.00 0.01 0.00 0.00 0.00 0.00 0.05 0.02 0.00 0.03 0.05 0.02 0.00 0.01 0.02 0.01 0.01
0.29 0.22 0.21 0.11 0.06 0.03 0.04 0.04 0.10 0.20 0.10 0.01 0.00 0.00 0.00 0.00 0.00 0.00 0.00 0.00 0.00 0.01 0.01 0.01 0.02 0.06 0.03 0.00 0.00 0.00 0.02 0.00 0.00 0.01 0.05 0.01 0.01 0.01 0.01 0.02 0.04 0.10 0.09 0.07 0.07
0.28 0.28 0.27 0.14 0.14 0.06 0.04 0.16 0.22 0.10 0.01 0.00 0.00 0.00 0.00 0.00 0.00 0.00 0.00 0.00 0.00 0.00 0.00 0.00 0.01 0.01 0.00 0.00 0.00 0.01 0.08 0.10 0.14 0.09 0.03 0.00 0.01 0.01 0.02 0.09 0.17 0.22 0.07 0.05 0.04
0.29 0.32 0.18 0.09 0.09 0.13 0.29 0.46 0.23 0.02 0.01 0.00 0.00 0.00 0.00 0.00 0.00 0.00 0.00 0.00 0.00 0.00 0.01 0.03 0.03 0.00 0.00 0.00 0.01 0.01 0.05 0.13 0.27 0.16 0.06 0.13 0.06 0.03 0.10 0.14 0.12 0.05 0.04 0.03 0.04
0.52 0.38 0.31 0.16 0.07 0.11 0.42 0.38 0.05 0.01 0.00 0.00 0.00 0.00 0.00 0.00 0.00 0.00 0.00 0.00 0.02 0.01 0.05 0.09 0.05 0.02 0.01 0.01 0.02 0.08 0.10 0.07 0.38 0.25 0.15 0.11 0.04 0.11 0.36 0.34 0.51 0.52 0.24 0.17 0.07
0.58 0.64 0.40 0.25 0.26 0.45 0.86 0.26 0.00 0.01 0.00 0.00 0.01 0.01 0.01 0.01 0.01 0.01 0.01 0.04 0.05 0.00 0.00 0.05 0.13 0.03 0.02 0.04 0.01 0.06 0.12 0.38 0.57 0.40 0.19 0.01 0.04 0.21 0.36 0.47 0.59 0.50 0.31 0.15 0.09
1.09 1.07 0.39 0.31 0.83 1.10 0.77 0.13 0.01 0.00 0.00 0.00 0.01 0.04 0.05 0.06 0.04 0.03 0.08 0.14 0.03 0.02 0.00 0.02 0.11 0.11 0.12 0.13 0.07 0.10 0.29 0.33 0.38 0.19 0.26 0.16 0.36 0.68 0.53 0.79 0.61 0.16 0.12 0.11 0.05
1.77 1.28 0.45 0.39 1.13 0.77 0.24 0.04 0.01 0.01 0.00 0.00 0.00 0.02 0.07 0.08 0.06 0.10 0.07 0.16 0.11 0.08 0.06 0.10 0.12 0.05 0.07 0.06 0.06 0.16 0.24 0.42 0.75 0.48 0.26 0.26 0.46 0.85 0.67 0.35 0.67 0.31 0.22 0.07 0.02
2.05 1.23 1.07 0.73 1.01 0.35 0.15 0.05 0.02 0.01 0.01 0.01 0.01 0.01 0.03 0.07 0.11 0.10 0.12 0.09 0.14 0.24 0.27 0.17 0.16 0.13 0.11 0.17 0.15 0.20 0.30 0.42 0.55 0.70 0.47 0.50 0.56 0.89 0.66 0.69 0.91 0.46 0.09 0.05 0.05
2.32 1.75 2.02 1.29 0.36 0.33 0.37 0.23 0.06 0.02 0.00 0.00 0.00 0.01 0.02 0.05 0.09 0.12 0.16 0.13 0.12 0.17 0.27 0.34 0.14 0.08 0.10 0.16 0.21 0.20 0.14 0.24 0.73 1.09 0.56 0.29 0.38 1.13 1.26 1.15 0.58 0.18 0.12 0.12 0.11
3.23 1.16 0.76 0.81 0.34 0.17 0.25 0.31 0.21 0.14 0.03 0.01 0.03 0.10 0.08 0.06 0.07 0.08 0.14 0.21 0.14 0.24 0.41 0.45 0.32 0.11 0.06 0.05 0.12 0.13 0.19 0.25 0.44 0.43 0.57 0.42 0.57 0.73 0.83 0.96 0.70 0.33 0.18 0.14 0.13
3.39 0.64 0.32 0.22 0.23 0.26 0.18 0.09 0.06 0.14 0.22 0.09 0.10 0.07 0.04 0.07 0.04 0.11 0.15 0.16 0.24 0.29 0.50 0.48 0.59 0.35 0.11 0.02 0.07 0.13 0.09 0.18 0.29 0.37 0.37 0.28 0.59 0.49 0.52 0.58 0.77 0.60 0.37 0.23 0.18
2.89 0.53 0.53 0.36 0.17 0.43 0.44 0.17 0.07 0.12 0.15 0.05 0.11 0.12 0.05 0.05 0.14 0.13 0.19 0.18 0.23 0.27 0.53 0.35 0.46 0.39 0.45 0.06 0.06 0.12 0.13 0.10 0.19 0.53 0.46 0.67 0.49 0.29 0.44 0.51 0.45 0.58 0.51 0.49 0.29

GFSSW_prec_precacc_111.txt.gz
Total_Precipitation_Accumulation
0.03 0.02 0.02 0.03 0.02 0.02 0.03 0.02 0.02 0.02 0.02 0.02 0.02 0.02 0.02 0.02 0.00 0.00 0.00 0.00 0.00 0.00 0.00 0.00 0.00 0.00 0.00 0.00 0.00 0.00 0.00 0.00 0.00 0.01 0.15 0.23 0.08 0.24 0.13 0.11 0.27 0.31 0.50 0.60 0.85
0.04 0.04 0.04 0.03 0.03 0.03 0.02 0.02 0.02 0.02 0.03 0.03 0.01 0.02 0.02 0.02 0.00 0.00 0.00 0.00 0.00 0.00 0.00 0.00 0.00 0.00 0.00 0.00 0.00 0.00 0.00 0.00 0.00 0.06 0.24 0.13 0.03 0.19 0.09 0.19 0.54 0.38 0.72 0.66 0.43
0.03 0.03 0.03 0.03 0.03 0.03 0.02 0.03 0.02 0.02 0.02 0.01 0.01 0.02 0.02 0.01 0.00 0.00 0.00 0.00 0.00 0.00 0.00 0.00 0.00 0.00 0.00 0.00 0.00 0.00 0.00 0.00 0.02 0.11 0.04 0.02 0.07 0.10 0.32 0.45 0.52 1.13 0.48 0.41 0.49
0.03 0.03 0.03 0.04 0.03 0.03 0.02 0.02 0.02 0.02 0.02 0.01 0.01 0.02 0.02 0.00 0.00 0.00 0.00 0.00 0.00 0.00 0.00 0.00 0.00 0.00 0.00 0.00 0.00 0.00 0.00 0.00 0.01 0.01 0.01 0.00 0.01 0.11 0.35 0.80 0.30 0.32 0.38 0.47 0.75
0.03 0.03 0.03 0.03 0.04 0.03 0.03 0.02 0.02 0.02 0.01 0.01 0.01 0.02 0.01 0.00 0.00 0.00 0.00 0.00 0.00 0.00 0.00 0.00 0.00 0.00 0.00 0.00 0.00 0.00 0.00 0.00 0.01 0.04 0.03 0.00 0.04 0.12 0.30 0.11 0.11 0.16 0.38 0.55 0.56
0.04 0.03 0.03 0.04 0.05 0.05 0.04 0.03 0.02 0.01 0.01 0.02 0.02 0.02 0.00 0.00 0.00 0.00 0.00 0.00 0.00 0.00 0.00 0.00 0.00 0.00 0.00 0.00 0.00 0.00 0.00 0.00 0.00 0.01 0.01 0.02 0.05 0.09 0.39 0.12 0.12 0.12 0.32 0.56 0.58
0.06 0.06 0.06 0.06 0.08 0.08 0.07 0.05 0.03 0.01 0.02 0.02 0.02 0.01 0.00 0.00 0.00 0.00 0.00 0.00 0.00 0.00 0.00 0.00 0.00 0.00 0.00 0.00 0.00 0.00 0.00 0.02 0.03 0.01 0.00 0.05 0.19 0.35 0.13 0.08 0.07 0.03 0.04 0.36 0.86
0.16 0.13 0.12 0.11 0.13 0.12 0.11 0.08 0.05 0.03 0.02 0.01 0.02 0.00 0.00 0.00 0.00 0.00 0.00 0.00 0.00 0.00 0.00 0.00 0.00 0.00 0.00 0.00 0.00 0.00 0.00 0.01 0.04 0.03 0.02 0.15 0.48 0.05 0.03 0.05 0.04 0.01 0.01 0.06 0.10
0.17 0.15 0.12 0.12 0.13 0.14 0.13 0.09 0.05 0.03 0.02 0.01 0.01 0.00 0.00 0.00 0.00 0.00 0.00 0.00 0.00 0.00 0.00 0.00 0.00 0.00 0.00 0.00 0.00 0.00 0.00 0.00 0.01 0.01 0.01 0.05 0.33 0.12 0.05 0.09 0.08 0.02 0.01 0.01 0.01
0.15 0.14 0.14 0.15 0.16 0.16 0.12 0.06 0.05 0.02 0.01 0.00 0.01 0.00 0.00 0.00 0.00 0.00 0.00 0.00 0.00 0.00 0.00 0.00 0.00 0.00 0.00 0.00 0.01 0.00 0.00 0.00 0.02 0.02 0.01 0.01 0.03 0.25 0.12 0.05 0.27 0.09 0.04 0.04 0.00
0.11 0.09 0.09 0.12 0.17 0.15 0.07 0.06 0.06 0.05 0.02 0.00 0.00 0.00 0.00 0.00 0.00 0.00 0.00 0.00 0.00 0.00 0.01 0.00 0.00 0.00 0.00 0.00 0.00 0.00 0.00 0.00 0.00 0.01 0.00 0.00 0.01 0.01 0.00 0.00 0.03 0.05 0.07 0.02 0.00
0.14 0.13 0.13 0.17 0.19 0.11 0.04 0.02 0.01 0.02 0.01 0.00 0.00 0.00 0.00 0.00 0.00 0.00 0.00 0.00 0.00 0.01 0.02 0.02 0.01 0.00 0.00 0.00 0.00 0.00 0.00 0.00 0.00 0.00 0.00 0.00 0.00 0.00 0.00 0.00 0.01 0.01 0.11 0.03 0.00
0.14 0.15 0.20 0.26 0.24 0.11 0.02 0.03 0.02 0.02 0.05 0.01 0.00 0.00 0.00 0.00 0.00 0.00 0.00 0.00 0.00 0.03 0.03 0.02 0.01 0.00 0.01 0.00 0.00 0.00 0.00 0.00 0.00 0.00 0.00 0.00 0.00 0.00 0.01 0.01 0.02 0.00 0.00 0.00 0.00
0.16 0.19 0.23 0.27 0.16 0.02 0.02 0.02 0.01 0.01 0.12 0.02 0.00 0.00 0.00 0.00 0.00 0.00 0.00 0.00 0.00 0.02 0.08 0.07 0.00 0.02 0.00 0.00 0.00 0.00 0.00 0.00 0.00 0.00 0.00 0.00 0.00 0.00 0.00 0.01 0.00 0.00 0.00 0.00 0.00
0.23 0.22 0.20 0.15 0.08 0.05 0.03 0.01 0.01 0.06 0.30 0.02 0.00 0.00 0.00 0.00 0.00 0.00 0.00 0.00 0.00 0.01 0.09 0.09 0.03 0.04 0.02 0.00 0.00 0.01 0.00 0.00 0.00 0.00 0.05 0.02 0.00 0.03 0.05 0.02 0.00 0.01 0.02 0.01 0.01
0.33 0.27 0.28 0.15 0.07 0.04 0.04 0.05 0.15 0.45 0.32 0.01 0.00 0.00 0.00 0.00 0.00 0.00 0.00 0.00 0.00 0.01 0.01 0.01 0.02 0.06 0.03 0.00 0.00 0.00 0.02 0.00 0.00 0.01 0.05 0.01 0.01 0.01 0.01 0.02 0.04 0.10 0.09 0.07 0.07
0.31 0.32 0.29 0.15 0.15 0.06 0.04 0.20 0.43 0.32 0.03 0.00 0.00 0.00 0.00 0.00 0.00 0.00 0.00 0.00 0.00 0.00 0.00 0.00 0.01 0.01 0.00 0.00 0.00 0.01 0.08 0.10 0.14 0.09 0.03 0.00 0.01 0.01 0.02 0.09 0.17 0.22 0.07 0.05 0.04
0.36 0.41 0.28 0.14 0.13 0.15 0.32 0.64 0.46 0.06 0.01 0.01 0.00 0.00 0.00 0.00 0.00 0.00 0.00 0.00 0.00 0.00 0.01 0.04 0.05 0.00 0.00 0.00 0.02 0.01 0.05 0.13 0.28 0.16 0.06 0.13 0.06 0.03 0.10 0.14 0.12 0.05 0.04 0.03 0.04
0.68 0.50 0.38 0.22 0.12 0.18 0.60 0.70 0.16 0.02 0.00 0.00 0.00 0.00 0.00 0.00 0.00 0.00 0.00 0.01 0.02 0.01 0.06 0.10 0.07 0.02 0.01 0.01 0.02 0.08 0.10 0.07 0.39 0.26 0.15 0.11 0.04 0.12 0.36 0.34 0.51 0.52 0.24 0.17 0.07
0.66 0.75 0.60 0.42 0.40 0.62 1.21 0.52 0.03 0.01 0.00 0.00 0.01 0.01 0.01 0.01 0.01 0.01 0.01 0.04 0.05 0.01 0.00 0.06 0.16 0.03 0.02 0.04 0.01 0.06 0.12 0.39 0.57 0.40 0.19 0.01 0.04 0.23 0.38 0.47 0.59 0.50 0.31 0.15 0.09
1.26 1.38 0.84 0.69 1.11 1.51 1.14 0.27 0.03 0.00 0.00 0.01 0.01 0.04 0.05 0.06 0.04 0.03 0.08 0.14 0.04 0.03 0.01 0.02 0.12 0.11 0.12 0.13 0.07 0.10 0.29 0.33 0.38 0.19 0.27 0.16 0.36 0.71 0.55 0.79 0.61 0.16 0.12 0.11 0.05
2.02 1.71 0.94 0.94 1.64 1.16 0.45 0.14 0.03 0.01 0.01 0.01 0.00 0.02 0.07 0.08 0.07 0.10 0.07 0.16 0.11 0.08 0.07 0.11 0.12 0.06 0.07 0.06 0.06 0.16 0.24 0.42 0.75 0.48 0.26 0.26 0.46 0.86 0.67 0.35 0.67 0.31 0.22 0.07 0.02
2.62 1.90 1.75 1.25 1.40 0.58 0.23 0.09 0.03 0.01 0.01 0.01 0.01 0.01 0.03 0.07 0.13 0.11 0.12 0.09 0.14 0.24 0.27 0.18 0.17 0.13 0.11 0.17 0.15 0.20 0.30 0.42 0.55 0.70 0.47 0.50 0.57 0.89 0.66 0.69 0.91 0.46 0.09 0.05 0.05
2.70 2.36 2.70 1.73 0.58 0.41 0.46 0.27 0.07 0.02 0.00 0.00 0.01 0.01 0.02 0.05 0.10 0.13 0.16 0.13 0.12 0.17 0.27 0.34 0.14 0.08 0.10 0.16 0.21 0.20 0.14 0.24 0.73 1.09 0.56 0.29 0.38 1.13 1.26 1.15 0.58 0.18 0.12 0.12 0.11
3.43 1.33 0.93 0.98 0.48 0.24 0.31 0.36 0.23 0.15 0.03 0.01 0.03 0.10 0.08 0.06 0.07 0.08 0.14 0.21 0.14 0.24 0.41 0.45 0.32 0.11 0.06 0.05 0.12 0.13 0.19 0.25 0.44 0.43 0.57 0.42 0.57 0.73 0.83 0.96 0.70 0.33 0.18 0.14 0.14
3.50 0.67 0.34 0.25 0.28 0.36 0.25 0.14 0.08 0.15 0.23 0.09 0.10 0.07 0.04 0.07 0.04 0.11 0.15 0.16 0.24 0.29 0.50 0.48 0.59 0.35 0.11 0.02 0.07 0.13 0.09 0.18 0.29 0.37 0.37 0.28 0.59 0.49 0.52 0.58 0.77 0.60 0.37 0.24 0.19
2.94 0.54 0.54 0.42 0.20 0.49 0.48 0.19 0.07 0.12 0.15 0.05 0.11 0.12 0.05 0.05 0.14 0.13 0.19 0.18 0.23 0.27 0.53 0.35 0.46 0.39 0.45 0.06 0.06 0.12 0.13 0.10 0.19 0.54 0.46 0.67 0.49 0.30 0.45 0.52 0.45 0.58 0.52 0.52 0.32

GFSSW_prec_precacc_114.txt.gz
Total_Precipitation_Accumulation
0.03 0.02 0.02 0.03 0.02 0.02 0.03 0.02 0.02 0.02 0.02 0.02 0.02 0.02 0.02 0.02 0.00 0.00 0.00 0.00 0.00 0.00 0.00 0.00 0.00 0.00 0.00 0.00 0.00 0.00 0.00 0.00 0.00 0.01 0.15 0.23 0.08 0.24 0.13 0.11 0.27 0.31 0.50 0.60 0.85
0.04 0.04 0.04 0.03 0.03 0.03 0.02 0.02 0.02 0.02 0.03 0.03 0.01 0.02 0.02 0.02 0.00 0.00 0.00 0.00 0.00 0.00 0.00 0.00 0.00 0.00 0.00 0.00 0.00 0.00 0.00 0.00 0.00 0.06 0.24 0.13 0.03 0.19 0.09 0.19 0.54 0.38 0.72 0.66 0.43
0.03 0.03 0.03 0.04 0.04 0.03 0.02 0.03 0.02 0.02 0.02 0.01 0.01 0.02 0.02 0.01 0.00 0.00 0.00 0.00 0.00 0.00 0.00 0.00 0.00 0.00 0.00 0.00 0.00 0.00 0.00 0.00 0.02 0.11 0.04 0.02 0.07 0.10 0.32 0.45 0.52 1.13 0.48 0.41 0.49
0.03 0.03 0.03 0.04 0.04 0.03 0.03 0.02 0.02 0.02 0.02 0.01 0.01 0.02 0.02 0.00 0.00 0.00 0.00 0.00 0.00 0.00 0.00 0.00 0.00 0.00 0.00 0.00 0.00 0.00 0.00 0.00 0.01 0.01 0.01 0.00 0.01 0.11 0.35 0.80 0.30 0.32 0.38 0.47 0.75
0.03 0.03 0.03 0.04 0.04 0.03 0.03 0.03 0.02 0.02 0.01 0.01 0.01 0.02 0.01 0.00 0.00 0.00 0.00 0.00 0.00 0.00 0.00 0.00 0.00 0.00 0.00 0.00 0.00 0.00 0.00 0.00 0.01 0.04 0.03 0.00 0.04 0.12 0.30 0.11 0.11 0.16 0.38 0.55 0.56
0.04 0.03 0.03 0.04 0.05 0.05 0.05 0.04 0.02 0.02 0.01 0.02 0.02 0.02 0.00 0.00 0.00 0.00 0.00 0.00 0.00 0.00 0.00 0.00 0.00 0.00 0.00 0.00 0.00 0.00 0.00 0.00 0.00 0.01 0.01 0.02 0.05 0.09 0.39 0.12 0.12 0.12 0.32 0.56 0.58
0.06 0.06 0.06 0.06 0.08 0.09 0.08 0.06 0.03 0.02 0.02 0.02 0.02 0.01 0.00 0.00 0.00 0.00 0.00 0.00 0.00 0.00 0.00 0.00 0.00 0.00 0.00 0.00 0.00 0.00 0.00 0.02 0.03 0.01 0.00 0.05 0.19 0.35 0.13 0.08 0.07 0.03 0.04 0.36 0.86
0.16 0.13 0.12 0.11 0.13 0.13 0.12 0.09 0.06 0.03 0.02 0.01 0.02 0.00 0.00 0.00 0.00 0.00 0.00 0.00 0.00 0.00 0.00 0.00 0.00 0.00 0.00 0.00 0.00 0.00 0.00 0.01 0.04 0.03 0.02 0.15 0.48 0.05 0.03 0.05 0.04 0.01 0.01 0.06 0.10
0.17 0.15 0.12 0.12 0.13 0.14 0.14 0.11 0.08 0.04 0.02 0.01 0.01 0.00 0.00 0.00 0.00 0.00 0.00 0.00 0.00 0.00 0.00 0.00 0.00 0.00 0.00 0.00 0.00 0.00 0.00 0.00 0.01 0.01 0.01 0.05 0.33 0.12 0.05 0.09 0.08 0.02 0.01 0.01 0.01
0.15 0.14 0.14 0.15 0.16 0.17 0.14 0.09 0.07 0.03 0.01 0.00 0.01 0.00 0.00 0.00 0.00 0.00 0.00 0.00 0.00 0.00 0.00 0.00 0.00 0.00 0.00 0.00 0.01 0.00 0.00 0.00 0.02 0.02 0.01 0.01 0.03 0.25 0.12 0.05 0.27 0.09 0.04 0.04 0.00
0.11 0.09 0.09 0.12 0.17 0.16 0.09 0.08 0.07 0.05 0.02 0.00 0.00 0.00 0.00 0.00 0.00 0.00 0.00 0.00 0.00 0.00 0.01 0.00 0.00 0.00 0.00 0.00 0.00 0.00 0.00 0.00 0.00 0.01 0.00 0.00 0.01 0.01 0.00 0.00 0.03 0.05 0.07 0.02 0.00
0.14 0.13 0.13 0.17 0.20 0.12 0.04 0.03 0.02 0.02 0.01 0.00 0.00 0.00 0.00 0.00 0.00 0.00 0.00 0.00 0.00 0.01 0.02 0.02 0.01 0.00 0.00 0.00 0.00 0.00 0.00 0.00 0.00 0.00 0.00 0.00 0.00 0.00 0.00 0.00 0.01 0.01 0.11 0.03 0.00
0.14 0.15 0.20 0.26 0.24 0.13 0.03 0.03 0.02 0.02 0.05 0.01 0.00 0.00 0.00 0.00 0.00 0.00 0.00 0.00 0.00 0.03 0.03 0.02 0.01 0.00 0.01 0.00 0.00 0.00 0.00 0.00 0.00 0.00 0.00 0.00 0.00 0.00 0.01 0.01 0.02 0.00 0.00 0.00 0.00
0.16 0.19 0.23 0.28 0.19 0.03 0.03 0.02 0.01 0.01 0.13 0.02 0.00 0.00 0.00 0.00 0.00 0.00 0.00 0.00 0.00 0.02 0.08 0.07 0.00 0.02 0.00 0.00 0.00 0.00 0.00 0.00 0.00 0.00 0.00 0.00 0.00 0.00 0.00 0.01 0.00 0.00 0.00 0.00 0.00
0.23 0.22 0.21 0.16 0.08 0.05 0.03 0.01 0.01 0.10 0.32 0.02 0.00 0.00 0.00 0.00 0.00 0.00 0.00 0.00 0.00 0.01 0.09 0.09 0.03 0.04 0.02 0.00 0.00 0.01 0.00 0.00 0.00 0.00 0.05 0.02 0.00 0.03 0.05 0.02 0.00 0.01 0.02 0.01 0.01
0.33 0.27 0.28 0.16 0.08 0.04 0.04 0.05 0.17 0.52 0.35 0.01 0.00 0.00 0.00 0.00 0.00 0.00 0.00 0.00 0.00 0.01 0.01 0.01 0.02 0.06 0.03 0.00 0.00 0.00 0.02 0.00 0.00 0.01 0.06 0.01 0.01 0.01 0.01 0.02 0.04 0.10 0.09 0.07 0.07
0.31 0.32 0.30 0.16 0.16 0.06 0.04 0.23 0.52 0.37 0.04 0.00 0.00 0.00 0.00 0.00 0.00 0.00 0.00 0.00 0.00 0.00 0.00 0.00 0.01 0.01 0.00 0.00 0.00 0.01 0.09 0.12 0.17 0.09 0.03 0.00 0.01 0.02 0.03 0.09 0.18 0.22 0.07 0.05 0.04
0.36 0.42 0.29 0.14 0.13 0.15 0.34 0.71 0.54 0.06 0.01 0.01 0.00 0.00 0.00 0.00 0.00 0.00 0.00 0.00 0.00 0.00 0.01 0.05 0.06 0.00 0.00 0.00 0.02 0.01 0.05 0.16 0.32 0.18 0.08 0.14 0.08 0.07 0.11 0.16 0.16 0.06 0.04 0.03 0.04
0.70 0.55 0.44 0.25 0.12 0.20 0.67 0.80 0.18 0.02 0.00 0.00 0.00 0.00 0.00 0.00 0.00 0.00 0.00 0.01 0.02 0.01 0.06 0.10 0.07 0.02 0.01 0.01 0.02 0.08 0.10 0.07 0.42 0.27 0.16 0.12 0.08 0.20 0.37 0.35 0.51 0.52 0.24 0.17 0.07
0.70 0.79 0.65 0.45 0.44 0.71 1.40 0.62 0.03 0.01 0.00 0.00 0.01 0.01 0.01 0.01 0.01 0.01 0.01 0.04 0.05 0.01 0.00 0.06 0.18 0.04 0.02 0.04 0.01 0.06 0.12 0.40 0.61 0.44 0.20 0.01 0.04 0.31 0.47 0.48 0.59 0.50 0.31 0.15 0.09
1.31 1.44 0.89 0.75 1.23 1.79 1.37 0.32 0.04 0.00 0.00 0.01 0.01 0.04 0.05 0.06 0.05 0.04 0.08 0.14 0.04 0.03 0.01 0.02 0.13 0.13 0.12 0.13 0.07 0.10 0.29 0.33 0.39 0.21 0.28 0.17 0.39 0.75 0.60 0.81 0.62 0.16 0.12 0.11 0.05
2.07 1.78 1.00 1.05 1.83 1.33 0.52 0.17 0.04 0.02 0.01 0.01 0.00 0.02 0.07 0.08 0.07 0.10 0.07 0.16 0.11 0.08 0.07 0.11 0.13 0.06 0.07 0.06 0.06 0.16 0.24 0.42 0.76 0.48 0.26 0.26 0.46 0.90 0.70 0.36 0.67 0.31 0.22 0.07 0.02
2.67 2.00 1.84 1.36 1.53 0.65 0.27 0.11 0.06 0.03 0.01 0.01 0.01 0.01 0.03 0.08 0.13 0.11 0.12 0.09 0.14 0.24 0.27 0.18 0.20 0.17 0.13 0.17 0.15 0.20 0.30 0.42 0.55 0.70 0.47 0.50 0.57 0.90 0.66 0.69 0.91 0.46 0.09 0.05 0.05
2.76 2.47 2.87 1.91 0.66 0.47 0.49 0.31 0.09 0.03 0.01 0.01 0.01 0.01 0.02 0.05 0.10 0.13 0.16 0.13 0.12 0.17 0.27 0.34 0.14 0.10 0.12 0.17 0.21 0.20 0.14 0.24 0.73 1.09 0.56 0.29 0.38 1.14 1.27 1.15 0.58 0.18 0.12 0.12 0.11
3.51 1.43 1.00 1.08 0.56 0.29 0.35 0.39 0.26 0.17 0.05 0.02 0.04 0.11 0.08 0.06 0.07 0.09 0.15 0.21 0.14 0.24 0.41 0.45 0.32 0.11 0.06 0.05 0.12 0.13 0.19 0.25 0.44 0.43 0.57 0.42 0.57 0.73 0.83 0.96 0.70 0.33 0.18 0.14 0.14
3.62 0.76 0.37 0.29 0.29 0.38 0.32 0.17 0.11 0.16 0.23 0.10 0.10 0.07 0.04 0.08 0.05 0.12 0.15 0.16 0.24 0.29 0.50 0.48 0.59 0.35 0.11 0.02 0.07 0.13 0.09 0.18 0.29 0.37 0.37 0.28 0.59 0.49 0.52 0.58 0.77 0.60 0.37 0.24 0.19
3.04 0.59 0.60 0.50 0.26 0.54 0.51 0.21 0.10 0.14 0.16 0.05 0.11 0.12 0.05 0.05 0.14 0.13 0.19 0.18 0.23 0.27 0.53 0.35 0.46 0.39 0.45 0.06 0.06 0.12 0.13 0.10 0.19 0.54 0.46 0.67 0.49 0.30 0.45 0.53 0.45 0.58 0.52 0.52 0.32

GFSSW_prec_precacc_120.txt.gz
Total_Precipitation_Accumulation
0.03 0.02 0.02 0.03 0.02 0.02 0.03 0.02 0.02 0.02 0.02 0.02 0.02 0.02 0.02 0.02 0.00 0.00 0.00 0.00 0.00 0.00 0.00 0.00 0.00 0.00 0.00 0.00 0.00 0.00 0.00 0.00 0.00 0.01 0.15 0.23 0.08 0.24 0.13 0.11 0.27 0.31 0.50 0.60 0.85
0.06 0.05 0.04 0.03 0.03 0.03 0.02 0.02 0.02 0.02 0.03 0.03 0.01 0.02 0.02 0.02 0.00 0.00 0.00 0.00 0.00 0.00 0.00 0.00 0.00 0.00 0.00 0.00 0.00 0.00 0.00 0.00 0.00 0.06 0.24 0.13 0.03 0.19 0.09 0.19 0.54 0.38 0.72 0.66 0.43
0.04 0.04 0.04 0.04 0.05 0.04 0.03 0.03 0.02 0.02 0.02 0.01 0.01 0.02 0.02 0.01 0.00 0.00 0.00 0.00 0.00 0.00 0.00 0.00 0.00 0.00 0.00 0.00 0.00 0.00 0.00 0.00 0.02 0.11 0.04 0.02 0.07 0.10 0.32 0.45 0.52 1.13 0.48 0.41 0.49
0.03 0.03 0.04 0.04 0.04 0.03 0.03 0.03 0.03 0.02 0.02 0.01 0.01 0.02 0.02 0.00 0.00 0.00 0.00 0.00 0.00 0.00 0.00 0.00 0.00 0.00 0.00 0.00 0.00 0.00 0.00 0.00 0.01 0.01 0.01 0.00 0.01 0.11 0.35 0.80 0.30 0.32 0.38 0.47 0.75
0.03 0.03 0.03 0.04 0.04 0.03 0.04 0.04 0.03 0.03 0.02 0.01 0.01 0.02 0.01 0.00 0.00 0.00 0.00 0.00 0.00 0.00 0.00 0.00 0.00 0.00 0.00 0.00 0.00 0.00 0.00 0.00 0.01 0.04 0.03 0.00 0.04 0.12 0.30 0.11 0.11 0.16 0.38 0.55 0.56
0.04 0.03 0.03 0.04 0.05 0.05 0.05 0.04 0.03 0.02 0.02 0.02 0.02 0.02 0.00 0.00 0.00 0.00 0.00 0.00 0.00 0.00 0.00 0.00 0.00 0.00 0.00 0.00 0.00 0.00 0.00 0.00 0.00 0.01 0.01 0.02 0.05 0.09 0.39 0.12 0.12 0.12 0.32 0.56 0.58
0.06 0.06 0.06 0.06 0.08 0.09 0.08 0.06 0.04 0.03 0.02 0.02 0.02 0.01 0.00 0.00 0.00 0.00 0.00 0.00 0.00 0.00 0.00 0.00 0.00 0.00 0.00 0.00 0.00 0.00 0.00 0.02 0.03 0.01 0.00 0.05 0.19 0.35 0.13 0.08 0.07 0.03 0.04 0.36 0.86
0.16 0.13 0.12 0.11 0.13 0.13 0.12 0.09 0.06 0.05 0.02 0.01 0.02 0.00 0.00 0.00 0.00 0.00 0.00 0.00 0.00 0.00 0.00 0.00 0.00 0.00 0.00 0.00 0.00 0.00 0.00 0.01 0.04 0.03 0.02 0.15 0.48 0.05 0.03 0.05 0.04 0.01 0.01 0.06 0.10
0.17 0.15 0.12 0.12 0.13 0.14 0.14 0.11 0.09 0.05 0.02 0.01 0.01 0.00 0.00 0.00 0.00 0.00 0.00 0.00 0.00 0.00 0.00 0.00 0.00 0.00 0.00 0.00 0.00 0.00 0.00 0.00 0.01 0.01 0.01 0.05 0.33 0.12 0.05 0.09 0.08 0.02 0.01 0.01 0.01
0.15 0.14 0.14 0.15 0.16 0.17 0.14 0.10 0.08 0.03 0.01 0.00 0.01 0.00 0.00 0.00 0.00 0.00 0.00 0.00 0.00 0.00 0.00 0.00 0.00 0.00 0.00 0.00 0.01 0.00 0.00 0.00 0.02 0.02 0.01 0.01 0.03 0.25 0.12 0.05 0.27 0.09 0.04 0.04 0.00
0.11 0.09 0.09 0.12 0.18 0.16 0.09 0.09 0.08 0.05 0.02 0.00 0.00 0.00 0.00 0.00 0.00 0.00 0.00 0.00 0.00 0.00 0.01 0.00 0.00 0.00 0.00 0.00 0.00 0.00 0.00 0.00 0.00 0.01 0.00 0.00 0.01 0.01 0.00 0.00 0.03 0.05 0.07 0.02 0.00
0.14 0.13 0.13 0.17 0.21 0.13 0.05 0.03 0.02 0.02 0.01 0.00 0.00 0.00 0.00 0.00 0.00 0.00 0.00 0.00 0.00 0.01 0.02 0.02 0.01 0.00 0.00 0.00 0.00 0.00 0.00 0.00 0.00 0.00 0.00 0.00 0.00 0.00 0.00 0.00 0.01 0.01 0.11 0.03 0.00
0.14 0.15 0.20 0.26 0.26 0.15 0.05 0.04 0.02 0.02 0.05 0.01 0.00 0.00 0.00 0.00 0.00 0.00 0.00 0.00 0.00 0.03 0.03 0.02 0.01 0.00 0.01 0.00 0.00 0.00 0.00 0.00 0.00 0.00 0.00 0.00 0.00 0.00 0.01 0.01 0.02 0.00 0.00 0.00 0.00
0.16 0.19 0.23 0.28 0.20 0.04 0.05 0.03 0.01 0.01 0.13 0.02 0.00 0.00 0.00 0.00 0.00 0.00 0.00 0.00 0.00 0.02 0.08 0.07 0.00 0.02 0.00 0.00 0.00 0.00 0.00 0.00 0.00 0.00 0.00 0.00 0.00 0.00 0.00 0.01 0.00 0.00 0.00 0.00 0.02
0.23 0.22 0.21 0.17 0.09 0.06 0.03 0.01 0.01 0.10 0.33 0.02 0.00 0.00 0.00 0.00 0.00 0.00 0.00 0.00 0.00 0.01 0.09 0.09 0.03 0.04 0.02 0.00 0.00 0.01 0.00 0.00 0.00 0.00 0.05 0.02 0.00 0.03 0.05 0.02 0.00 0.01 0.02 0.02 0.03
0.33 0.27 0.29 0.17 0.09 0.05 0.04 0.05 0.18 0.53 0.35 0.01 0.00 0.00 0.00 0.00 0.00 0.00 0.00 0.00 0.00 0.01 0.01 0.01 0.02 0.06 0.03 0.00 0.00 0.00 0.02 0.00 0.00 0.02 0.06 0.01 0.01 0.01 0.01 0.03 0.07 0.14 0.11 0.08 0.07
0.31 0.32 0.31 0.17 0.17 0.07 0.05 0.25 0.56 0.38 0.04 0.00 0.00 0.00 0.00 0.00 0.00 0.00 0.00 0.00 0.00 0.00 0.00 0.00 0.01 0.01 0.01 0.01 0.01 0.02 0.11 0.15 0.18 0.09 0.04 0.00 0.02 0.02 0.06 0.16 0.28 0.32 0.13 0.07 0.04
0.37 0.42 0.30 0.15 0.15 0.15 0.37 0.76 0.57 0.06 0.01 0.01 0.00 0.00 0.00 0.00 0.00 0.00 0.00 0.00 0.00 0.00 0.01 0.06 0.06 0.00 0.01 0.00 0.02 0.02 0.07 0.21 0.34 0.18 0.08 0.15 0.09 0.18 0.36 0.38 0.44 0.28 0.17 0.11 0.08
0.70 0.55 0.46 0.26 0.14 0.22 0.74 0.89 0.19 0.02 0.00 0.00 0.00 0.00 0.00 0.00 0.00 0.00 0.00 0.01 0.02 0.01 0.06 0.11 0.07 0.02 0.01 0.01 0.02 0.08 0.11 0.08 0.45 0.28 0.16 0.12 0.11 0.58 1.05 0.79 1.20 1.25 0.67 0.51 0.33
0.71 0.80 0.66 0.48 0.47 0.81 1.63 0.69 0.03 0.01 0.00 0.00 0.01 0.01 0.01 0.01 0.01 0.01 0.02 0.04 0.05 0.01 0.01 0.06 0.18 0.04 0.02 0.04 0.01 0.07 0.12 0.40 0.63 0.48 0.22 0.01 0.06 0.41 0.66 0.72 0.79 0.66 0.47 0.32 0.23
1.33 1.47 0.90 0.78 1.39 2.14 1.65 0.38 0.04 0.00 0.00 0.01 0.01 0.04 0.05 0.06 0.06 0.06 0.12 0.16 0.04 0.03 0.01 0.02 0.14 0.14 0.12 0.13 0.07 0.10 0.29 0.33 0.39 0.23 0.30 0.18 0.40 0.77 0.64 0.86 0.63 0.17 0.12 0.11 0.05
2.09 1.82 1.01 1.16 2.15 1.69 0.66 0.18 0.04 0.02 0.01 0.01 0.00 0.02 0.08 0.08 0.07 0.11 0.11 0.22 0.14 0.08 0.07 0.11 0.13 0.07 0.07 0.06 0.06 0.16 0.24 0.42 0.77 0.49 0.26 0.27 0.47 0.93 0.75 0.39 0.67 0.31 0.22 0.07 0.02
2.72 2.02 1.87 1.52 1.76 0.75 0.29 0.12 0.06 0.03 0.02 0.02 0.02 0.02 0.05 0.08 0.13 0.11 0.12 0.09 0.15 0.24 0.27 0.18 0.20 0.17 0.14 0.17 0.15 0.20 0.30 0.42 0.55 0.70 0.47 0.51 0.58 0.93 0.70 0.69 0.91 0.46 0.09 0.05 0.05
2.86 2.55 2.98 2.08 0.79 0.51 0.50 0.31 0.09 0.03 0.02 0.02 0.02 0.03 0.05 0.05 0.11 0.13 0.16 0.13 0.12 0.17 0.27 0.34 0.14 0.10 0.13 0.18 0.21 0.20 0.14 0.24 0.74 1.10 0.57 0.29 0.38 1.14 1.30 1.16 0.58 0.18 0.12 0.12 0.11
3.71 1.61 1.05 1.21 0.65 0.35 0.38 0.41 0.27 0.19 0.06 0.04 0.06 0.12 0.10 0.07 0.08 0.09 0.15 0.21 0.14 0.24 0.41 0.45 0.32 0.11 0.06 0.05 0.13 0.14 0.20 0.25 0.44 0.43 0.57 0.42 0.57 0.73 0.83 0.96 0.70 0.33 0.18 0.14 0.14
3.80 0.96 0.47 0.30 0.29 0.42 0.41 0.23 0.12 0.17 0.25 0.12 0.13 0.08 0.07 0.10 0.06 0.13 0.15 0.16 0.24 0.29 0.50 0.48 0.59 0.35 0.11 0.02 0.07 0.13 0.09 0.18 0.29 0.37 0.37 0.28 0.59 0.49 0.52 0.58 0.77 0.60 0.37 0.24 0.19
3.13 0.68 0.81 0.62 0.29 0.58 0.57 0.25 0.12 0.16 0.18 0.05 0.12 0.15 0.10 0.07 0.16 0.16 0.20 0.19 0.23 0.27 0.53 0.35 0.46 0.39 0.45 0.06 0.06 0.12 0.13 0.10 0.19 0.54 0.46 0.67 0.49 0.30 0.45 0.53 0.45 0.58 0.52 0.52 0.33

GFSSW_prec_precacc_123.txt.gz
Total_Precipitation_Accumulation
0.03 0.02 0.02 0.03 0.03 0.02 0.03 0.02 0.02 0.02 0.02 0.02 0.02 0.02 0.02 0.02 0.00 0.00 0.00 0.00 0.00 0.00 0.00 0.00 0.00 0.00 0.00 0.00 0.00 0.00 0.00 0.00 0.00 0.01 0.15 0.23 0.08 0.24 0.13 0.11 0.27 0.31 0.50 0.60 0.85
0.06 0.05 0.04 0.03 0.04 0.03 0.02 0.02 0.02 0.02 0.03 0.03 0.01 0.02 0.02 0.02 0.00 0.00 0.00 0.00 0.00 0.00 0.00 0.00 0.00 0.00 0.00 0.00 0.00 0.00 0.00 0.00 0.00 0.06 0.24 0.13 0.03 0.19 0.09 0.19 0.54 0.38 0.72 0.66 0.43
0.04 0.04 0.04 0.04 0.05 0.04 0.03 0.03 0.02 0.02 0.02 0.01 0.01 0.02 0.02 0.01 0.00 0.00 0.00 0.00 0.00 0.00 0.00 0.00 0.00 0.00 0.00 0.00 0.00 0.00 0.00 0.00 0.02 0.11 0.04 0.02 0.07 0.10 0.32 0.45 0.52 1.13 0.48 0.41 0.49
0.03 0.03 0.04 0.04 0.04 0.03 0.03 0.03 0.03 0.02 0.02 0.01 0.01 0.02 0.02 0.00 0.00 0.00 0.00 0.00 0.00 0.00 0.00 0.00 0.00 0.00 0.00 0.00 0.00 0.00 0.00 0.00 0.01 0.01 0.01 0.00 0.01 0.11 0.35 0.80 0.30 0.32 0.38 0.47 0.75
0.03 0.03 0.03 0.04 0.04 0.03 0.04 0.04 0.03 0.03 0.02 0.01 0.01 0.02 0.01 0.00 0.00 0.00 0.00 0.00 0.00 0.00 0.00 0.00 0.00 0.00 0.00 0.00 0.00 0.00 0.00 0.00 0.01 0.04 0.03 0.00 0.04 0.12 0.30 0.11 0.11 0.16 0.38 0.55 0.56
0.04 0.03 0.03 0.04 0.05 0.05 0.05 0.04 0.03 0.02 0.02 0.02 0.02 0.02 0.00 0.00 0.00 0.00 0.00 0.00 0.00 0.00 0.00 0.00 0.00 0.00 0.00 0.00 0.00 0.00 0.00 0.00 0.00 0.01 0.01 0.02 0.05 0.09 0.39 0.12 0.12 0.12 0.32 0.56 0.58
0.06 0.06 0.06 0.06 0.08 0.09 0.08 0.06 0.04 0.03 0.03 0.02 0.02 0.01 0.00 0.00 0.00 0.00 0.00 0.00 0.00 0.00 0.00 0.00 0.00 0.00 0.00 0.00 0.00 0.00 0.00 0.02 0.03 0.01 0.00 0.05 0.19 0.35 0.13 0.08 0.07 0.03 0.04 0.36 0.86
0.16 0.13 0.12 0.11 0.13 0.13 0.12 0.09 0.06 0.05 0.02 0.02 0.02 0.00 0.00 0.00 0.00 0.00 0.00 0.00 0.00 0.00 0.00 0.00 0.00 0.00 0.00 0.00 0.00 0.00 0.00 0.01 0.04 0.03 0.02 0.15 0.48 0.05 0.03 0.05 0.04 0.01 0.01 0.06 0.10
0.17 0.15 0.12 0.12 0.13 0.14 0.14 0.11 0.09 0.05 0.02 0.01 0.01 0.00 0.00 0.00 0.00 0.00 0.00 0.00 0.00 0.00 0.00 0.00 0.00 0.00 0.00 0.00 0.00 0.00 0.00 0.00 0.01 0.01 0.01 0.05 0.33 0.12 0.05 0.09 0.08 0.02 0.01 0.01 0.01
0.15 0.14 0.14 0.15 0.16 0.17 0.14 0.10 0.08 0.04 0.01 0.00 0.01 0.00 0.00 0.00 0.00 0.00 0.00 0.00 0.00 0.00 0.00 0.00 0.00 0.00 0.00 0.00 0.01 0.00 0.00 0.00 0.02 0.02 0.01 0.01 0.03 0.25 0.12 0.05 0.27 0.09 0.04 0.04 0.00
0.11 0.09 0.09 0.12 0.18 0.16 0.09 0.09 0.08 0.05 0.02 0.00 0.00 0.00 0.00 0.00 0.00 0.00 0.00 0.00 0.00 0.00 0.01 0.00 0.00 0.00 0.00 0.00 0.00 0.00 0.00 0.00 0.00 0.01 0.00 0.00 0.01 0.01 0.00 0.00 0.03 0.05 0.07 0.02 0.00
0.14 0.13 0.13 0.17 0.21 0.13 0.05 0.03 0.02 0.02 0.01 0.00 0.00 0.00 0.00 0.00 0.00 0.00 0.00 0.00 0.00 0.01 0.02 0.02 0.01 0.00 0.00 0.00 0.00 0.00 0.00 0.00 0.00 0.00 0.00 0.00 0.00 0.00 0.00 0.00 0.01 0.01 0.11 0.03 0.00
0.14 0.15 0.20 0.26 0.26 0.15 0.05 0.04 0.02 0.02 0.05 0.01 0.00 0.00 0.00 0.00 0.00 0.00 0.00 0.00 0.00 0.03 0.03 0.02 0.01 0.00 0.01 0.00 0.00 0.00 0.00 0.00 0.00 0.00 0.00 0.00 0.00 0.00 0.01 0.01 0.02 0.00 0.00 0.00 0.00
0.16 0.19 0.23 0.28 0.20 0.04 0.05 0.03 0.01 0.01 0.13 0.02 0.00 0.00 0.00 0.00 0.00 0.00 0.00 0.00 0.00 0.02 0.08 0.07 0.00 0.02 0.00 0.00 0.00 0.00 0.00 0.00 0.00 0.00 0.00 0.00 0.00 0.00 0.00 0.01 0.00 0.00 0.00 0.00 0.02
0.23 0.22 0.21 0.17 0.09 0.06 0.03 0.01 0.01 0.10 0.33 0.02 0.00 0.00 0.00 0.00 0.00 0.00 0.00 0.00 0.00 0.01 0.09 0.09 0.03 0.04 0.02 0.00 0.00 0.01 0.00 0.00 0.00 0.00 0.05 0.02 0.00 0.03 0.05 0.02 0.00 0.01 0.02 0.02 0.03
0.33 0.27 0.29 0.17 0.09 0.05 0.04 0.05 0.18 0.53 0.35 0.01 0.00 0.00 0.00 0.00 0.00 0.00 0.00 0.00 0.00 0.01 0.01 0.01 0.02 0.06 0.03 0.00 0.00 0.00 0.02 0.00 0.00 0.02 0.07 0.01 0.01 0.01 0.01 0.03 0.07 0.14 0.11 0.08 0.07
0.32 0.33 0.31 0.17 0.17 0.07 0.05 0.25 0.56 0.38 0.04 0.00 0.00 0.00 0.00 0.00 0.00 0.00 0.00 0.00 0.00 0.00 0.00 0.00 0.01 0.01 0.01 0.01 0.01 0.02 0.11 0.17 0.19 0.09 0.04 0.00 0.02 0.02 0.06 0.16 0.28 0.32 0.14 0.08 0.06
0.38 0.43 0.30 0.15 0.15 0.15 0.38 0.76 0.57 0.06 0.01 0.01 0.00 0.00 0.00 0.00 0.00 0.00 0.00 0.00 0.00 0.00 0.01 0.06 0.06 0.00 0.01 0.00 0.02 0.02 0.07 0.25 0.35 0.18 0.08 0.15 0.09 0.18 0.36 0.38 0.44 0.32 0.24 0.19 0.23
0.71 0.55 0.46 0.26 0.14 0.22 0.75 0.90 0.19 0.02 0.00 0.00 0.00 0.00 0.00 0.00 0.00 0.00 0.00 0.01 0.02 0.01 0.06 0.11 0.07 0.02 0.01 0.01 0.02 0.08 0.11 0.09 0.47 0.28 0.16 0.12 0.11 0.58 1.05 0.79 1.22 1.33 0.82 0.67 0.55
0.71 0.80 0.66 0.48 0.47 0.81 1.66 0.69 0.03 0.01 0.00 0.00 0.01 0.01 0.01 0.01 0.01 0.01 0.02 0.04 0.05 0.01 0.01 0.06 0.18 0.04 0.02 0.04 0.01 0.07 0.12 0.40 0.63 0.48 0.22 0.01 0.06 0.41 0.67 0.72 0.79 0.66 0.49 0.34 0.25
1.33 1.47 0.90 0.79 1.41 2.20 1.67 0.38 0.04 0.00 0.00 0.01 0.01 0.04 0.05 0.06 0.06 0.06 0.12 0.16 0.04 0.03 0.01 0.02 0.14 0.14 0.12 0.13 0.07 0.10 0.29 0.33 0.39 0.23 0.30 0.18 0.40 0.77 0.64 0.86 0.63 0.17 0.12 0.11 0.05
2.09 1.82 1.01 1.19 2.21 1.72 0.67 0.18 0.04 0.02 0.01 0.01 0.00 0.02 0.08 0.08 0.07 0.11 0.11 0.22 0.14 0.09 0.07 0.11 0.14 0.07 0.07 0.06 0.06 0.16 0.24 0.42 0.77 0.49 0.26 0.27 0.47 0.93 0.75 0.39 0.67 0.31 0.22 0.07 0.02
2.72 2.02 1.87 1.59 1.81 0.78 0.30 0.12 0.06 0.03 0.02 0.02 0.02 0.02 0.05 0.08 0.14 0.11 0.12 0.09 0.15 0.25 0.28 0.19 0.20 0.18 0.14 0.17 0.15 0.20 0.30 0.42 0.55 0.71 0.48 0.51 0.58 0.94 0.71 0.70 0.91 0.46 0.09 0.05 0.05
2.88 2.56 2.99 2.12 0.84 0.51 0.50 0.31 0.09 0.03 0.02 0.03 0.03 0.03 0.06 0.06 0.14 0.15 0.16 0.13 0.12 0.17 0.27 0.34 0.14 0.10 0.13 0.18 0.21 0.20 0.14 0.24 0.74 1.11 0.57 0.29 0.38 1.14 1.30 1.16 0.58 0.18 0.12 0.12 0.11
3.75 1.63 1.06 1.24 0.65 0.36 0.38 0.41 0.27 0.19 0.07 0.05 0.07 0.12 0.10 0.08 0.08 0.10 0.15 0.21 0.14 0.24 0.41 0.46 0.32 0.11 0.06 0.05 0.13 0.14 0.20 0.25 0.44 0.43 0.59 0.42 0.57 0.73 0.83 0.96 0.70 0.33 0.18 0.14 0.14
3.83 0.96 0.50 0.32 0.29 0.42 0.43 0.24 0.12 0.17 0.25 0.12 0.14 0.08 0.09 0.11 0.06 0.13 0.16 0.16 0.24 0.29 0.50 0.48 0.60 0.35 0.11 0.02 0.07 0.13 0.09 0.18 0.29 0.37 0.37 0.28 0.59 0.49 0.52 0.58 0.77 0.60 0.37 0.24 0.19
3.14 0.69 0.86 0.64 0.31 0.60 0.57 0.26 0.12 0.17 0.18 0.05 0.12 0.17 0.11 0.07 0.18 0.19 0.22 0.19 0.24 0.27 0.54 0.35 0.47 0.41 0.47 0.06 0.06 0.12 0.13 0.10 0.19 0.54 0.46 0.67 0.49 0.30 0.45 0.53 0.45 0.58 0.52 0.52 0.33

GFSSW_prec_precacc_126.txt.gz
Total_Precipitation_Accumulation
0.04 0.02 0.02 0.03 0.03 0.03 0.03 0.02 0.02 0.02 0.02 0.02 0.02 0.02 0.02 0.02 0.00 0.00 0.00 0.00 0.00 0.00 0.00 0.00 0.00 0.00 0.00 0.00 0.00 0.00 0.00 0.00 0.00 0.01 0.15 0.23 0.08 0.24 0.13 0.11 0.27 0.31 0.50 0.60 0.85
0.07 0.05 0.04 0.04 0.04 0.03 0.02 0.02 0.02 0.02 0.03 0.03 0.01 0.02 0.02 0.02 0.00 0.00 0.00 0.00 0.00 0.00 0.00 0.00 0.00 0.00 0.00 0.00 0.00 0.00 0.00 0.00 0.00 0.06 0.24 0.13 0.03 0.19 0.09 0.19 0.54 0.38 0.72 0.66 0.43
0.04 0.04 0.04 0.04 0.05 0.04 0.03 0.03 0.02 0.02 0.02 0.01 0.01 0.02 0.02 0.01 0.00 0.00 0.00 0.00 0.00 0.00 0.00 0.00 0.00 0.00 0.00 0.00 0.00 0.00 0.00 0.00 0.02 0.11 0.04 0.02 0.07 0.10 0.32 0.45 0.52 1.13 0.48 0.41 0.49
0.03 0.03 0.04 0.04 0.04 0.03 0.03 0.03 0.03 0.02 0.02 0.01 0.01 0.02 0.02 0.00 0.00 0.00 0.00 0.00 0.00 0.00 0.00 0.00 0.00 0.00 0.00 0.00 0.00 0.00 0.00 0.00 0.01 0.01 0.01 0.00 0.01 0.11 0.35 0.80 0.30 0.32 0.38 0.47 0.75
0.03 0.03 0.03 0.04 0.04 0.03 0.04 0.04 0.03 0.03 0.02 0.01 0.01 0.02 0.01 0.00 0.00 0.00 0.00 0.00 0.00 0.00 0.00 0.00 0.00 0.00 0.00 0.00 0.00 0.00 0.00 0.00 0.01 0.04 0.03 0.00 0.04 0.12 0.30 0.11 0.11 0.16 0.38 0.55 0.56
0.04 0.03 0.03 0.04 0.05 0.05 0.05 0.04 0.03 0.02 0.02 0.02 0.02 0.02 0.00 0.00 0.00 0.00 0.00 0.00 0.00 0.00 0.00 0.00 0.00 0.00 0.00 0.00 0.00 0.00 0.00 0.00 0.00 0.01 0.01 0.02 0.05 0.09 0.39 0.12 0.12 0.12 0.32 0.56 0.58
0.06 0.06 0.06 0.06 0.08 0.09 0.08 0.06 0.04 0.03 0.03 0.02 0.02 0.01 0.00 0.00 0.00 0.00 0.00 0.00 0.00 0.00 0.00 0.00 0.00 0.00 0.00 0.00 0.00 0.00 0.00 0.02 0.03 0.01 0.00 0.05 0.19 0.35 0.13 0.08 0.07 0.03 0.04 0.36 0.86
0.16 0.13 0.12 0.11 0.13 0.13 0.12 0.09 0.06 0.05 0.03 0.02 0.02 0.00 0.00 0.00 0.00 0.00 0.00 0.00 0.00 0.00 0.00 0.00 0.00 0.00 0.00 0.00 0.00 0.00 0.00 0.01 0.04 0.03 0.02 0.15 0.48 0.05 0.03 0.05 0.04 0.01 0.01 0.06 0.10
0.17 0.15 0.12 0.12 0.13 0.14 0.14 0.11 0.09 0.05 0.03 0.01 0.01 0.00 0.00 0.00 0.00 0.00 0.00 0.00 0.00 0.00 0.00 0.00 0.00 0.00 0.00 0.00 0.00 0.00 0.00 0.00 0.01 0.01 0.01 0.05 0.33 0.12 0.05 0.09 0.08 0.02 0.01 0.01 0.01
0.15 0.14 0.14 0.15 0.16 0.17 0.14 0.10 0.08 0.04 0.01 0.00 0.01 0.00 0.00 0.00 0.00 0.00 0.00 0.00 0.00 0.00 0.00 0.00 0.00 0.00 0.00 0.00 0.01 0.00 0.00 0.00 0.02 0.02 0.01 0.01 0.03 0.25 0.12 0.05 0.27 0.09 0.04 0.04 0.00
0.11 0.09 0.09 0.12 0.18 0.16 0.09 0.09 0.08 0.05 0.02 0.00 0.00 0.00 0.00 0.00 0.00 0.00 0.00 0.00 0.00 0.00 0.01 0.00 0.00 0.00 0.00 0.00 0.00 0.00 0.00 0.00 0.00 0.01 0.00 0.00 0.01 0.01 0.00 0.00 0.03 0.05 0.07 0.02 0.00
0.14 0.13 0.13 0.17 0.21 0.13 0.05 0.03 0.02 0.02 0.01 0.00 0.00 0.00 0.00 0.00 0.00 0.00 0.00 0.00 0.00 0.01 0.02 0.02 0.01 0.00 0.00 0.00 0.00 0.00 0.00 0.00 0.00 0.00 0.00 0.00 0.00 0.00 0.00 0.00 0.01 0.01 0.11 0.03 0.00
0.14 0.15 0.20 0.26 0.26 0.16 0.05 0.04 0.02 0.02 0.05 0.01 0.00 0.00 0.00 0.00 0.00 0.00 0.00 0.00 0.00 0.03 0.03 0.02 0.01 0.00 0.01 0.00 0.00 0.00 0.00 0.00 0.00 0.00 0.00 0.00 0.00 0.00 0.01 0.01 0.02 0.00 0.00 0.00 0.00
0.16 0.19 0.23 0.28 0.20 0.04 0.05 0.03 0.01 0.01 0.13 0.02 0.00 0.00 0.00 0.00 0.00 0.00 0.00 0.00 0.00 0.02 0.08 0.07 0.00 0.02 0.00 0.00 0.00 0.00 0.00 0.00 0.00 0.00 0.00 0.00 0.00 0.00 0.00 0.01 0.00 0.00 0.00 0.00 0.02
0.23 0.22 0.21 0.17 0.09 0.06 0.03 0.01 0.01 0.10 0.33 0.02 0.00 0.00 0.00 0.00 0.00 0.00 0.00 0.00 0.00 0.01 0.09 0.09 0.03 0.04 0.02 0.00 0.00 0.01 0.00 0.00 0.00 0.00 0.05 0.02 0.00 0.03 0.05 0.02 0.00 0.01 0.02 0.02 0.03
0.33 0.27 0.29 0.17 0.09 0.05 0.04 0.05 0.18 0.53 0.35 0.01 0.00 0.00 0.00 0.00 0.00 0.00 0.00 0.00 0.00 0.01 0.01 0.01 0.02 0.06 0.03 0.00 0.00 0.00 0.02 0.00 0.00 0.02 0.07 0.01 0.01 0.01 0.01 0.03 0.07 0.14 0.11 0.08 0.07
0.32 0.34 0.31 0.17 0.17 0.07 0.05 0.25 0.56 0.38 0.04 0.00 0.00 0.00 0.00 0.00 0.00 0.00 0.00 0.00 0.00 0.00 0.00 0.00 0.01 0.01 0.01 0.01 0.01 0.02 0.11 0.18 0.19 0.09 0.04 0.00 0.02 0.02 0.06 0.16 0.28 0.32 0.14 0.08 0.06
0.38 0.45 0.30 0.15 0.15 0.15 0.38 0.77 0.57 0.06 0.01 0.01 0.00 0.00 0.00 0.00 0.00 0.00 0.00 0.00 0.00 0.00 0.01 0.06 0.06 0.00 0.01 0.00 0.02 0.02 0.08 0.26 0.36 0.18 0.08 0.15 0.09 0.18 0.36 0.38 0.44 0.32 0.24 0.20 0.24
0.72 0.55 0.46 0.26 0.14 0.22 0.76 0.90 0.19 0.02 0.00 0.00 0.00 0.00 0.00 0.00 0.00 0.00 0.00 0.01 0.02 0.01 0.06 0.11 0.07 0.02 0.01 0.01 0.02 0.08 0.11 0.10 0.48 0.29 0.16 0.12 0.11 0.58 1.05 0.79 1.22 1.33 0.82 0.67 0.55
0.71 0.80 0.66 0.48 0.47 0.82 1.69 0.70 0.03 0.01 0.00 0.00 0.01 0.01 0.01 0.01 0.01 0.01 0.02 0.04 0.05 0.01 0.01 0.06 0.18 0.04 0.02 0.04 0.01 0.07 0.12 0.40 0.63 0.49 0.22 0.01 0.06 0.41 0.67 0.73 0.79 0.66 0.49 0.34 0.25
1.33 1.47 0.90 0.79 1.42 2.20 1.68 0.38 0.04 0.00 0.00 0.01 0.01 0.04 0.05 0.06 0.06 0.06 0.12 0.16 0.04 0.03 0.01 0.02 0.14 0.14 0.12 0.13 0.07 0.10 0.29 0.33 0.40 0.23 0.30 0.18 0.40 0.77 0.64 0.86 0.63 0.17 0.12 0.11 0.05
2.10 1.82 1.01 1.20 2.22 1.72 0.67 0.18 0.04 0.02 0.01 0.01 0.00 0.02 0.08 0.08 0.07 0.11 0.11 0.22 0.14 0.09 0.08 0.12 0.14 0.07 0.07 0.06 0.06 0.16 0.24 0.42 0.77 0.49 0.26 0.27 0.47 0.93 0.75 0.39 0.67 0.31 0.22 0.07 0.02
2.74 2.02 1.88 1.62 1.82 0.78 0.30 0.12 0.06 0.03 0.02 0.02 0.02 0.02 0.06 0.09 0.14 0.11 0.12 0.09 0.15 0.25 0.28 0.22 0.24 0.20 0.14 0.17 0.15 0.20 0.30 0.42 0.55 0.71 0.48 0.51 0.59 0.95 0.72 0.71 0.92 0.46 0.09 0.05 0.05
2.93 2.57 3.01 2.17 0.85 0.52 0.50 0.31 0.09 0.03 0.02 0.03 0.03 0.04 0.06 0.06 0.14 0.15 0.16 0.13 0.12 0.18 0.29 0.37 0.15 0.11 0.14 0.18 0.21 0.20 0.14 0.24 0.74 1.11 0.58 0.29 0.38 1.14 1.31 1.16 0.58 0.18 0.12 0.12 0.11
3.85 1.66 1.06 1.26 0.66 0.37 0.39 0.41 0.27 0.19 0.07 0.05 0.07 0.12 0.10 0.08 0.09 0.10 0.15 0.21 0.14 0.25 0.42 0.48 0.33 0.11 0.07 0.05 0.13 0.14 0.20 0.25 0.44 0.43 0.59 0.43 0.57 0.73 0.83 0.96 0.70 0.33 0.18 0.14 0.14
3.89 0.97 0.51 0.33 0.29 0.42 0.45 0.26 0.12 0.17 0.25 0.13 0.14 0.08 0.10 0.11 0.06 0.13 0.16 0.16 0.24 0.29 0.50 0.49 0.60 0.35 0.11 0.02 0.08 0.13 0.09 0.18 0.29 0.37 0.37 0.28 0.59 0.49 0.52 0.58 0.77 0.60 0.37 0.24 0.19
3.17 0.69 0.88 0.65 0.32 0.61 0.58 0.26 0.12 0.17 0.18 0.05 0.12 0.18 0.11 0.07 0.19 0.20 0.25 0.21 0.24 0.28 0.55 0.39 0.51 0.45 0.52 0.06 0.07 0.13 0.13 0.10 0.19 0.54 0.46 0.67 0.49 0.30 0.45 0.53 0.45 0.58 0.52 0.52 0.33

GFSSW_prec_precacc_129.txt.gz
Total_Precipitation_Accumulation
0.04 0.02 0.03 0.03 0.03 0.03 0.03 0.02 0.02 0.02 0.02 0.02 0.02 0.02 0.02 0.02 0.00 0.00 0.00 0.00 0.00 0.00 0.00 0.00 0.00 0.00 0.00 0.00 0.00 0.00 0.00 0.00 0.00 0.01 0.15 0.23 0.08 0.24 0.13 0.11 0.27 0.31 0.50 0.60 0.85
0.07 0.06 0.04 0.04 0.04 0.03 0.02 0.02 0.02 0.02 0.03 0.03 0.01 0.02 0.02 0.02 0.00 0.00 0.00 0.00 0.00 0.00 0.00 0.00 0.00 0.00 0.00 0.00 0.00 0.00 0.00 0.00 0.00 0.06 0.24 0.13 0.03 0.19 0.09 0.19 0.54 0.38 0.72 0.66 0.43
0.04 0.04 0.04 0.04 0.05 0.04 0.03 0.03 0.02 0.02 0.02 0.01 0.01 0.02 0.02 0.01 0.00 0.00 0.00 0.00 0.00 0.00 0.00 0.00 0.00 0.00 0.00 0.00 0.00 0.00 0.00 0.00 0.02 0.11 0.04 0.02 0.07 0.10 0.32 0.45 0.52 1.13 0.48 0.41 0.49
0.03 0.03 0.04 0.04 0.04 0.03 0.03 0.03 0.03 0.02 0.02 0.01 0.01 0.02 0.02 0.00 0.00 0.00 0.00 0.00 0.00 0.00 0.00 0.00 0.00 0.00 0.00 0.00 0.00 0.00 0.00 0.00 0.01 0.01 0.01 0.00 0.01 0.11 0.35 0.80 0.30 0.32 0.38 0.47 0.75
0.03 0.03 0.03 0.04 0.04 0.03 0.04 0.04 0.03 0.03 0.02 0.01 0.01 0.02 0.01 0.00 0.00 0.00 0.00 0.00 0.00 0.00 0.00 0.00 0.00 0.00 0.00 0.00 0.00 0.00 0.00 0.00 0.01 0.04 0.03 0.00 0.04 0.12 0.30 0.11 0.11 0.16 0.38 0.55 0.56
0.04 0.03 0.03 0.04 0.05 0.05 0.05 0.04 0.03 0.02 0.02 0.02 0.02 0.02 0.00 0.00 0.00 0.00 0.00 0.00 0.00 0.00 0.00 0.00 0.00 0.00 0.00 0.00 0.00 0.00 0.00 0.00 0.00 0.01 0.01 0.02 0.05 0.09 0.39 0.12 0.12 0.12 0.32 0.56 0.58
0.06 0.06 0.06 0.06 0.08 0.09 0.08 0.06 0.04 0.03 0.03 0.02 0.02 0.01 0.00 0.00 0.00 0.00 0.00 0.00 0.00 0.00 0.00 0.00 0.00 0.00 0.00 0.00 0.00 0.00 0.00 0.02 0.03 0.01 0.00 0.05 0.19 0.35 0.13 0.08 0.07 0.03 0.04 0.36 0.86
0.16 0.13 0.12 0.11 0.13 0.13 0.12 0.09 0.06 0.05 0.03 0.02 0.02 0.00 0.00 0.00 0.00 0.00 0.00 0.00 0.00 0.00 0.00 0.00 0.00 0.00 0.00 0.00 0.00 0.00 0.00 0.01 0.04 0.03 0.02 0.15 0.48 0.05 0.03 0.05 0.04 0.01 0.01 0.06 0.10
0.17 0.15 0.12 0.12 0.13 0.14 0.14 0.11 0.09 0.05 0.03 0.01 0.01 0.00 0.00 0.00 0.00 0.00 0.00 0.00 0.00 0.00 0.00 0.00 0.00 0.00 0.00 0.00 0.00 0.00 0.00 0.00 0.01 0.01 0.01 0.05 0.33 0.12 0.05 0.09 0.08 0.02 0.01 0.01 0.01
0.15 0.14 0.14 0.15 0.16 0.17 0.14 0.10 0.08 0.04 0.01 0.00 0.01 0.00 0.00 0.00 0.00 0.00 0.00 0.00 0.00 0.00 0.00 0.00 0.00 0.00 0.00 0.00 0.01 0.00 0.00 0.00 0.02 0.02 0.01 0.01 0.03 0.25 0.12 0.05 0.27 0.09 0.04 0.04 0.00
0.11 0.09 0.09 0.12 0.18 0.16 0.09 0.09 0.08 0.05 0.02 0.00 0.00 0.00 0.00 0.00 0.00 0.00 0.00 0.00 0.00 0.00 0.01 0.00 0.00 0.00 0.00 0.00 0.00 0.00 0.00 0.00 0.00 0.01 0.00 0.00 0.01 0.01 0.00 0.00 0.03 0.05 0.07 0.02 0.00
0.14 0.13 0.13 0.17 0.21 0.13 0.05 0.03 0.02 0.02 0.01 0.00 0.00 0.00 0.00 0.00 0.00 0.00 0.00 0.00 0.00 0.01 0.02 0.02 0.01 0.00 0.00 0.00 0.00 0.00 0.00 0.00 0.00 0.00 0.00 0.00 0.00 0.00 0.00 0.00 0.01 0.01 0.11 0.03 0.00
0.14 0.15 0.20 0.26 0.26 0.16 0.05 0.04 0.02 0.02 0.05 0.01 0.00 0.00 0.00 0.00 0.00 0.00 0.00 0.00 0.00 0.03 0.03 0.02 0.01 0.00 0.01 0.00 0.00 0.00 0.00 0.00 0.00 0.00 0.00 0.00 0.00 0.00 0.01 0.01 0.02 0.00 0.00 0.00 0.00
0.16 0.19 0.23 0.28 0.20 0.04 0.05 0.03 0.01 0.01 0.13 0.02 0.00 0.00 0.00 0.00 0.00 0.00 0.00 0.00 0.00 0.02 0.08 0.07 0.00 0.02 0.00 0.00 0.00 0.00 0.00 0.00 0.00 0.00 0.00 0.00 0.00 0.00 0.00 0.01 0.00 0.00 0.00 0.00 0.02
0.23 0.22 0.21 0.17 0.09 0.06 0.03 0.01 0.01 0.10 0.33 0.02 0.00 0.00 0.00 0.00 0.00 0.00 0.00 0.00 0.00 0.01 0.09 0.09 0.03 0.04 0.02 0.00 0.00 0.01 0.00 0.00 0.00 0.00 0.05 0.02 0.00 0.03 0.05 0.02 0.00 0.01 0.02 0.02 0.03
0.33 0.27 0.29 0.17 0.09 0.05 0.04 0.05 0.18 0.53 0.35 0.01 0.00 0.00 0.00 0.00 0.00 0.00 0.00 0.00 0.00 0.01 0.01 0.01 0.02 0.06 0.03 0.00 0.00 0.00 0.02 0.00 0.00 0.02 0.07 0.01 0.01 0.01 0.01 0.03 0.07 0.14 0.11 0.08 0.07
0.32 0.34 0.31 0.17 0.17 0.07 0.05 0.25 0.56 0.38 0.04 0.00 0.00 0.00 0.00 0.00 0.00 0.00 0.00 0.00 0.00 0.00 0.00 0.00 0.01 0.01 0.01 0.01 0.01 0.02 0.11 0.18 0.19 0.09 0.04 0.00 0.02 0.02 0.06 0.16 0.28 0.32 0.14 0.08 0.06
0.38 0.46 0.30 0.15 0.15 0.15 0.38 0.77 0.57 0.06 0.01 0.01 0.00 0.00 0.00 0.00 0.00 0.00 0.00 0.00 0.00 0.00 0.01 0.06 0.06 0.00 0.01 0.00 0.02 0.02 0.08 0.26 0.36 0.18 0.08 0.15 0.09 0.18 0.36 0.38 0.44 0.32 0.24 0.20 0.24
0.73 0.56 0.46 0.26 0.14 0.22 0.76 0.90 0.19 0.02 0.00 0.00 0.00 0.00 0.00 0.00 0.00 0.00 0.00 0.01 0.02 0.01 0.06 0.11 0.07 0.02 0.01 0.01 0.02 0.08 0.11 0.10 0.49 0.29 0.16 0.12 0.11 0.58 1.05 0.79 1.22 1.33 0.82 0.67 0.55
0.71 0.80 0.66 0.48 0.47 0.82 1.69 0.70 0.03 0.01 0.00 0.00 0.01 0.01 0.01 0.01 0.01 0.01 0.02 0.04 0.05 0.01 0.01 0.06 0.18 0.04 0.02 0.04 0.01 0.07 0.12 0.41 0.64 0.50 0.22 0.01 0.06 0.41 0.67 0.73 0.79 0.66 0.49 0.34 0.25
1.33 1.47 0.90 0.79 1.42 2.20 1.69 0.38 0.04 0.00 0.00 0.01 0.01 0.04 0.05 0.06 0.06 0.06 0.12 0.16 0.04 0.03 0.01 0.02 0.14 0.14 0.12 0.13 0.07 0.10 0.29 0.34 0.42 0.24 0.31 0.18 0.40 0.77 0.64 0.86 0.63 0.17 0.12 0.11 0.05
2.11 1.84 1.01 1.20 2.23 1.72 0.67 0.18 0.04 0.02 0.01 0.01 0.00 0.02 0.08 0.08 0.07 0.11 0.11 0.22 0.14 0.09 0.08 0.12 0.14 0.08 0.07 0.06 0.06 0.16 0.24 0.43 0.79 0.51 0.27 0.28 0.47 0.93 0.75 0.39 0.67 0.31 0.22 0.07 0.02
2.78 2.04 1.90 1.63 1.82 0.78 0.30 0.12 0.06 0.03 0.02 0.02 0.02 0.02 0.06 0.09 0.14 0.11 0.12 0.09 0.15 0.25 0.28 0.23 0.25 0.21 0.15 0.18 0.15 0.22 0.30 0.42 0.56 0.72 0.49 0.54 0.59 0.95 0.72 0.71 0.92 0.47 0.09 0.05 0.05
2.99 2.66 3.11 2.21 0.85 0.52 0.50 0.31 0.09 0.03 0.02 0.03 0.03 0.04 0.06 0.06 0.14 0.15 0.16 0.13 0.12 0.18 0.30 0.39 0.16 0.13 0.15 0.19 0.21 0.20 0.14 0.25 0.75 1.12 0.58 0.29 0.38 1.14 1.31 1.16 0.58 0.18 0.12 0.12 0.11
4.00 1.75 1.09 1.32 0.67 0.37 0.40 0.41 0.27 0.19 0.07 0.05 0.07 0.12 0.10 0.08 0.09 0.10 0.15 0.21 0.14 0.25 0.42 0.49 0.34 0.12 0.07 0.06 0.13 0.14 0.20 0.25 0.44 0.43 0.60 0.43 0.57 0.73 0.83 0.96 0.70 0.33 0.18 0.14 0.14
4.01 1.06 0.52 0.33 0.29 0.42 0.46 0.26 0.13 0.17 0.25 0.13 0.14 0.08 0.10 0.11 0.06 0.13 0.16 0.16 0.24 0.29 0.50 0.49 0.61 0.35 0.11 0.03 0.08 0.13 0.09 0.18 0.29 0.37 0.37 0.28 0.59 0.49 0.52 0.58 0.77 0.60 0.37 0.24 0.19
3.25 0.70 0.88 0.66 0.32 0.61 0.58 0.26 0.12 0.17 0.19 0.05 0.12 0.18 0.11 0.07 0.19 0.20 0.25 0.21 0.24 0.28 0.56 0.39 0.51 0.47 0.54 0.08 0.11 0.17 0.13 0.10 0.19 0.54 0.46 0.67 0.49 0.30 0.45 0.53 0.45 0.58 0.52 0.52 0.33

GFSSW_prec_precacc_132.txt.gz
Total_Precipitation_Accumulation
0.04 0.02 0.03 0.04 0.03 0.03 0.03 0.02 0.02 0.02 0.02 0.02 0.02 0.02 0.02 0.02 0.00 0.00 0.00 0.00 0.00 0.00 0.00 0.00 0.00 0.00 0.00 0.00 0.00 0.00 0.00 0.00 0.00 0.01 0.15 0.23 0.08 0.24 0.13 0.11 0.27 0.31 0.50 0.60 0.85
0.07 0.06 0.04 0.04 0.04 0.03 0.02 0.02 0.02 0.02 0.03 0.03 0.01 0.02 0.02 0.02 0.00 0.00 0.00 0.00 0.00 0.00 0.00 0.00 0.00 0.00 0.00 0.00 0.00 0.00 0.00 0.00 0.00 0.06 0.24 0.13 0.03 0.19 0.09 0.19 0.54 0.38 0.72 0.66 0.43
0.04 0.04 0.04 0.04 0.05 0.04 0.03 0.03 0.02 0.02 0.02 0.01 0.01 0.02 0.02 0.01 0.00 0.00 0.00 0.00 0.00 0.00 0.00 0.00 0.00 0.00 0.00 0.00 0.00 0.00 0.00 0.00 0.02 0.11 0.04 0.02 0.07 0.10 0.32 0.45 0.52 1.13 0.48 0.41 0.49
0.03 0.03 0.04 0.04 0.04 0.03 0.03 0.03 0.03 0.02 0.02 0.01 0.01 0.02 0.02 0.00 0.00 0.00 0.00 0.00 0.00 0.00 0.00 0.00 0.00 0.00 0.00 0.00 0.00 0.00 0.00 0.00 0.01 0.01 0.01 0.00 0.01 0.11 0.35 0.80 0.30 0.32 0.38 0.47 0.75
0.03 0.03 0.03 0.04 0.04 0.03 0.04 0.04 0.03 0.03 0.02 0.01 0.01 0.02 0.01 0.00 0.00 0.00 0.00 0.00 0.00 0.00 0.00 0.00 0.00 0.00 0.00 0.00 0.00 0.00 0.00 0.00 0.01 0.04 0.03 0.00 0.04 0.12 0.30 0.11 0.11 0.16 0.38 0.55 0.56
0.04 0.03 0.03 0.04 0.05 0.05 0.05 0.04 0.03 0.02 0.02 0.02 0.02 0.02 0.00 0.00 0.00 0.00 0.00 0.00 0.00 0.00 0.00 0.00 0.00 0.00 0.00 0.00 0.00 0.00 0.00 0.00 0.00 0.01 0.01 0.02 0.05 0.09 0.39 0.12 0.12 0.12 0.32 0.56 0.58
0.06 0.06 0.06 0.06 0.08 0.09 0.08 0.06 0.04 0.03 0.03 0.02 0.02 0.01 0.00 0.00 0.00 0.00 0.00 0.00 0.00 0.00 0.00 0.00 0.00 0.00 0.00 0.00 0.00 0.00 0.00 0.02 0.03 0.01 0.00 0.05 0.19 0.35 0.13 0.08 0.07 0.03 0.04 0.36 0.86
0.16 0.13 0.12 0.11 0.13 0.13 0.12 0.09 0.06 0.05 0.03 0.02 0.02 0.00 0.00 0.00 0.00 0.00 0.00 0.00 0.00 0.00 0.00 0.00 0.00 0.00 0.00 0.00 0.00 0.00 0.00 0.01 0.04 0.03 0.02 0.15 0.48 0.05 0.03 0.05 0.04 0.01 0.01 0.06 0.10
0.17 0.15 0.12 0.12 0.13 0.14 0.14 0.11 0.09 0.05 0.03 0.01 0.01 0.00 0.00 0.00 0.00 0.00 0.00 0.00 0.00 0.00 0.00 0.00 0.00 0.00 0.00 0.00 0.00 0.00 0.00 0.00 0.01 0.01 0.01 0.05 0.33 0.12 0.05 0.09 0.08 0.02 0.01 0.01 0.01
0.15 0.14 0.14 0.15 0.16 0.17 0.14 0.10 0.08 0.04 0.01 0.00 0.01 0.00 0.00 0.00 0.00 0.00 0.00 0.00 0.00 0.00 0.00 0.00 0.00 0.00 0.00 0.00 0.01 0.00 0.00 0.00 0.02 0.02 0.01 0.01 0.03 0.25 0.12 0.05 0.27 0.09 0.04 0.04 0.00
0.11 0.09 0.09 0.12 0.18 0.16 0.09 0.09 0.08 0.05 0.02 0.00 0.00 0.00 0.00 0.00 0.00 0.00 0.00 0.00 0.00 0.00 0.01 0.00 0.00 0.00 0.00 0.00 0.00 0.00 0.00 0.00 0.00 0.01 0.00 0.00 0.01 0.01 0.00 0.00 0.03 0.05 0.07 0.02 0.00
0.14 0.13 0.13 0.17 0.21 0.13 0.05 0.03 0.02 0.02 0.01 0.00 0.00 0.00 0.00 0.00 0.00 0.00 0.00 0.00 0.00 0.01 0.02 0.02 0.01 0.00 0.00 0.00 0.00 0.00 0.00 0.00 0.00 0.00 0.00 0.00 0.00 0.00 0.00 0.00 0.01 0.01 0.11 0.03 0.00
0.14 0.15 0.20 0.26 0.26 0.16 0.05 0.04 0.02 0.02 0.05 0.01 0.00 0.00 0.00 0.00 0.00 0.00 0.00 0.00 0.00 0.03 0.03 0.02 0.01 0.00 0.01 0.00 0.00 0.00 0.00 0.00 0.00 0.00 0.00 0.00 0.00 0.00 0.01 0.01 0.02 0.00 0.00 0.00 0.00
0.16 0.19 0.23 0.28 0.20 0.04 0.05 0.03 0.01 0.01 0.13 0.02 0.00 0.00 0.00 0.00 0.00 0.00 0.00 0.00 0.00 0.02 0.08 0.07 0.00 0.02 0.00 0.00 0.00 0.00 0.00 0.00 0.00 0.00 0.00 0.00 0.00 0.00 0.00 0.01 0.00 0.00 0.00 0.00 0.02
0.23 0.22 0.21 0.17 0.09 0.06 0.03 0.01 0.01 0.10 0.33 0.02 0.00 0.00 0.00 0.00 0.00 0.00 0.00 0.00 0.00 0.01 0.09 0.09 0.03 0.04 0.02 0.00 0.00 0.01 0.00 0.00 0.00 0.00 0.05 0.02 0.00 0.03 0.05 0.02 0.00 0.01 0.02 0.02 0.03
0.33 0.27 0.29 0.17 0.09 0.05 0.04 0.05 0.18 0.53 0.35 0.01 0.00 0.00 0.00 0.00 0.00 0.00 0.00 0.00 0.00 0.01 0.01 0.01 0.02 0.06 0.03 0.00 0.00 0.00 0.02 0.00 0.00 0.02 0.07 0.01 0.01 0.01 0.01 0.03 0.07 0.14 0.11 0.08 0.07
0.33 0.34 0.31 0.17 0.17 0.07 0.05 0.25 0.56 0.38 0.04 0.00 0.00 0.00 0.00 0.00 0.00 0.00 0.00 0.00 0.00 0.00 0.00 0.00 0.01 0.01 0.01 0.01 0.01 0.02 0.11 0.18 0.19 0.09 0.04 0.00 0.02 0.02 0.06 0.16 0.28 0.32 0.14 0.08 0.06
0.39 0.46 0.30 0.15 0.15 0.15 0.38 0.77 0.57 0.06 0.01 0.01 0.00 0.00 0.00 0.00 0.00 0.00 0.00 0.00 0.00 0.00 0.01 0.06 0.06 0.00 0.01 0.00 0.02 0.02 0.08 0.26 0.36 0.18 0.08 0.15 0.09 0.18 0.36 0.38 0.44 0.32 0.24 0.20 0.24
0.74 0.57 0.46 0.26 0.14 0.22 0.77 0.90 0.19 0.02 0.00 0.00 0.00 0.00 0.00 0.00 0.00 0.00 0.00 0.01 0.02 0.01 0.06 0.11 0.07 0.02 0.01 0.01 0.02 0.08 0.11 0.10 0.49 0.29 0.17 0.12 0.11 0.58 1.05 0.79 1.22 1.33 0.82 0.67 0.55
0.71 0.81 0.66 0.48 0.47 0.82 1.70 0.70 0.03 0.01 0.00 0.00 0.01 0.01 0.01 0.01 0.01 0.01 0.02 0.04 0.05 0.01 0.01 0.06 0.18 0.04 0.02 0.04 0.01 0.07 0.12 0.42 0.68 0.52 0.23 0.01 0.06 0.41 0.67 0.73 0.79 0.66 0.49 0.34 0.25
1.33 1.47 0.90 0.79 1.42 2.21 1.69 0.38 0.04 0.00 0.00 0.01 0.01 0.04 0.05 0.06 0.06 0.06 0.12 0.16 0.04 0.03 0.01 0.02 0.14 0.14 0.12 0.13 0.07 0.10 0.29 0.34 0.46 0.27 0.34 0.19 0.40 0.77 0.64 0.86 0.63 0.17 0.12 0.11 0.05
2.11 1.85 1.01 1.20 2.23 1.72 0.67 0.18 0.04 0.02 0.01 0.01 0.00 0.02 0.08 0.08 0.07 0.11 0.11 0.23 0.14 0.09 0.08 0.12 0.14 0.08 0.07 0.06 0.06 0.16 0.24 0.45 0.85 0.56 0.32 0.32 0.48 0.93 0.75 0.39 0.67 0.31 0.22 0.07 0.02
2.80 2.06 1.90 1.65 1.83 0.78 0.30 0.12 0.06 0.03 0.02 0.02 0.02 0.02 0.06 0.09 0.14 0.11 0.12 0.09 0.15 0.25 0.28 0.24 0.26 0.21 0.15 0.18 0.16 0.22 0.31 0.44 0.59 0.79 0.54 0.61 0.60 0.95 0.72 0.71 0.92 0.47 0.09 0.05 0.05
3.03 2.73 3.20 2.28 0.85 0.52 0.50 0.31 0.09 0.03 0.02 0.03 0.03 0.04 0.06 0.06 0.14 0.15 0.16 0.13 0.12 0.18 0.30 0.41 0.17 0.14 0.16 0.19 0.23 0.22 0.15 0.26 0.78 1.16 0.60 0.30 0.38 1.14 1.31 1.17 0.58 0.18 0.12 0.12 0.11
4.10 1.79 1.13 1.38 0.68 0.37 0.40 0.41 0.27 0.19 0.07 0.05 0.07 0.12 0.10 0.08 0.09 0.10 0.15 0.21 0.14 0.25 0.42 0.50 0.34 0.12 0.07 0.06 0.13 0.14 0.20 0.25 0.45 0.44 0.62 0.43 0.57 0.73 0.83 0.96 0.70 0.33 0.18 0.14 0.14
4.11 1.07 0.53 0.33 0.29 0.43 0.46 0.26 0.13 0.18 0.26 0.13 0.14 0.08 0.10 0.11 0.06 0.13 0.16 0.16 0.24 0.29 0.51 0.50 0.62 0.35 0.11 0.03 0.08 0.13 0.09 0.18 0.29 0.37 0.37 0.28 0.59 0.49 0.52 0.58 0.77 0.60 0.37 0.24 0.19
3.49 0.70 0.88 0.67 0.32 0.62 0.58 0.26 0.12 0.17 0.19 0.06 0.13 0.18 0.12 0.08 0.19 0.21 0.26 0.21 0.25 0.28 0.57 0.40 0.52 0.49 0.55 0.08 0.12 0.18 0.13 0.10 0.19 0.54 0.46 0.68 0.49 0.30 0.45 0.53 0.45 0.58 0.52 0.52 0.33

GFSSW_prec_precacc_135.txt.gz
Total_Precipitation_Accumulation
0.04 0.02 0.03 0.04 0.03 0.03 0.03 0.02 0.02 0.02 0.02 0.02 0.02 0.02 0.02 0.02 0.00 0.00 0.00 0.00 0.00 0.00 0.00 0.00 0.00 0.00 0.00 0.00 0.00 0.00 0.00 0.00 0.00 0.01 0.15 0.23 0.08 0.24 0.13 0.11 0.27 0.31 0.50 0.60 0.85
0.07 0.06 0.04 0.04 0.04 0.03 0.02 0.02 0.02 0.02 0.03 0.03 0.01 0.02 0.02 0.02 0.00 0.00 0.00 0.00 0.00 0.00 0.00 0.00 0.00 0.00 0.00 0.00 0.00 0.00 0.00 0.00 0.00 0.06 0.24 0.13 0.03 0.19 0.09 0.19 0.54 0.38 0.72 0.66 0.43
0.04 0.04 0.04 0.04 0.05 0.04 0.03 0.03 0.02 0.02 0.02 0.01 0.01 0.02 0.02 0.01 0.00 0.00 0.00 0.00 0.00 0.00 0.00 0.00 0.00 0.00 0.00 0.00 0.00 0.00 0.00 0.00 0.02 0.11 0.04 0.02 0.07 0.10 0.32 0.45 0.52 1.13 0.48 0.41 0.49
0.03 0.03 0.04 0.04 0.04 0.03 0.03 0.03 0.03 0.02 0.02 0.01 0.01 0.02 0.02 0.00 0.00 0.00 0.00 0.00 0.00 0.00 0.00 0.00 0.00 0.00 0.00 0.00 0.00 0.00 0.00 0.00 0.01 0.01 0.01 0.00 0.01 0.11 0.35 0.80 0.30 0.32 0.38 0.47 0.75
0.03 0.03 0.03 0.04 0.04 0.03 0.04 0.04 0.03 0.03 0.02 0.01 0.01 0.02 0.01 0.00 0.00 0.00 0.00 0.00 0.00 0.00 0.00 0.00 0.00 0.00 0.00 0.00 0.00 0.00 0.00 0.00 0.01 0.04 0.03 0.00 0.04 0.12 0.30 0.11 0.11 0.16 0.38 0.55 0.56
0.04 0.03 0.03 0.04 0.05 0.05 0.05 0.04 0.03 0.02 0.02 0.02 0.02 0.02 0.00 0.00 0.00 0.00 0.00 0.00 0.00 0.00 0.00 0.00 0.00 0.00 0.00 0.00 0.00 0.00 0.00 0.00 0.00 0.01 0.01 0.02 0.05 0.09 0.39 0.12 0.12 0.12 0.32 0.56 0.58
0.06 0.06 0.06 0.06 0.08 0.09 0.08 0.06 0.04 0.03 0.03 0.02 0.02 0.01 0.00 0.00 0.00 0.00 0.00 0.00 0.00 0.00 0.00 0.00 0.00 0.00 0.00 0.00 0.00 0.00 0.00 0.02 0.03 0.01 0.00 0.05 0.19 0.35 0.13 0.08 0.07 0.03 0.04 0.36 0.86
0.16 0.13 0.12 0.11 0.13 0.13 0.12 0.09 0.06 0.05 0.03 0.02 0.02 0.00 0.00 0.00 0.00 0.00 0.00 0.00 0.00 0.00 0.00 0.00 0.00 0.00 0.00 0.00 0.00 0.00 0.00 0.01 0.04 0.03 0.02 0.15 0.48 0.05 0.03 0.05 0.04 0.01 0.01 0.06 0.10
0.17 0.15 0.12 0.12 0.13 0.14 0.14 0.11 0.09 0.05 0.03 0.01 0.01 0.00 0.00 0.00 0.00 0.00 0.00 0.00 0.00 0.00 0.00 0.00 0.00 0.00 0.00 0.00 0.00 0.00 0.00 0.00 0.01 0.01 0.01 0.05 0.33 0.12 0.05 0.09 0.08 0.02 0.01 0.01 0.01
0.15 0.14 0.14 0.15 0.16 0.17 0.14 0.10 0.08 0.04 0.01 0.00 0.01 0.00 0.00 0.00 0.00 0.00 0.00 0.00 0.00 0.00 0.00 0.00 0.00 0.00 0.00 0.00 0.01 0.00 0.00 0.00 0.02 0.02 0.01 0.01 0.03 0.25 0.12 0.05 0.27 0.09 0.04 0.04 0.00
0.11 0.09 0.09 0.12 0.18 0.16 0.09 0.09 0.08 0.05 0.02 0.00 0.00 0.00 0.00 0.00 0.00 0.00 0.00 0.00 0.00 0.00 0.01 0.00 0.00 0.00 0.00 0.00 0.00 0.00 0.00 0.00 0.00 0.01 0.00 0.00 0.01 0.01 0.00 0.00 0.03 0.05 0.07 0.02 0.00
0.14 0.13 0.13 0.17 0.21 0.13 0.05 0.03 0.02 0.02 0.01 0.00 0.00 0.00 0.00 0.00 0.00 0.00 0.00 0.00 0.00 0.01 0.02 0.02 0.01 0.00 0.00 0.00 0.00 0.00 0.00 0.00 0.00 0.00 0.00 0.00 0.00 0.00 0.00 0.00 0.01 0.01 0.11 0.03 0.00
0.14 0.15 0.20 0.26 0.26 0.16 0.05 0.04 0.02 0.02 0.05 0.01 0.00 0.00 0.00 0.00 0.00 0.00 0.00 0.00 0.00 0.03 0.03 0.02 0.01 0.00 0.01 0.00 0.00 0.00 0.00 0.00 0.00 0.00 0.00 0.00 0.00 0.00 0.01 0.01 0.02 0.00 0.00 0.00 0.00
0.16 0.19 0.23 0.28 0.20 0.04 0.05 0.03 0.01 0.01 0.13 0.02 0.00 0.00 0.00 0.00 0.00 0.00 0.00 0.00 0.00 0.02 0.08 0.07 0.00 0.02 0.00 0.00 0.00 0.00 0.00 0.00 0.00 0.00 0.00 0.00 0.00 0.00 0.00 0.01 0.00 0.00 0.00 0.00 0.02
0.23 0.22 0.21 0.17 0.09 0.06 0.03 0.01 0.01 0.10 0.33 0.02 0.00 0.00 0.00 0.00 0.00 0.00 0.00 0.00 0.00 0.01 0.09 0.09 0.03 0.04 0.02 0.00 0.00 0.01 0.00 0.00 0.00 0.00 0.05 0.02 0.00 0.03 0.05 0.02 0.00 0.01 0.02 0.02 0.03
0.33 0.27 0.29 0.17 0.09 0.05 0.04 0.05 0.18 0.53 0.35 0.01 0.00 0.00 0.00 0.00 0.00 0.00 0.00 0.00 0.00 0.01 0.01 0.01 0.02 0.06 0.03 0.00 0.00 0.00 0.02 0.00 0.00 0.02 0.07 0.01 0.01 0.01 0.01 0.03 0.07 0.14 0.11 0.08 0.07
0.33 0.34 0.31 0.17 0.17 0.07 0.05 0.25 0.56 0.38 0.04 0.00 0.00 0.00 0.00 0.00 0.00 0.00 0.00 0.00 0.00 0.00 0.00 0.00 0.01 0.01 0.01 0.01 0.01 0.02 0.11 0.18 0.19 0.09 0.04 0.00 0.02 0.02 0.06 0.16 0.28 0.32 0.14 0.08 0.06
0.39 0.46 0.30 0.15 0.15 0.15 0.39 0.77 0.57 0.06 0.01 0.01 0.00 0.00 0.00 0.00 0.00 0.00 0.00 0.00 0.00 0.00 0.01 0.06 0.06 0.00 0.01 0.00 0.02 0.02 0.08 0.26 0.36 0.18 0.08 0.15 0.09 0.18 0.36 0.38 0.44 0.32 0.24 0.20 0.24
0.75 0.58 0.47 0.26 0.14 0.22 0.77 0.90 0.19 0.02 0.00 0.00 0.00 0.00 0.00 0.00 0.00 0.00 0.00 0.01 0.02 0.01 0.06 0.11 0.07 0.02 0.01 0.01 0.02 0.08 0.11 0.10 0.50 0.29 0.17 0.12 0.11 0.58 1.05 0.79 1.22 1.33 0.82 0.67 0.55
0.72 0.82 0.66 0.48 0.47 0.82 1.70 0.70 0.03 0.01 0.00 0.00 0.01 0.01 0.01 0.01 0.01 0.01 0.02 0.04 0.05 0.01 0.01 0.06 0.18 0.04 0.02 0.04 0.01 0.07 0.12 0.42 0.69 0.55 0.24 0.01 0.06 0.41 0.67 0.73 0.79 0.66 0.49 0.34 0.25
1.35 1.49 0.91 0.79 1.42 2.21 1.70 0.38 0.04 0.00 0.00 0.01 0.01 0.04 0.05 0.06 0.06 0.06 0.12 0.16 0.04 0.03 0.01 0.02 0.14 0.14 0.12 0.13 0.07 0.10 0.30 0.35 0.47 0.28 0.36 0.20 0.40 0.77 0.64 0.86 0.63 0.17 0.12 0.11 0.05
2.14 1.88 1.03 1.20 2.23 1.72 0.67 0.18 0.04 0.02 0.01 0.01 0.00 0.02 0.08 0.08 0.07 0.11 0.11 0.23 0.14 0.09 0.08 0.12 0.14 0.08 0.07 0.06 0.06 0.16 0.24 0.46 0.91 0.59 0.36 0.40 0.52 0.93 0.75 0.39 0.67 0.31 0.22 0.07 0.02
2.82 2.08 1.92 1.68 1.84 0.78 0.30 0.12 0.06 0.03 0.02 0.02 0.02 0.02 0.06 0.09 0.14 0.11 0.12 0.09 0.15 0.25 0.28 0.24 0.26 0.21 0.15 0.18 0.16 0.23 0.31 0.44 0.62 0.84 0.60 0.69 0.64 0.95 0.72 0.71 0.92 0.47 0.09 0.05 0.05
3.13 2.81 3.27 2.31 0.86 0.52 0.50 0.31 0.09 0.03 0.02 0.03 0.03 0.04 0.06 0.06 0.14 0.15 0.16 0.13 0.12 0.18 0.30 0.41 0.17 0.14 0.16 0.19 0.24 0.23 0.17 0.28 0.83 1.24 0.64 0.32 0.38 1.14 1.31 1.18 0.59 0.19 0.13 0.12 0.11
4.33 1.90 1.15 1.41 0.69 0.38 0.40 0.41 0.27 0.19 0.07 0.05 0.07 0.12 0.10 0.08 0.09 0.10 0.15 0.21 0.14 0.25 0.42 0.50 0.34 0.13 0.07 0.06 0.13 0.14 0.20 0.25 0.45 0.44 0.64 0.44 0.58 0.73 0.83 0.96 0.71 0.34 0.19 0.15 0.14
4.43 1.19 0.54 0.33 0.29 0.43 0.47 0.26 0.13 0.18 0.26 0.13 0.14 0.08 0.10 0.11 0.06 0.13 0.16 0.16 0.24 0.29 0.51 0.51 0.62 0.36 0.11 0.03 0.08 0.13 0.09 0.18 0.29 0.37 0.37 0.28 0.59 0.49 0.53 0.58 0.77 0.60 0.38 0.24 0.19
3.78 0.77 0.90 0.69 0.34 0.63 0.58 0.26 0.12 0.17 0.19 0.06 0.13 0.18 0.12 0.08 0.19 0.21 0.26 0.21 0.25 0.29 0.58 0.42 0.54 0.51 0.56 0.09 0.14 0.19 0.13 0.10 0.19 0.54 0.46 0.68 0.49 0.30 0.45 0.55 0.47 0.58 0.52 0.52 0.33

GFSSW_prec_precacc_138.txt.gz
Total_Precipitation_Accumulation
0.04 0.02 0.03 0.04 0.03 0.03 0.03 0.02 0.02 0.02 0.02 0.02 0.02 0.02 0.02 0.02 0.00 0.00 0.00 0.00 0.00 0.00 0.00 0.00 0.00 0.00 0.00 0.00 0.00 0.00 0.00 0.00 0.00 0.01 0.15 0.23 0.08 0.24 0.13 0.11 0.27 0.31 0.50 0.60 0.85
0.08 0.06 0.05 0.04 0.04 0.03 0.02 0.02 0.02 0.02 0.03 0.03 0.01 0.02 0.02 0.02 0.00 0.00 0.00 0.00 0.00 0.00 0.00 0.00 0.00 0.00 0.00 0.00 0.00 0.00 0.00 0.00 0.00 0.06 0.24 0.13 0.03 0.19 0.09 0.19 0.54 0.38 0.72 0.66 0.43
0.04 0.04 0.04 0.04 0.05 0.04 0.03 0.03 0.02 0.02 0.02 0.01 0.01 0.02 0.02 0.01 0.00 0.00 0.00 0.00 0.00 0.00 0.00 0.00 0.00 0.00 0.00 0.00 0.00 0.00 0.00 0.00 0.02 0.11 0.04 0.02 0.07 0.10 0.32 0.45 0.52 1.13 0.48 0.41 0.49
0.03 0.03 0.04 0.04 0.04 0.03 0.03 0.03 0.03 0.02 0.02 0.01 0.01 0.02 0.02 0.00 0.00 0.00 0.00 0.00 0.00 0.00 0.00 0.00 0.00 0.00 0.00 0.00 0.00 0.00 0.00 0.00 0.01 0.01 0.01 0.00 0.01 0.11 0.35 0.80 0.30 0.32 0.38 0.47 0.75
0.03 0.03 0.03 0.04 0.04 0.03 0.04 0.04 0.03 0.03 0.02 0.01 0.01 0.02 0.01 0.00 0.00 0.00 0.00 0.00 0.00 0.00 0.00 0.00 0.00 0.00 0.00 0.00 0.00 0.00 0.00 0.00 0.01 0.04 0.03 0.00 0.04 0.12 0.30 0.11 0.11 0.16 0.38 0.55 0.56
0.04 0.03 0.03 0.04 0.05 0.05 0.05 0.04 0.03 0.02 0.02 0.02 0.02 0.02 0.00 0.00 0.00 0.00 0.00 0.00 0.00 0.00 0.00 0.00 0.00 0.00 0.00 0.00 0.00 0.00 0.00 0.00 0.00 0.01 0.01 0.02 0.05 0.09 0.39 0.12 0.12 0.12 0.32 0.56 0.58
0.06 0.06 0.06 0.06 0.08 0.09 0.08 0.06 0.04 0.03 0.03 0.02 0.02 0.01 0.00 0.00 0.00 0.00 0.00 0.00 0.00 0.00 0.00 0.00 0.00 0.00 0.00 0.00 0.00 0.00 0.00 0.02 0.03 0.01 0.00 0.05 0.19 0.35 0.13 0.08 0.07 0.03 0.04 0.36 0.86
0.16 0.13 0.12 0.11 0.13 0.13 0.12 0.09 0.06 0.05 0.03 0.02 0.02 0.00 0.00 0.00 0.00 0.00 0.00 0.00 0.00 0.00 0.00 0.00 0.00 0.00 0.00 0.00 0.00 0.00 0.00 0.01 0.04 0.03 0.02 0.15 0.48 0.05 0.03 0.05 0.04 0.01 0.01 0.06 0.10
0.17 0.15 0.12 0.12 0.13 0.14 0.14 0.11 0.09 0.05 0.03 0.01 0.01 0.00 0.00 0.00 0.00 0.00 0.00 0.00 0.00 0.00 0.00 0.00 0.00 0.00 0.00 0.00 0.00 0.00 0.00 0.00 0.01 0.01 0.01 0.05 0.33 0.12 0.05 0.09 0.08 0.02 0.01 0.01 0.01
0.15 0.14 0.14 0.15 0.16 0.17 0.14 0.10 0.08 0.04 0.01 0.00 0.01 0.00 0.00 0.00 0.00 0.00 0.00 0.00 0.00 0.00 0.00 0.00 0.00 0.00 0.00 0.00 0.01 0.00 0.00 0.00 0.02 0.02 0.01 0.01 0.03 0.25 0.12 0.05 0.27 0.09 0.04 0.04 0.00
0.11 0.09 0.09 0.12 0.18 0.16 0.09 0.09 0.08 0.05 0.02 0.00 0.00 0.00 0.00 0.00 0.00 0.00 0.00 0.00 0.00 0.00 0.01 0.00 0.00 0.00 0.00 0.00 0.00 0.00 0.00 0.00 0.00 0.01 0.00 0.00 0.01 0.01 0.00 0.00 0.03 0.05 0.07 0.02 0.00
0.15 0.13 0.13 0.17 0.21 0.13 0.05 0.03 0.02 0.02 0.01 0.00 0.00 0.00 0.00 0.00 0.00 0.00 0.00 0.00 0.00 0.01 0.02 0.02 0.01 0.00 0.00 0.00 0.00 0.00 0.00 0.00 0.00 0.00 0.00 0.00 0.00 0.00 0.00 0.00 0.01 0.01 0.11 0.03 0.00
0.14 0.15 0.20 0.26 0.26 0.16 0.05 0.04 0.02 0.02 0.05 0.01 0.00 0.00 0.00 0.00 0.00 0.00 0.00 0.00 0.00 0.03 0.03 0.02 0.01 0.00 0.01 0.00 0.00 0.00 0.00 0.00 0.00 0.00 0.00 0.00 0.00 0.00 0.01 0.01 0.02 0.00 0.00 0.00 0.00
0.16 0.19 0.23 0.28 0.20 0.04 0.05 0.03 0.01 0.01 0.13 0.02 0.00 0.00 0.00 0.00 0.00 0.00 0.00 0.00 0.00 0.02 0.08 0.07 0.00 0.02 0.00 0.00 0.00 0.00 0.00 0.00 0.00 0.00 0.00 0.00 0.00 0.00 0.00 0.01 0.00 0.00 0.00 0.00 0.02
0.23 0.22 0.21 0.17 0.09 0.06 0.03 0.01 0.01 0.10 0.33 0.02 0.00 0.00 0.00 0.00 0.00 0.00 0.00 0.00 0.00 0.01 0.09 0.09 0.03 0.04 0.02 0.00 0.00 0.01 0.00 0.00 0.00 0.00 0.05 0.02 0.00 0.03 0.05 0.02 0.00 0.01 0.02 0.02 0.03
0.33 0.27 0.29 0.17 0.09 0.05 0.04 0.05 0.18 0.53 0.35 0.01 0.00 0.00 0.00 0.00 0.00 0.00 0.00 0.00 0.00 0.01 0.01 0.01 0.02 0.06 0.03 0.00 0.00 0.00 0.02 0.00 0.00 0.02 0.07 0.01 0.01 0.01 0.01 0.03 0.07 0.14 0.11 0.08 0.07
0.33 0.34 0.31 0.17 0.17 0.07 0.05 0.25 0.56 0.38 0.04 0.00 0.00 0.00 0.00 0.00 0.00 0.00 0.00 0.00 0.00 0.00 0.00 0.00 0.01 0.01 0.01 0.01 0.01 0.02 0.11 0.18 0.19 0.09 0.04 0.00 0.02 0.02 0.06 0.16 0.28 0.32 0.14 0.08 0.06
0.39 0.46 0.30 0.15 0.15 0.15 0.39 0.77 0.57 0.06 0.01 0.01 0.00 0.00 0.00 0.00 0.00 0.00 0.00 0.00 0.00 0.00 0.01 0.06 0.06 0.00 0.01 0.00 0.02 0.02 0.08 0.26 0.36 0.18 0.08 0.15 0.09 0.18 0.36 0.38 0.44 0.32 0.24 0.20 0.24
0.77 0.58 0.47 0.26 0.14 0.22 0.78 0.91 0.19 0.02 0.00 0.00 0.00 0.00 0.00 0.00 0.00 0.00 0.00 0.01 0.02 0.01 0.06 0.11 0.07 0.02 0.01 0.01 0.02 0.08 0.11 0.10 0.50 0.29 0.17 0.12 0.11 0.58 1.05 0.79 1.22 1.33 0.82 0.67 0.55
0.75 0.85 0.67 0.48 0.47 0.82 1.71 0.70 0.03 0.01 0.00 0.00 0.01 0.01 0.01 0.01 0.01 0.01 0.02 0.04 0.05 0.01 0.01 0.06 0.18 0.04 0.02 0.04 0.01 0.07 0.12 0.42 0.70 0.57 0.25 0.01 0.06 0.41 0.67 0.73 0.79 0.66 0.49 0.34 0.25
1.40 1.56 0.93 0.79 1.42 2.22 1.70 0.38 0.04 0.00 0.00 0.01 0.01 0.04 0.05 0.06 0.06 0.06 0.12 0.16 0.04 0.03 0.01 0.02 0.14 0.14 0.12 0.13 0.07 0.10 0.30 0.35 0.48 0.29 0.36 0.20 0.40 0.77 0.65 0.86 0.64 0.19 0.16 0.14 0.06
2.20 1.93 1.08 1.21 2.23 1.73 0.67 0.18 0.04 0.02 0.01 0.01 0.00 0.02 0.08 0.08 0.07 0.11 0.11 0.23 0.14 0.09 0.08 0.12 0.14 0.08 0.07 0.06 0.06 0.16 0.24 0.46 0.95 0.63 0.38 0.44 0.57 0.93 0.76 0.40 0.68 0.32 0.24 0.10 0.08
2.97 2.15 1.97 1.72 1.86 0.78 0.30 0.12 0.06 0.03 0.02 0.02 0.02 0.02 0.06 0.09 0.14 0.11 0.12 0.09 0.15 0.25 0.28 0.24 0.26 0.21 0.15 0.18 0.16 0.23 0.31 0.44 0.62 0.85 0.60 0.71 0.65 0.95 0.72 0.71 0.92 0.48 0.10 0.06 0.10
3.29 2.94 3.34 2.34 0.86 0.52 0.50 0.31 0.09 0.03 0.02 0.03 0.03 0.04 0.06 0.06 0.14 0.15 0.16 0.13 0.12 0.18 0.30 0.41 0.17 0.14 0.16 0.19 0.24 0.24 0.17 0.28 0.85 1.30 0.68 0.34 0.40 1.14 1.31 1.19 0.59 0.20 0.15 0.15 0.22
4.63 2.03 1.18 1.43 0.69 0.38 0.40 0.41 0.27 0.19 0.07 0.05 0.07 0.12 0.10 0.08 0.09 0.10 0.15 0.21 0.15 0.25 0.42 0.50 0.34 0.13 0.07 0.06 0.13 0.14 0.20 0.25 0.45 0.45 0.67 0.44 0.59 0.73 0.83 0.96 0.72 0.37 0.23 0.24 0.28
4.76 1.29 0.56 0.34 0.29 0.44 0.48 0.26 0.13 0.18 0.26 0.13 0.14 0.08 0.10 0.11 0.06 0.13 0.16 0.16 0.24 0.29 0.51 0.51 0.62 0.36 0.11 0.03 0.08 0.13 0.09 0.18 0.29 0.37 0.37 0.28 0.59 0.49 0.53 0.58 0.77 0.60 0.41 0.30 0.27
4.12 0.89 0.95 0.72 0.36 0.64 0.59 0.26 0.12 0.17 0.19 0.06 0.13 0.18 0.12 0.08 0.19 0.21 0.26 0.22 0.25 0.29 0.58 0.42 0.56 0.54 0.57 0.09 0.15 0.19 0.13 0.10 0.19 0.54 0.46 0.68 0.49 0.30 0.45 0.56 0.47 0.59 0.53 0.56 0.37

GFSSW_prec_precacc_141.txt.gz
Total_Precipitation_Accumulation
0.04 0.02 0.03 0.04 0.03 0.03 0.03 0.02 0.02 0.02 0.02 0.02 0.02 0.02 0.02 0.02 0.00 0.00 0.00 0.00 0.00 0.00 0.00 0.00 0.00 0.00 0.00 0.00 0.00 0.00 0.00 0.00 0.00 0.01 0.15 0.23 0.08 0.24 0.13 0.11 0.27 0.31 0.50 0.60 0.85
0.08 0.06 0.05 0.04 0.04 0.03 0.02 0.02 0.02 0.02 0.03 0.03 0.01 0.02 0.02 0.02 0.00 0.00 0.00 0.00 0.00 0.00 0.00 0.00 0.00 0.00 0.00 0.00 0.00 0.00 0.00 0.00 0.00 0.06 0.24 0.13 0.03 0.19 0.09 0.19 0.54 0.38 0.72 0.66 0.43
0.04 0.04 0.04 0.04 0.05 0.04 0.03 0.03 0.02 0.02 0.02 0.01 0.01 0.02 0.02 0.01 0.00 0.00 0.00 0.00 0.00 0.00 0.00 0.00 0.00 0.00 0.00 0.00 0.00 0.00 0.00 0.00 0.02 0.11 0.04 0.02 0.07 0.10 0.32 0.45 0.52 1.13 0.48 0.41 0.49
0.03 0.03 0.04 0.04 0.04 0.03 0.03 0.03 0.03 0.02 0.02 0.01 0.01 0.02 0.02 0.00 0.00 0.00 0.00 0.00 0.00 0.00 0.00 0.00 0.00 0.00 0.00 0.00 0.00 0.00 0.00 0.00 0.01 0.01 0.01 0.00 0.01 0.11 0.35 0.80 0.30 0.32 0.38 0.47 0.75
0.03 0.03 0.03 0.04 0.04 0.03 0.04 0.04 0.03 0.03 0.02 0.01 0.01 0.02 0.01 0.00 0.00 0.00 0.00 0.00 0.00 0.00 0.00 0.00 0.00 0.00 0.00 0.00 0.00 0.00 0.00 0.00 0.01 0.04 0.03 0.00 0.04 0.12 0.30 0.11 0.11 0.16 0.38 0.55 0.56
0.04 0.03 0.03 0.04 0.05 0.05 0.05 0.04 0.03 0.02 0.02 0.02 0.02 0.02 0.00 0.00 0.00 0.00 0.00 0.00 0.00 0.00 0.00 0.00 0.00 0.00 0.00 0.00 0.00 0.00 0.00 0.00 0.00 0.01 0.01 0.02 0.05 0.09 0.39 0.12 0.12 0.12 0.32 0.56 0.58
0.06 0.06 0.06 0.06 0.08 0.09 0.08 0.06 0.04 0.03 0.03 0.02 0.02 0.01 0.00 0.00 0.00 0.00 0.00 0.00 0.00 0.00 0.00 0.00 0.00 0.00 0.00 0.00 0.00 0.00 0.00 0.02 0.03 0.01 0.00 0.05 0.19 0.35 0.13 0.08 0.07 0.03 0.04 0.36 0.86
0.16 0.13 0.12 0.11 0.13 0.13 0.12 0.09 0.06 0.05 0.03 0.02 0.02 0.00 0.00 0.00 0.00 0.00 0.00 0.00 0.00 0.00 0.00 0.00 0.00 0.00 0.00 0.00 0.00 0.00 0.00 0.01 0.04 0.03 0.02 0.15 0.48 0.05 0.03 0.05 0.04 0.01 0.01 0.06 0.10
0.17 0.15 0.12 0.12 0.13 0.14 0.14 0.11 0.09 0.05 0.03 0.01 0.01 0.00 0.00 0.00 0.00 0.00 0.00 0.00 0.00 0.00 0.00 0.00 0.00 0.00 0.00 0.00 0.00 0.00 0.00 0.00 0.01 0.01 0.01 0.05 0.33 0.12 0.05 0.09 0.08 0.02 0.01 0.01 0.01
0.15 0.14 0.14 0.15 0.16 0.17 0.14 0.10 0.08 0.04 0.01 0.00 0.01 0.00 0.00 0.00 0.00 0.00 0.00 0.00 0.00 0.00 0.00 0.00 0.00 0.00 0.00 0.00 0.01 0.00 0.00 0.00 0.02 0.02 0.01 0.01 0.03 0.25 0.12 0.05 0.27 0.09 0.04 0.04 0.00
0.14 0.10 0.09 0.12 0.18 0.16 0.09 0.09 0.08 0.05 0.02 0.00 0.00 0.00 0.00 0.00 0.00 0.00 0.00 0.00 0.00 0.00 0.01 0.00 0.00 0.00 0.00 0.00 0.00 0.00 0.00 0.00 0.00 0.01 0.00 0.00 0.01 0.01 0.00 0.00 0.03 0.05 0.07 0.02 0.00
0.18 0.15 0.13 0.17 0.21 0.13 0.05 0.03 0.02 0.02 0.01 0.00 0.00 0.00 0.00 0.00 0.00 0.00 0.00 0.00 0.00 0.01 0.02 0.02 0.01 0.00 0.00 0.00 0.00 0.00 0.00 0.00 0.00 0.00 0.00 0.00 0.00 0.00 0.00 0.00 0.01 0.01 0.11 0.03 0.00
0.15 0.15 0.20 0.26 0.26 0.16 0.05 0.04 0.02 0.02 0.05 0.01 0.00 0.00 0.00 0.00 0.00 0.00 0.00 0.00 0.00 0.03 0.03 0.02 0.01 0.00 0.01 0.00 0.00 0.00 0.00 0.00 0.00 0.00 0.00 0.00 0.00 0.00 0.01 0.01 0.02 0.00 0.00 0.00 0.00
0.17 0.19 0.23 0.28 0.20 0.04 0.05 0.03 0.01 0.01 0.13 0.02 0.00 0.00 0.00 0.00 0.00 0.00 0.00 0.00 0.00 0.02 0.08 0.07 0.00 0.02 0.00 0.00 0.00 0.00 0.00 0.00 0.00 0.00 0.00 0.00 0.00 0.00 0.00 0.01 0.00 0.00 0.00 0.00 0.02
0.23 0.22 0.21 0.17 0.09 0.06 0.03 0.01 0.01 0.10 0.33 0.02 0.00 0.00 0.00 0.00 0.00 0.00 0.00 0.00 0.00 0.01 0.09 0.09 0.03 0.04 0.02 0.00 0.00 0.01 0.00 0.00 0.00 0.00 0.05 0.02 0.00 0.03 0.05 0.02 0.00 0.01 0.02 0.02 0.03
0.33 0.27 0.29 0.17 0.09 0.05 0.04 0.05 0.18 0.53 0.35 0.01 0.00 0.00 0.00 0.00 0.00 0.00 0.00 0.00 0.00 0.01 0.01 0.01 0.02 0.06 0.03 0.00 0.00 0.00 0.02 0.00 0.00 0.02 0.07 0.01 0.01 0.01 0.01 0.03 0.07 0.14 0.11 0.08 0.07
0.33 0.34 0.31 0.17 0.17 0.07 0.05 0.25 0.56 0.39 0.04 0.00 0.00 0.00 0.00 0.00 0.00 0.00 0.00 0.00 0.00 0.00 0.00 0.00 0.01 0.01 0.01 0.01 0.01 0.02 0.11 0.18 0.19 0.09 0.04 0.00 0.02 0.02 0.06 0.16 0.28 0.32 0.14 0.08 0.06
0.39 0.46 0.30 0.15 0.15 0.15 0.39 0.78 0.57 0.06 0.01 0.01 0.00 0.00 0.00 0.00 0.00 0.00 0.00 0.00 0.00 0.00 0.01 0.06 0.06 0.00 0.01 0.00 0.02 0.02 0.08 0.26 0.36 0.18 0.08 0.15 0.09 0.18 0.36 0.38 0.44 0.32 0.24 0.20 0.24
0.82 0.59 0.47 0.26 0.14 0.22 0.78 0.91 0.19 0.02 0.00 0.00 0.00 0.00 0.00 0.00 0.00 0.00 0.00 0.01 0.02 0.01 0.06 0.11 0.07 0.02 0.01 0.01 0.02 0.08 0.11 0.10 0.50 0.29 0.17 0.12 0.11 0.58 1.05 0.79 1.22 1.33 0.82 0.67 0.55
0.91 0.90 0.67 0.48 0.47 0.82 1.72 0.70 0.03 0.01 0.00 0.00 0.01 0.01 0.01 0.01 0.01 0.01 0.02 0.04 0.05 0.01 0.01 0.06 0.18 0.04 0.02 0.04 0.01 0.07 0.12 0.42 0.70 0.57 0.25 0.01 0.06 0.41 0.67 0.73 0.80 0.67 0.51 0.37 0.29
1.59 1.78 0.96 0.80 1.42 2.23 1.71 0.38 0.04 0.00 0.00 0.01 0.01 0.04 0.05 0.06 0.06 0.06 0.12 0.16 0.04 0.03 0.01 0.02 0.14 0.14 0.12 0.13 0.07 0.10 0.30 0.35 0.48 0.29 0.37 0.20 0.40 0.77 0.65 0.86 0.64 0.20 0.18 0.19 0.21
2.34 2.05 1.10 1.24 2.28 1.73 0.67 0.18 0.04 0.02 0.01 0.01 0.00 0.02 0.08 0.08 0.07 0.11 0.11 0.23 0.14 0.09 0.08 0.12 0.14 0.08 0.07 0.06 0.06 0.16 0.24 0.46 0.96 0.64 0.39 0.45 0.58 0.93 0.76 0.40 0.69 0.32 0.24 0.11 0.13
3.28 2.24 2.03 1.75 1.95 0.79 0.30 0.12 0.06 0.03 0.02 0.02 0.02 0.02 0.06 0.09 0.14 0.11 0.12 0.09 0.15 0.25 0.28 0.24 0.26 0.21 0.15 0.18 0.16 0.23 0.31 0.44 0.62 0.85 0.61 0.73 0.65 0.95 0.72 0.71 0.92 0.48 0.10 0.07 0.16
3.58 3.14 3.49 2.40 0.87 0.52 0.50 0.31 0.09 0.03 0.02 0.03 0.03 0.04 0.06 0.06 0.14 0.15 0.16 0.13 0.12 0.18 0.30 0.41 0.17 0.14 0.16 0.19 0.24 0.24 0.17 0.28 0.85 1.31 0.69 0.35 0.40 1.14 1.31 1.19 0.59 0.20 0.15 0.15 0.22
5.12 2.27 1.30 1.57 0.71 0.38 0.40 0.41 0.27 0.19 0.07 0.05 0.07 0.12 0.10 0.08 0.09 0.10 0.15 0.21 0.15 0.25 0.42 0.50 0.34 0.13 0.07 0.06 0.13 0.14 0.20 0.25 0.45 0.45 0.68 0.44 0.59 0.73 0.83 0.96 0.72 0.37 0.23 0.24 0.28
5.30 1.56 0.64 0.34 0.29 0.44 0.48 0.26 0.13 0.18 0.26 0.13 0.14 0.08 0.10 0.11 0.06 0.13 0.16 0.16 0.24 0.29 0.51 0.51 0.62 0.36 0.11 0.03 0.08 0.13 0.09 0.18 0.29 0.37 0.37 0.28 0.59 0.49 0.53 0.58 0.77 0.60 0.41 0.31 0.29
4.78 1.16 1.09 0.77 0.36 0.65 0.59 0.26 0.12 0.17 0.19 0.06 0.13 0.18 0.12 0.08 0.19 0.21 0.26 0.22 0.25 0.29 0.59 0.44 0.58 0.56 0.58 0.09 0.16 0.19 0.13 0.10 0.19 0.54 0.46 0.68 0.49 0.30 0.45 0.56 0.47 0.59 0.54 0.58 0.41

GFSSW_prec_precacc_144.txt.gz
Total_Precipitation_Accumulation
0.04 0.02 0.03 0.04 0.03 0.03 0.03 0.02 0.02 0.02 0.02 0.02 0.02 0.02 0.02 0.02 0.00 0.00 0.00 0.00 0.00 0.00 0.00 0.00 0.00 0.00 0.00 0.00 0.00 0.00 0.00 0.00 0.00 0.01 0.15 0.23 0.08 0.24 0.13 0.11 0.27 0.31 0.50 0.60 0.85
0.08 0.06 0.05 0.04 0.04 0.03 0.02 0.02 0.02 0.02 0.03 0.03 0.01 0.02 0.02 0.02 0.00 0.00 0.00 0.00 0.00 0.00 0.00 0.00 0.00 0.00 0.00 0.00 0.00 0.00 0.00 0.00 0.00 0.06 0.24 0.13 0.03 0.19 0.09 0.19 0.54 0.38 0.72 0.66 0.43
0.05 0.04 0.04 0.04 0.05 0.04 0.03 0.03 0.02 0.02 0.02 0.01 0.01 0.02 0.02 0.01 0.00 0.00 0.00 0.00 0.00 0.00 0.00 0.00 0.00 0.00 0.00 0.00 0.00 0.00 0.00 0.00 0.02 0.11 0.04 0.02 0.07 0.10 0.32 0.45 0.52 1.13 0.48 0.41 0.49
0.03 0.03 0.04 0.04 0.04 0.03 0.03 0.03 0.03 0.02 0.02 0.01 0.01 0.02 0.02 0.00 0.00 0.00 0.00 0.00 0.00 0.00 0.00 0.00 0.00 0.00 0.00 0.00 0.00 0.00 0.00 0.00 0.01 0.01 0.01 0.00 0.01 0.11 0.35 0.80 0.30 0.32 0.38 0.47 0.75
0.04 0.03 0.03 0.04 0.04 0.03 0.04 0.04 0.03 0.03 0.02 0.01 0.01 0.02 0.01 0.00 0.00 0.00 0.00 0.00 0.00 0.00 0.00 0.00 0.00 0.00 0.00 0.00 0.00 0.00 0.00 0.00 0.01 0.04 0.03 0.00 0.04 0.12 0.30 0.11 0.11 0.16 0.38 0.55 0.56
0.05 0.04 0.03 0.04 0.05 0.05 0.05 0.04 0.03 0.02 0.02 0.02 0.02 0.02 0.00 0.00 0.00 0.00 0.00 0.00 0.00 0.00 0.00 0.00 0.00 0.00 0.00 0.00 0.00 0.00 0.00 0.00 0.00 0.01 0.01 0.02 0.05 0.09 0.39 0.12 0.12 0.12 0.32 0.56 0.58
0.06 0.06 0.06 0.06 0.08 0.09 0.08 0.06 0.04 0.03 0.03 0.02 0.02 0.01 0.00 0.00 0.00 0.00 0.00 0.00 0.00 0.00 0.00 0.00 0.00 0.00 0.00 0.00 0.00 0.00 0.00 0.02 0.03 0.01 0.00 0.05 0.19 0.35 0.13 0.08 0.07 0.03 0.04 0.36 0.86
0.17 0.13 0.12 0.11 0.13 0.13 0.12 0.09 0.06 0.05 0.03 0.02 0.02 0.00 0.00 0.00 0.00 0.00 0.00 0.00 0.00 0.00 0.00 0.00 0.00 0.00 0.00 0.00 0.00 0.00 0.00 0.01 0.04 0.03 0.02 0.15 0.48 0.05 0.03 0.05 0.04 0.01 0.01 0.06 0.10
0.18 0.15 0.12 0.12 0.13 0.14 0.14 0.11 0.09 0.05 0.03 0.01 0.01 0.00 0.00 0.00 0.00 0.00 0.00 0.00 0.00 0.00 0.00 0.00 0.00 0.00 0.00 0.00 0.00 0.00 0.00 0.00 0.01 0.01 0.01 0.05 0.33 0.12 0.05 0.09 0.08 0.02 0.01 0.01 0.01
0.22 0.17 0.15 0.15 0.16 0.17 0.14 0.10 0.08 0.04 0.01 0.00 0.01 0.00 0.00 0.00 0.00 0.00 0.00 0.00 0.00 0.00 0.00 0.00 0.00 0.00 0.00 0.00 0.01 0.00 0.00 0.00 0.02 0.02 0.01 0.01 0.03 0.25 0.12 0.05 0.27 0.09 0.04 0.04 0.00
0.22 0.14 0.10 0.12 0.18 0.16 0.09 0.09 0.08 0.05 0.02 0.00 0.00 0.00 0.00 0.00 0.00 0.00 0.00 0.00 0.00 0.00 0.01 0.00 0.00 0.00 0.00 0.00 0.00 0.00 0.00 0.00 0.00 0.01 0.00 0.00 0.01 0.01 0.00 0.00 0.03 0.05 0.07 0.02 0.00
0.29 0.21 0.15 0.17 0.21 0.13 0.05 0.03 0.02 0.02 0.01 0.00 0.00 0.00 0.00 0.00 0.00 0.00 0.00 0.00 0.00 0.01 0.02 0.02 0.01 0.00 0.00 0.00 0.00 0.00 0.00 0.00 0.00 0.00 0.00 0.00 0.00 0.00 0.00 0.00 0.01 0.01 0.11 0.03 0.00
0.20 0.19 0.22 0.27 0.26 0.16 0.05 0.04 0.02 0.02 0.05 0.01 0.00 0.00 0.00 0.00 0.00 0.00 0.00 0.00 0.00 0.03 0.03 0.02 0.01 0.00 0.01 0.00 0.00 0.00 0.00 0.00 0.00 0.00 0.00 0.00 0.00 0.00 0.01 0.01 0.02 0.00 0.00 0.00 0.00
0.20 0.22 0.24 0.28 0.20 0.04 0.05 0.03 0.01 0.01 0.13 0.02 0.00 0.00 0.00 0.00 0.00 0.00 0.00 0.00 0.00 0.02 0.08 0.07 0.00 0.02 0.00 0.00 0.00 0.00 0.00 0.00 0.00 0.00 0.00 0.00 0.00 0.00 0.00 0.01 0.00 0.00 0.00 0.00 0.02
0.24 0.23 0.21 0.17 0.10 0.07 0.03 0.01 0.01 0.10 0.33 0.02 0.00 0.00 0.00 0.00 0.00 0.00 0.00 0.00 0.00 0.01 0.09 0.09 0.03 0.04 0.02 0.00 0.00 0.01 0.00 0.00 0.00 0.00 0.05 0.02 0.00 0.03 0.05 0.02 0.00 0.01 0.02 0.02 0.03
0.33 0.27 0.29 0.17 0.09 0.05 0.04 0.05 0.18 0.54 0.35 0.01 0.00 0.00 0.00 0.00 0.00 0.00 0.00 0.00 0.00 0.01 0.01 0.01 0.02 0.06 0.03 0.00 0.00 0.00 0.02 0.00 0.00 0.02 0.07 0.01 0.01 0.01 0.01 0.03 0.07 0.14 0.11 0.08 0.07
0.33 0.34 0.31 0.17 0.17 0.07 0.05 0.25 0.57 0.39 0.04 0.00 0.00 0.00 0.00 0.00 0.00 0.00 0.00 0.00 0.00 0.00 0.00 0.00 0.01 0.01 0.01 0.01 0.01 0.02 0.11 0.18 0.19 0.09 0.04 0.00 0.02 0.02 0.06 0.16 0.28 0.32 0.14 0.08 0.06
0.39 0.46 0.30 0.15 0.15 0.15 0.39 0.79 0.58 0.06 0.01 0.01 0.00 0.00 0.00 0.00 0.00 0.00 0.00 0.00 0.00 0.00 0.01 0.06 0.06 0.00 0.01 0.00 0.02 0.02 0.08 0.26 0.36 0.18 0.08 0.15 0.09 0.18 0.36 0.38 0.44 0.32 0.24 0.20 0.24
0.86 0.60 0.47 0.26 0.14 0.22 0.79 0.94 0.20 0.02 0.00 0.01 0.01 0.00 0.00 0.00 0.00 0.00 0.00 0.01 0.02 0.01 0.06 0.11 0.07 0.02 0.01 0.01 0.02 0.08 0.11 0.10 0.50 0.29 0.17 0.12 0.11 0.58 1.05 0.79 1.22 1.33 0.82 0.67 0.55
0.94 0.93 0.68 0.48 0.48 0.83 1.73 0.70 0.03 0.01 0.00 0.00 0.02 0.01 0.01 0.01 0.01 0.01 0.02 0.04 0.05 0.01 0.01 0.06 0.18 0.04 0.02 0.04 0.01 0.07 0.12 0.42 0.70 0.57 0.25 0.01 0.06 0.41 0.67 0.73 0.80 0.68 0.52 0.40 0.31
1.80 1.85 0.97 0.82 1.45 2.25 1.71 0.38 0.04 0.00 0.00 0.01 0.01 0.04 0.05 0.06 0.06 0.06 0.12 0.16 0.04 0.03 0.01 0.02 0.14 0.14 0.12 0.13 0.07 0.10 0.30 0.35 0.48 0.29 0.37 0.20 0.40 0.77 0.65 0.86 0.64 0.20 0.18 0.20 0.22
2.67 2.28 1.12 1.31 2.60 1.79 0.67 0.18 0.04 0.02 0.01 0.01 0.00 0.02 0.08 0.08 0.07 0.11 0.11 0.23 0.14 0.09 0.08 0.12 0.14 0.08 0.07 0.06 0.06 0.16 0.24 0.46 0.96 0.64 0.39 0.45 0.59 0.93 0.76 0.40 0.69 0.32 0.24 0.11 0.13
3.53 2.37 2.06 1.78 2.21 0.85 0.30 0.12 0.06 0.03 0.02 0.02 0.02 0.02 0.06 0.09 0.14 0.11 0.12 0.09 0.15 0.25 0.28 0.24 0.26 0.22 0.15 0.18 0.16 0.23 0.33 0.46 0.62 0.85 0.61 0.74 0.66 0.95 0.72 0.71 0.92 0.48 0.10 0.07 0.16
3.85 3.28 3.74 2.57 0.89 0.52 0.50 0.31 0.09 0.03 0.02 0.03 0.03 0.04 0.06 0.06 0.14 0.15 0.16 0.13 0.12 0.18 0.30 0.41 0.17 0.14 0.16 0.20 0.25 0.26 0.18 0.28 0.85 1.31 0.69 0.35 0.40 1.14 1.31 1.19 0.59 0.20 0.15 0.15 0.22
5.67 2.66 1.43 1.89 0.78 0.38 0.40 0.41 0.27 0.19 0.07 0.05 0.07 0.12 0.10 0.08 0.09 0.10 0.15 0.21 0.15 0.25 0.42 0.50 0.34 0.13 0.07 0.06 0.13 0.16 0.22 0.26 0.45 0.46 0.68 0.44 0.59 0.73 0.83 0.96 0.72 0.37 0.23 0.24 0.28
5.75 1.88 0.81 0.43 0.31 0.44 0.49 0.26 0.13 0.18 0.26 0.13 0.14 0.08 0.10 0.11 0.06 0.13 0.16 0.16 0.24 0.29 0.51 0.51 0.62 0.36 0.11 0.03 0.08 0.13 0.09 0.18 0.29 0.37 0.37 0.28 0.59 0.49 0.53 0.58 0.77 0.60 0.41 0.31 0.29
5.00 1.49 1.30 0.87 0.42 0.68 0.60 0.26 0.12 0.17 0.19 0.06 0.13 0.18 0.12 0.08 0.19 0.21 0.26 0.22 0.25 0.29 0.59 0.44 0.58 0.57 0.58 0.09 0.16 0.19 0.13 0.10 0.19 0.54 0.46 0.68 0.49 0.30 0.45 0.56 0.47 0.59 0.54 0.58 0.42

GFSSW_prec_precacc_147.txt.gz
Total_Precipitation_Accumulation
0.04 0.02 0.03 0.04 0.03 0.03 0.03 0.02 0.02 0.02 0.02 0.02 0.02 0.02 0.02 0.02 0.00 0.00 0.00 0.00 0.00 0.00 0.00 0.00 0.00 0.00 0.00 0.00 0.00 0.00 0.00 0.00 0.00 0.01 0.15 0.23 0.08 0.24 0.13 0.11 0.27 0.31 0.50 0.60 0.85
0.08 0.06 0.05 0.04 0.04 0.03 0.02 0.02 0.02 0.02 0.03 0.03 0.01 0.02 0.02 0.02 0.00 0.00 0.00 0.00 0.00 0.00 0.00 0.00 0.00 0.00 0.00 0.00 0.00 0.00 0.00 0.00 0.00 0.06 0.24 0.13 0.03 0.19 0.09 0.19 0.54 0.38 0.72 0.66 0.43
0.05 0.04 0.04 0.04 0.05 0.04 0.03 0.03 0.02 0.02 0.02 0.01 0.01 0.02 0.02 0.01 0.00 0.00 0.00 0.00 0.00 0.00 0.00 0.00 0.00 0.00 0.00 0.00 0.00 0.00 0.00 0.00 0.02 0.11 0.04 0.02 0.07 0.10 0.32 0.45 0.52 1.13 0.48 0.41 0.49
0.03 0.03 0.04 0.04 0.04 0.03 0.03 0.03 0.03 0.02 0.02 0.01 0.01 0.02 0.02 0.00 0.00 0.00 0.00 0.00 0.00 0.00 0.00 0.00 0.00 0.00 0.00 0.00 0.00 0.00 0.00 0.00 0.01 0.01 0.01 0.00 0.01 0.11 0.35 0.80 0.30 0.32 0.38 0.47 0.75
0.04 0.03 0.03 0.04 0.04 0.03 0.04 0.04 0.03 0.03 0.02 0.01 0.01 0.02 0.01 0.00 0.00 0.00 0.00 0.00 0.00 0.00 0.00 0.00 0.00 0.00 0.00 0.00 0.00 0.00 0.00 0.00 0.01 0.04 0.03 0.00 0.04 0.12 0.30 0.11 0.11 0.16 0.38 0.55 0.56
0.05 0.04 0.03 0.04 0.05 0.05 0.05 0.04 0.03 0.02 0.02 0.02 0.02 0.02 0.00 0.00 0.00 0.00 0.00 0.00 0.00 0.00 0.00 0.00 0.00 0.00 0.00 0.00 0.00 0.00 0.00 0.00 0.00 0.01 0.01 0.02 0.05 0.09 0.39 0.12 0.12 0.12 0.32 0.56 0.58
0.08 0.07 0.06 0.06 0.08 0.09 0.08 0.06 0.04 0.03 0.03 0.02 0.02 0.01 0.00 0.00 0.00 0.00 0.00 0.00 0.00 0.00 0.00 0.00 0.00 0.00 0.00 0.00 0.00 0.00 0.00 0.02 0.03 0.01 0.00 0.05 0.19 0.35 0.13 0.08 0.07 0.03 0.04 0.36 0.86
0.18 0.13 0.12 0.11 0.13 0.13 0.12 0.09 0.06 0.05 0.03 0.02 0.02 0.00 0.00 0.00 0.00 0.00 0.00 0.00 0.00 0.00 0.00 0.00 0.00 0.00 0.00 0.00 0.00 0.00 0.00 0.01 0.04 0.03 0.02 0.15 0.48 0.05 0.03 0.05 0.04 0.01 0.01 0.06 0.10
0.21 0.15 0.12 0.12 0.13 0.14 0.14 0.11 0.09 0.05 0.03 0.01 0.01 0.00 0.00 0.00 0.00 0.00 0.00 0.00 0.00 0.00 0.00 0.00 0.00 0.00 0.00 0.00 0.00 0.00 0.00 0.00 0.01 0.01 0.01 0.05 0.33 0.12 0.05 0.09 0.08 0.02 0.01 0.01 0.01
0.33 0.25 0.18 0.16 0.16 0.17 0.14 0.10 0.08 0.04 0.01 0.00 0.01 0.00 0.00 0.00 0.00 0.00 0.00 0.00 0.00 0.00 0.00 0.00 0.00 0.00 0.00 0.00 0.01 0.00 0.00 0.00 0.02 0.02 0.01 0.01 0.03 0.25 0.12 0.05 0.27 0.09 0.04 0.04 0.00
0.30 0.20 0.12 0.12 0.18 0.16 0.09 0.09 0.08 0.05 0.02 0.00 0.00 0.00 0.00 0.00 0.00 0.00 0.00 0.00 0.00 0.00 0.01 0.00 0.00 0.00 0.00 0.00 0.00 0.00 0.00 0.00 0.00 0.01 0.00 0.00 0.01 0.01 0.00 0.00 0.03 0.05 0.07 0.02 0.00
0.38 0.30 0.23 0.22 0.23 0.13 0.05 0.03 0.02 0.02 0.01 0.00 0.00 0.00 0.00 0.00 0.00 0.00 0.00 0.00 0.00 0.01 0.02 0.02 0.01 0.00 0.00 0.00 0.00 0.00 0.00 0.00 0.00 0.00 0.00 0.00 0.00 0.00 0.00 0.00 0.01 0.01 0.11 0.03 0.00
0.29 0.28 0.31 0.33 0.29 0.16 0.05 0.04 0.02 0.02 0.05 0.01 0.00 0.00 0.00 0.00 0.00 0.00 0.00 0.00 0.00 0.03 0.03 0.02 0.01 0.00 0.01 0.00 0.00 0.00 0.00 0.00 0.00 0.00 0.00 0.00 0.00 0.00 0.01 0.01 0.02 0.00 0.00 0.00 0.00
0.22 0.25 0.27 0.30 0.21 0.05 0.06 0.03 0.01 0.01 0.13 0.02 0.00 0.00 0.00 0.00 0.00 0.00 0.00 0.00 0.00 0.02 0.08 0.07 0.00 0.02 0.00 0.00 0.00 0.00 0.00 0.00 0.00 0.00 0.00 0.00 0.00 0.00 0.00 0.01 0.00 0.00 0.00 0.00 0.02
0.24 0.24 0.22 0.17 0.10 0.07 0.03 0.01 0.01 0.10 0.33 0.02 0.00 0.00 0.00 0.00 0.00 0.00 0.00 0.00 0.00 0.01 0.09 0.09 0.03 0.04 0.02 0.00 0.00 0.01 0.00 0.00 0.00 0.00 0.05 0.02 0.00 0.03 0.05 0.02 0.00 0.01 0.02 0.02 0.03
0.33 0.27 0.29 0.17 0.09 0.05 0.04 0.05 0.18 0.55 0.36 0.01 0.00 0.00 0.00 0.00 0.00 0.00 0.00 0.00 0.00 0.01 0.01 0.01 0.02 0.06 0.03 0.00 0.00 0.00 0.02 0.00 0.00 0.02 0.07 0.01 0.01 0.01 0.01 0.03 0.07 0.14 0.11 0.08 0.07
0.33 0.34 0.31 0.17 0.17 0.07 0.05 0.25 0.58 0.40 0.04 0.00 0.00 0.00 0.00 0.00 0.00 0.00 0.00 0.00 0.00 0.00 0.00 0.00 0.01 0.01 0.01 0.01 0.01 0.02 0.11 0.18 0.19 0.09 0.04 0.00 0.02 0.02 0.06 0.16 0.28 0.32 0.14 0.08 0.06
0.42 0.47 0.30 0.15 0.15 0.15 0.39 0.79 0.59 0.06 0.01 0.01 0.00 0.00 0.00 0.00 0.00 0.00 0.00 0.00 0.00 0.00 0.01 0.06 0.06 0.00 0.01 0.00 0.02 0.02 0.08 0.26 0.36 0.18 0.08 0.15 0.09 0.18 0.36 0.38 0.44 0.32 0.24 0.20 0.24
0.93 0.61 0.47 0.26 0.14 0.22 0.80 0.94 0.20 0.02 0.00 0.01 0.01 0.00 0.00 0.00 0.00 0.00 0.00 0.01 0.02 0.01 0.06 0.11 0.07 0.02 0.01 0.01 0.02 0.08 0.11 0.10 0.50 0.29 0.17 0.12 0.11 0.58 1.05 0.79 1.22 1.33 0.82 0.67 0.55
1.00 0.94 0.68 0.48 0.48 0.83 1.77 0.72 0.03 0.01 0.00 0.00 0.02 0.02 0.01 0.01 0.01 0.01 0.02 0.04 0.05 0.01 0.01 0.06 0.18 0.04 0.02 0.04 0.01 0.07 0.12 0.42 0.70 0.57 0.25 0.01 0.06 0.41 0.67 0.73 0.80 0.68 0.52 0.40 0.31
2.04 1.95 0.99 0.83 1.45 2.27 1.72 0.38 0.04 0.00 0.00 0.01 0.01 0.04 0.05 0.06 0.06 0.06 0.12 0.16 0.04 0.03 0.01 0.02 0.14 0.14 0.12 0.13 0.07 0.10 0.30 0.35 0.48 0.29 0.37 0.20 0.40 0.77 0.65 0.86 0.64 0.20 0.18 0.20 0.22
3.10 2.58 1.15 1.35 2.75 1.89 0.68 0.18 0.04 0.02 0.01 0.01 0.00 0.02 0.08 0.08 0.07 0.11 0.11 0.23 0.14 0.09 0.08 0.12 0.14 0.08 0.07 0.06 0.06 0.16 0.24 0.46 0.96 0.64 0.39 0.46 0.59 0.93 0.76 0.40 0.69 0.32 0.24 0.11 0.13
4.04 2.61 2.12 1.87 2.46 0.93 0.30 0.12 0.06 0.03 0.02 0.02 0.02 0.02 0.06 0.09 0.14 0.11 0.12 0.09 0.15 0.25 0.28 0.24 0.29 0.22 0.15 0.18 0.16 0.24 0.33 0.46 0.62 0.86 0.61 0.76 0.67 0.95 0.72 0.71 0.92 0.48 0.10 0.07 0.16
4.24 3.62 4.00 2.84 1.07 0.54 0.50 0.31 0.09 0.03 0.02 0.03 0.03 0.04 0.06 0.06 0.14 0.16 0.16 0.13 0.12 0.18 0.30 0.41 0.17 0.15 0.16 0.20 0.26 0.28 0.19 0.29 0.85 1.32 0.70 0.36 0.41 1.14 1.31 1.19 0.59 0.20 0.15 0.15 0.22
5.93 2.94 1.62 2.08 0.88 0.39 0.40 0.41 0.27 0.19 0.07 0.05 0.07 0.12 0.10 0.08 0.09 0.11 0.15 0.22 0.15 0.25 0.42 0.51 0.35 0.13 0.07 0.06 0.14 0.19 0.25 0.27 0.47 0.48 0.72 0.46 0.61 0.74 0.83 0.96 0.72 0.37 0.23 0.24 0.28
5.94 2.03 0.97 0.60 0.34 0.44 0.50 0.27 0.13 0.18 0.26 0.13 0.14 0.08 0.10 0.11 0.06 0.13 0.16 0.16 0.25 0.29 0.51 0.51 0.63 0.36 0.12 0.03 0.09 0.14 0.10 0.18 0.30 0.39 0.41 0.32 0.61 0.49 0.53 0.58 0.77 0.60 0.41 0.31 0.29
5.05 1.59 1.49 1.03 0.55 0.81 0.64 0.27 0.12 0.17 0.19 0.06 0.13 0.18 0.12 0.08 0.19 0.21 0.26 0.22 0.25 0.29 0.59 0.44 0.58 0.57 0.59 0.09 0.16 0.20 0.13 0.10 0.19 0.54 0.46 0.69 0.49 0.30 0.45 0.56 0.47 0.59 0.54 0.58 0.43

GFSSW_prec_precacc_150.txt.gz
Total_Precipitation_Accumulation
0.04 0.02 0.03 0.04 0.03 0.03 0.03 0.02 0.02 0.02 0.02 0.02 0.02 0.02 0.02 0.02 0.00 0.00 0.00 0.00 0.00 0.00 0.00 0.00 0.00 0.00 0.00 0.00 0.00 0.00 0.00 0.00 0.00 0.01 0.15 0.23 0.08 0.24 0.13 0.11 0.27 0.31 0.50 0.60 0.85
0.08 0.06 0.05 0.04 0.04 0.03 0.02 0.02 0.02 0.02 0.03 0.03 0.01 0.02 0.02 0.02 0.00 0.00 0.00 0.00 0.00 0.00 0.00 0.00 0.00 0.00 0.00 0.00 0.00 0.00 0.00 0.00 0.00 0.06 0.24 0.13 0.03 0.19 0.09 0.19 0.54 0.38 0.72 0.66 0.43
0.05 0.04 0.04 0.04 0.05 0.04 0.03 0.03 0.02 0.02 0.02 0.01 0.01 0.02 0.02 0.01 0.00 0.00 0.00 0.00 0.00 0.00 0.00 0.00 0.00 0.00 0.00 0.00 0.00 0.00 0.00 0.00 0.02 0.11 0.04 0.02 0.07 0.10 0.32 0.45 0.52 1.13 0.48 0.41 0.49
0.03 0.03 0.04 0.04 0.04 0.03 0.03 0.03 0.03 0.02 0.02 0.01 0.01 0.02 0.02 0.00 0.00 0.00 0.00 0.00 0.00 0.00 0.00 0.00 0.00 0.00 0.00 0.00 0.00 0.00 0.00 0.00 0.01 0.01 0.01 0.00 0.01 0.11 0.35 0.80 0.30 0.32 0.38 0.47 0.75
0.04 0.03 0.03 0.04 0.04 0.03 0.04 0.04 0.03 0.03 0.02 0.01 0.01 0.02 0.01 0.00 0.00 0.00 0.00 0.00 0.00 0.00 0.00 0.00 0.00 0.00 0.00 0.00 0.00 0.00 0.00 0.00 0.01 0.04 0.03 0.00 0.04 0.12 0.30 0.11 0.11 0.16 0.38 0.55 0.56
0.05 0.04 0.03 0.04 0.05 0.05 0.05 0.04 0.03 0.02 0.02 0.02 0.02 0.02 0.00 0.00 0.00 0.00 0.00 0.00 0.00 0.00 0.00 0.00 0.00 0.00 0.00 0.00 0.00 0.00 0.00 0.00 0.00 0.01 0.01 0.02 0.05 0.09 0.39 0.12 0.12 0.12 0.32 0.56 0.58
0.08 0.07 0.06 0.06 0.08 0.09 0.08 0.06 0.04 0.03 0.03 0.02 0.02 0.01 0.00 0.00 0.00 0.00 0.00 0.00 0.00 0.00 0.00 0.00 0.00 0.00 0.00 0.00 0.00 0.00 0.00 0.02 0.03 0.01 0.00 0.05 0.19 0.35 0.13 0.08 0.07 0.03 0.04 0.36 0.86
0.19 0.14 0.12 0.11 0.13 0.13 0.12 0.09 0.06 0.05 0.03 0.02 0.02 0.00 0.00 0.00 0.00 0.00 0.00 0.00 0.00 0.00 0.00 0.00 0.00 0.00 0.00 0.00 0.00 0.00 0.00 0.01 0.04 0.03 0.02 0.15 0.48 0.05 0.03 0.05 0.04 0.01 0.01 0.06 0.10
0.26 0.17 0.12 0.12 0.13 0.14 0.14 0.11 0.09 0.05 0.03 0.01 0.01 0.00 0.00 0.00 0.00 0.00 0.00 0.00 0.00 0.00 0.00 0.00 0.00 0.00 0.00 0.00 0.00 0.00 0.00 0.00 0.01 0.01 0.01 0.05 0.33 0.12 0.05 0.09 0.08 0.02 0.01 0.01 0.01
0.40 0.30 0.20 0.17 0.17 0.17 0.14 0.10 0.08 0.04 0.01 0.00 0.01 0.00 0.00 0.00 0.00 0.00 0.00 0.00 0.00 0.00 0.00 0.00 0.00 0.00 0.00 0.00 0.01 0.00 0.00 0.00 0.02 0.02 0.01 0.01 0.03 0.25 0.12 0.05 0.27 0.09 0.04 0.04 0.00
0.32 0.21 0.13 0.13 0.18 0.16 0.09 0.09 0.08 0.05 0.02 0.00 0.00 0.00 0.00 0.00 0.00 0.00 0.00 0.00 0.00 0.00 0.01 0.00 0.00 0.00 0.00 0.00 0.00 0.00 0.00 0.00 0.00 0.01 0.00 0.00 0.01 0.01 0.00 0.00 0.03 0.05 0.07 0.02 0.00
0.41 0.33 0.26 0.23 0.23 0.13 0.05 0.03 0.02 0.02 0.01 0.00 0.00 0.00 0.00 0.00 0.00 0.00 0.00 0.00 0.00 0.01 0.02 0.02 0.01 0.00 0.00 0.00 0.00 0.00 0.00 0.00 0.00 0.00 0.00 0.00 0.00 0.00 0.00 0.00 0.01 0.01 0.11 0.03 0.00
0.32 0.31 0.33 0.36 0.31 0.16 0.05 0.04 0.02 0.02 0.05 0.01 0.00 0.00 0.00 0.00 0.00 0.00 0.00 0.00 0.00 0.03 0.03 0.02 0.01 0.00 0.01 0.00 0.00 0.00 0.00 0.00 0.00 0.00 0.00 0.00 0.00 0.00 0.01 0.01 0.02 0.00 0.00 0.00 0.00
0.23 0.27 0.29 0.31 0.22 0.05 0.06 0.03 0.01 0.01 0.13 0.02 0.00 0.00 0.00 0.00 0.00 0.00 0.00 0.00 0.00 0.02 0.08 0.07 0.00 0.02 0.00 0.00 0.00 0.00 0.00 0.00 0.00 0.00 0.00 0.00 0.00 0.00 0.00 0.01 0.00 0.00 0.00 0.00 0.02
0.24 0.24 0.22 0.17 0.10 0.07 0.03 0.01 0.01 0.10 0.33 0.02 0.00 0.00 0.00 0.00 0.00 0.00 0.00 0.00 0.00 0.01 0.09 0.09 0.03 0.04 0.02 0.00 0.00 0.01 0.00 0.00 0.00 0.00 0.05 0.02 0.00 0.03 0.05 0.02 0.00 0.01 0.02 0.02 0.03
0.33 0.27 0.29 0.17 0.09 0.05 0.04 0.05 0.18 0.58 0.41 0.01 0.00 0.00 0.00 0.00 0.00 0.00 0.00 0.00 0.00 0.01 0.01 0.01 0.02 0.06 0.03 0.00 0.00 0.00 0.02 0.00 0.00 0.02 0.07 0.01 0.01 0.01 0.01 0.03 0.07 0.14 0.11 0.08 0.07
0.33 0.34 0.31 0.17 0.17 0.07 0.05 0.25 0.58 0.43 0.04 0.00 0.00 0.00 0.00 0.00 0.00 0.00 0.00 0.00 0.00 0.00 0.00 0.00 0.01 0.01 0.01 0.01 0.01 0.02 0.11 0.18 0.19 0.09 0.04 0.00 0.02 0.02 0.06 0.16 0.28 0.32 0.14 0.08 0.06
0.45 0.47 0.31 0.15 0.15 0.15 0.41 0.82 0.60 0.07 0.01 0.01 0.00 0.00 0.00 0.00 0.00 0.00 0.00 0.00 0.00 0.00 0.01 0.06 0.06 0.00 0.01 0.00 0.02 0.02 0.08 0.26 0.36 0.18 0.08 0.15 0.09 0.18 0.36 0.38 0.44 0.32 0.24 0.20 0.24
1.17 0.68 0.47 0.26 0.14 0.22 0.83 1.04 0.21 0.02 0.00 0.01 0.01 0.00 0.00 0.00 0.00 0.00 0.00 0.01 0.02 0.01 0.06 0.11 0.07 0.02 0.01 0.01 0.02 0.08 0.11 0.10 0.50 0.29 0.17 0.12 0.11 0.58 1.05 0.79 1.22 1.33 0.82 0.67 0.55
1.24 1.03 0.70 0.49 0.48 0.83 1.84 0.74 0.03 0.01 0.00 0.00 0.02 0.02 0.01 0.01 0.01 0.01 0.02 0.04 0.05 0.01 0.01 0.06 0.18 0.04 0.02 0.04 0.01 0.07 0.12 0.42 0.70 0.57 0.25 0.01 0.06 0.41 0.67 0.73 0.80 0.68 0.52 0.40 0.31
2.28 2.10 1.02 0.84 1.46 2.30 1.77 0.38 0.04 0.00 0.00 0.01 0.01 0.04 0.05 0.06 0.06 0.06 0.12 0.16 0.04 0.03 0.01 0.02 0.14 0.14 0.12 0.13 0.07 0.10 0.30 0.35 0.48 0.29 0.37 0.20 0.40 0.77 0.65 0.86 0.64 0.20 0.18 0.20 0.22
3.42 2.87 1.19 1.36 2.85 2.01 0.68 0.18 0.04 0.02 0.01 0.01 0.00 0.02 0.08 0.08 0.07 0.11 0.11 0.23 0.14 0.09 0.08 0.12 0.14 0.08 0.07 0.06 0.06 0.16 0.24 0.46 0.96 0.64 0.39 0.46 0.59 0.93 0.76 0.40 0.69 0.32 0.24 0.11 0.13
4.39 2.88 2.26 1.97 2.65 1.05 0.30 0.12 0.06 0.03 0.02 0.02 0.02 0.02 0.06 0.09 0.14 0.11 0.12 0.09 0.15 0.25 0.28 0.24 0.31 0.22 0.15 0.18 0.16 0.24 0.33 0.46 0.62 0.86 0.61 0.76 0.67 0.95 0.72 0.71 0.92 0.48 0.10 0.07 0.16
4.52 3.91 4.29 3.26 1.32 0.57 0.51 0.31 0.09 0.03 0.02 0.03 0.03 0.04 0.06 0.06 0.14 0.16 0.16 0.13 0.12 0.18 0.30 0.41 0.18 0.16 0.16 0.21 0.27 0.29 0.19 0.29 0.86 1.32 0.71 0.36 0.41 1.14 1.31 1.19 0.59 0.20 0.15 0.15 0.22
6.07 3.13 1.81 2.40 1.09 0.43 0.42 0.43 0.27 0.19 0.07 0.05 0.07 0.12 0.10 0.08 0.09 0.11 0.15 0.22 0.15 0.25 0.42 0.51 0.35 0.13 0.07 0.06 0.16 0.20 0.25 0.28 0.53 0.58 0.87 0.50 0.66 0.76 0.83 0.97 0.74 0.37 0.23 0.24 0.28
6.00 2.10 1.07 0.79 0.49 0.56 0.64 0.36 0.13 0.18 0.26 0.13 0.14 0.08 0.10 0.11 0.06 0.13 0.16 0.16 0.25 0.29 0.52 0.51 0.66 0.36 0.12 0.03 0.10 0.19 0.11 0.18 0.30 0.41 0.43 0.33 0.61 0.50 0.53 0.58 0.77 0.60 0.41 0.31 0.29
5.06 1.60 1.57 1.13 0.64 0.99 0.85 0.36 0.13 0.18 0.20 0.06 0.13 0.18 0.12 0.08 0.19 0.21 0.26 0.22 0.25 0.29 0.59 0.44 0.58 0.57 0.59 0.09 0.16 0.23 0.13 0.10 0.19 0.54 0.47 0.69 0.50 0.30 0.45 0.56 0.47 0.59 0.54 0.58 0.43

GFSSW_prec_precacc_153.txt.gz
Total_Precipitation_Accumulation
0.04 0.02 0.03 0.04 0.03 0.03 0.03 0.02 0.02 0.02 0.02 0.02 0.02 0.02 0.02 0.02 0.00 0.00 0.00 0.00 0.00 0.00 0.00 0.00 0.00 0.00 0.00 0.00 0.00 0.00 0.00 0.00 0.00 0.01 0.15 0.23 0.08 0.24 0.13 0.11 0.27 0.31 0.50 0.60 0.86
0.08 0.06 0.05 0.04 0.04 0.03 0.02 0.02 0.02 0.02 0.03 0.03 0.01 0.02 0.02 0.02 0.00 0.00 0.00 0.00 0.00 0.00 0.00 0.00 0.00 0.00 0.00 0.00 0.00 0.00 0.00 0.00 0.00 0.06 0.24 0.13 0.03 0.19 0.09 0.19 0.54 0.38 0.72 0.66 0.43
0.05 0.04 0.04 0.04 0.05 0.04 0.03 0.03 0.02 0.02 0.02 0.01 0.01 0.02 0.02 0.01 0.00 0.00 0.00 0.00 0.00 0.00 0.00 0.00 0.00 0.00 0.00 0.00 0.00 0.00 0.00 0.00 0.02 0.11 0.04 0.02 0.07 0.10 0.32 0.45 0.52 1.13 0.48 0.41 0.49
0.03 0.03 0.04 0.04 0.04 0.03 0.03 0.03 0.03 0.02 0.02 0.01 0.01 0.02 0.02 0.00 0.00 0.00 0.00 0.00 0.00 0.00 0.00 0.00 0.00 0.00 0.00 0.00 0.00 0.00 0.00 0.00 0.01 0.01 0.01 0.00 0.01 0.11 0.35 0.80 0.30 0.32 0.38 0.47 0.75
0.04 0.03 0.03 0.04 0.04 0.03 0.04 0.04 0.03 0.03 0.02 0.01 0.01 0.02 0.01 0.00 0.00 0.00 0.00 0.00 0.00 0.00 0.00 0.00 0.00 0.00 0.00 0.00 0.00 0.00 0.00 0.00 0.01 0.04 0.03 0.00 0.04 0.12 0.30 0.11 0.11 0.16 0.38 0.55 0.56
0.05 0.04 0.03 0.04 0.05 0.05 0.05 0.04 0.03 0.02 0.02 0.02 0.02 0.02 0.00 0.00 0.00 0.00 0.00 0.00 0.00 0.00 0.00 0.00 0.00 0.00 0.00 0.00 0.00 0.00 0.00 0.00 0.00 0.01 0.01 0.02 0.05 0.09 0.39 0.12 0.12 0.12 0.32 0.56 0.58
0.08 0.07 0.06 0.07 0.08 0.09 0.08 0.06 0.04 0.03 0.03 0.02 0.02 0.01 0.00 0.00 0.00 0.00 0.00 0.00 0.00 0.00 0.00 0.00 0.00 0.00 0.00 0.00 0.00 0.00 0.00 0.02 0.03 0.01 0.00 0.05 0.19 0.35 0.13 0.08 0.07 0.03 0.04 0.36 0.86
0.19 0.14 0.12 0.11 0.13 0.13 0.12 0.09 0.06 0.05 0.03 0.02 0.02 0.00 0.00 0.00 0.00 0.00 0.00 0.00 0.00 0.00 0.00 0.00 0.00 0.00 0.00 0.00 0.00 0.00 0.00 0.01 0.04 0.03 0.02 0.15 0.48 0.05 0.03 0.05 0.04 0.01 0.01 0.06 0.10
0.28 0.19 0.13 0.12 0.13 0.14 0.14 0.11 0.09 0.05 0.03 0.01 0.01 0.00 0.00 0.00 0.00 0.00 0.00 0.00 0.00 0.00 0.00 0.00 0.00 0.00 0.00 0.00 0.00 0.00 0.00 0.00 0.01 0.01 0.01 0.05 0.33 0.12 0.05 0.09 0.08 0.02 0.01 0.01 0.01
0.41 0.31 0.22 0.19 0.18 0.17 0.14 0.10 0.08 0.04 0.01 0.00 0.01 0.00 0.00 0.00 0.00 0.00 0.00 0.00 0.00 0.00 0.00 0.00 0.00 0.00 0.00 0.00 0.01 0.00 0.00 0.00 0.02 0.02 0.01 0.01 0.03 0.25 0.12 0.05 0.27 0.09 0.04 0.04 0.00
0.32 0.22 0.14 0.13 0.18 0.16 0.09 0.09 0.08 0.05 0.02 0.00 0.00 0.00 0.00 0.00 0.00 0.00 0.00 0.00 0.00 0.00 0.01 0.00 0.00 0.00 0.00 0.00 0.00 0.00 0.00 0.00 0.00 0.01 0.00 0.00 0.01 0.01 0.00 0.00 0.03 0.05 0.07 0.02 0.00
0.42 0.34 0.26 0.24 0.23 0.13 0.05 0.03 0.02 0.02 0.01 0.00 0.00 0.00 0.00 0.00 0.00 0.00 0.00 0.00 0.00 0.01 0.02 0.02 0.01 0.00 0.00 0.00 0.00 0.00 0.00 0.00 0.00 0.00 0.00 0.00 0.00 0.00 0.00 0.00 0.01 0.01 0.11 0.03 0.00
0.34 0.32 0.33 0.36 0.31 0.17 0.05 0.04 0.02 0.02 0.05 0.01 0.00 0.00 0.00 0.00 0.00 0.00 0.00 0.00 0.00 0.03 0.03 0.02 0.01 0.00 0.01 0.00 0.00 0.00 0.00 0.00 0.00 0.00 0.00 0.00 0.00 0.00 0.01 0.01 0.02 0.00 0.00 0.00 0.00
0.24 0.27 0.29 0.31 0.22 0.05 0.06 0.03 0.01 0.01 0.13 0.02 0.00 0.00 0.00 0.00 0.00 0.00 0.00 0.00 0.00 0.02 0.08 0.07 0.00 0.02 0.00 0.00 0.00 0.00 0.00 0.00 0.00 0.00 0.00 0.00 0.00 0.00 0.00 0.01 0.00 0.00 0.00 0.00 0.02
0.25 0.24 0.22 0.17 0.10 0.07 0.04 0.02 0.01 0.10 0.35 0.02 0.00 0.00 0.00 0.00 0.00 0.00 0.00 0.00 0.00 0.01 0.09 0.09 0.03 0.04 0.02 0.00 0.00 0.01 0.00 0.00 0.00 0.00 0.05 0.02 0.00 0.03 0.05 0.02 0.00 0.01 0.02 0.02 0.03
0.33 0.27 0.29 0.17 0.09 0.05 0.04 0.05 0.18 0.59 0.42 0.01 0.00 0.00 0.00 0.00 0.00 0.00 0.00 0.00 0.00 0.01 0.01 0.01 0.02 0.06 0.03 0.00 0.00 0.00 0.02 0.00 0.00 0.02 0.07 0.01 0.01 0.01 0.01 0.03 0.07 0.14 0.11 0.08 0.07
0.33 0.34 0.31 0.17 0.17 0.07 0.05 0.25 0.58 0.43 0.04 0.00 0.00 0.00 0.00 0.00 0.00 0.00 0.00 0.00 0.00 0.00 0.00 0.00 0.01 0.01 0.01 0.01 0.01 0.02 0.11 0.18 0.19 0.09 0.04 0.00 0.02 0.02 0.06 0.16 0.28 0.32 0.14 0.08 0.06
0.49 0.48 0.31 0.15 0.15 0.15 0.41 0.84 0.61 0.07 0.01 0.01 0.00 0.00 0.00 0.00 0.00 0.00 0.00 0.00 0.00 0.00 0.01 0.06 0.06 0.00 0.01 0.00 0.02 0.02 0.08 0.26 0.36 0.18 0.08 0.15 0.09 0.18 0.36 0.38 0.44 0.32 0.24 0.20 0.24
1.40 0.78 0.49 0.26 0.14 0.22 0.86 1.11 0.21 0.02 0.00 0.01 0.01 0.00 0.00 0.00 0.00 0.00 0.00 0.01 0.02 0.01 0.06 0.11 0.07 0.02 0.01 0.01 0.02 0.08 0.11 0.10 0.50 0.29 0.17 0.12 0.11 0.58 1.05 0.79 1.22 1.33 0.82 0.67 0.55
1.45 1.18 0.74 0.50 0.48 0.83 1.86 0.76 0.03 0.01 0.00 0.00 0.02 0.02 0.01 0.01 0.01 0.01 0.02 0.04 0.05 0.01 0.01 0.06 0.18 0.04 0.02 0.04 0.01 0.07 0.12 0.42 0.70 0.57 0.25 0.01 0.06 0.41 0.67 0.73 0.80 0.68 0.52 0.40 0.31
2.48 2.29 1.08 0.90 1.58 2.41 1.80 0.38 0.04 0.00 0.00 0.01 0.01 0.04 0.05 0.06 0.06 0.06 0.12 0.16 0.04 0.03 0.01 0.02 0.14 0.14 0.12 0.13 0.07 0.10 0.30 0.35 0.48 0.29 0.37 0.20 0.40 0.77 0.65 0.86 0.64 0.20 0.18 0.20 0.22
3.69 3.07 1.25 1.43 3.06 2.22 0.71 0.18 0.04 0.02 0.01 0.01 0.00 0.02 0.08 0.08 0.07 0.11 0.11 0.23 0.14 0.09 0.08 0.12 0.14 0.08 0.07 0.06 0.06 0.16 0.24 0.46 0.96 0.64 0.39 0.46 0.59 0.93 0.76 0.40 0.69 0.32 0.24 0.11 0.13
4.62 3.11 2.39 2.15 2.86 1.14 0.31 0.12 0.06 0.03 0.02 0.02 0.02 0.02 0.06 0.09 0.14 0.11 0.12 0.09 0.15 0.25 0.28 0.24 0.32 0.22 0.15 0.18 0.16 0.24 0.33 0.46 0.62 0.86 0.61 0.76 0.68 0.95 0.72 0.71 0.92 0.48 0.10 0.07 0.16
4.55 4.02 4.40 3.55 1.52 0.61 0.51 0.31 0.09 0.03 0.02 0.03 0.03 0.04 0.06 0.06 0.14 0.16 0.16 0.13 0.12 0.18 0.30 0.41 0.19 0.18 0.19 0.26 0.29 0.31 0.21 0.31 0.92 1.39 0.75 0.38 0.42 1.14 1.31 1.20 0.61 0.20 0.15 0.15 0.22
6.08 3.15 1.86 2.57 1.25 0.51 0.44 0.45 0.27 0.19 0.07 0.05 0.07 0.12 0.10 0.08 0.09 0.11 0.15 0.22 0.15 0.25 0.42 0.51 0.35 0.13 0.08 0.08 0.17 0.22 0.26 0.29 0.58 0.63 0.97 0.52 0.68 0.76 0.84 1.01 0.80 0.37 0.23 0.24 0.28
6.01 2.11 1.08 0.82 0.57 0.69 0.83 0.54 0.19 0.18 0.26 0.13 0.14 0.08 0.10 0.11 0.06 0.13 0.16 0.16 0.25 0.29 0.52 0.51 0.67 0.36 0.13 0.03 0.11 0.21 0.11 0.18 0.30 0.41 0.43 0.33 0.61 0.50 0.53 0.59 0.77 0.60 0.41 0.31 0.29
5.06 1.61 1.59 1.15 0.65 1.06 0.97 0.53 0.29 0.29 0.33 0.07 0.13 0.19 0.13 0.08 0.19 0.21 0.26 0.22 0.25 0.29 0.59 0.44 0.58 0.57 0.59 0.09 0.17 0.24 0.13 0.10 0.19 0.54 0.47 0.69 0.50 0.30 0.45 0.56 0.47 0.59 0.54 0.58 0.43